ftp/pub/palmer/observations_modified/2019/June/AR190605_BASE.txt

Download

Sample DateTime	Unit Id	WS Avg 2min	WD Avg 2min	WGS 10min	WGD 10min	Air Temp	Rel Humidity	Dew Point	Pyranometer	Quantum	Air Pressure	Snow Level	Rainfall	PW Current	Visibility	CBase 1	CBase 2	CBase 3	Vert Vis
2019/06/05  00:00:00  BASE  3.234    151  4.1454   147  2.5   96    2.0   0     0     990.3    NA       0.0000   9999     0     0     0    
2019/06/05  00:01:00  BASE  3.33984  147  4.1454   147  2.4   96    1.9   0     0     990.3    NA       0.0000   9999     0     0     0    
2019/06/05  00:02:00  BASE  3.25752  142  4.08072  162  2.4   97    1.9   0     0     990.3    NA       0.0000   9999     0     0     0    
2019/06/05  00:03:00  BASE  3.24576  138  4.08072  162  2.3   97    1.9   0     0     990.3    NA       0.0000   9999     0     0     0    
2019/06/05  00:04:00  BASE  3.60444  137  4.2042   138  2.4   98    2.0   0     0     990.3    NA       0.0000   9999     0     0     0    
2019/06/05  00:05:00  BASE  3.55152  140  4.2042   138  2.5   98    2.2   0     0     990.3    NA       0.0000   9999     0     0     0    
2019/06/05  00:06:00  BASE  3.03408  143  4.2042   138  2.6   98    2.3   0     0     990.2    NA       0.0000   9999     0     0     0    
2019/06/05  00:07:00  BASE  2.646    143  4.2042   138  2.6   98    2.3   0     0     990.2    NA       0.0000   9999     0     0     0    
2019/06/05  00:08:00  BASE  2.54016  143  4.2042   138  2.7   98    2.3   0     0     990.2    NA       0.0000   9999     0     0     0    
2019/06/05  00:09:00  BASE  2.59308  142  4.2042   138  2.6   97    2.3   0     0     990.2    NA       0.0000   9999     0     0     0    
2019/06/05  00:10:00  BASE  2.92236  139  4.2042   138  2.6   97    2.2   0     0     990.2    NA       0.0000   9999     0     0     0    
2019/06/05  00:11:00  BASE  3.2928   137  4.2042   138  2.6   97    2.2   0     0     990.2    NA       0.0000   9999     6820  0     0    
2019/06/05  00:12:00  BASE  3.48684  139  4.2042   138  2.7   97    2.2   0     0     990.2    NA       0.0000   9999     6860  0     0    
2019/06/05  00:13:00  BASE  3.40452  142  4.2042   138  2.8   97    2.3   0     0     990.2    NA       0.0000   9999     6530  0     0    
2019/06/05  00:14:00  BASE  3.16932  138  3.93372  141  2.8   96    2.3   0     0     990.2    NA       0.0000   9999     0     0     0    
2019/06/05  00:15:00  BASE  2.90472  125  3.93372  141  2.9   96    2.3   0     0     990.3    NA       0.0000   9999     0     0     0    
2019/06/05  00:16:00  BASE  2.12268  110  3.93372  141  3.0   95    2.3   0     0     990.3    NA       0.0000   9999     0     0     0    
2019/06/05  00:17:00  BASE  1.7934   108  3.93372  141  3.0   94    2.2   0     0     990.3    NA       0.0000   9999     0     0     0    
2019/06/05  00:18:00  BASE  2.18148  111  3.93372  141  3.1   94    2.2   0     0     990.3    NA       0.0000   9999     0     0     0    
2019/06/05  00:19:00  BASE  1.87572  100  3.93372  141  3.1   93    2.1   0     0     990.3    NA       0.0000   9999     0     0     0    
2019/06/05  00:20:00  BASE  1.66992  93   3.93372  141  3.0   93    2.0   0     0     990.3    NA       0.0000   9999     0     0     0    
2019/06/05  00:21:00  BASE  2.2344   104  3.93372  141  3.0   93    1.9   0     0     990.3    NA       0.0000   9999     4690  0     0    
2019/06/05  00:22:00  BASE  2.69304  113  3.83964  141  3.0   93    1.9   0     0     990.3    NA       0.0000   9999     0     0     0    
2019/06/05  00:23:00  BASE  2.95764  115  3.44568  125  3.0   93    2.0   0     0     990.3    NA       0.0000   9999     6630  0     0    
2019/06/05  00:24:00  BASE  3.2046   118  3.86904  120  3.0   93    2.0   0     0     990.3    NA       0.0000   9999     6690  0     0    
2019/06/05  00:25:00  BASE  3.36336  121  3.86904  120  3.1   94    2.2   0     0     990.3    NA       0.0000   9999     4760  0     0    
2019/06/05  00:26:00  BASE  3.19872  119  3.86904  120  3.3   94    2.4   0     0     990.3    NA       0.0000   9999     0     0     0    
2019/06/05  00:27:00  BASE  3.16344  113  3.86904  120  3.4   93    2.4   0     0     990.3    NA       0.0000   9999     6990  0     0    
2019/06/05  00:28:00  BASE  3.43392  110  3.86904  120  3.5   92    2.4   0     0     990.3    NA       0.0000   9999     0     0     0    
2019/06/05  00:29:00  BASE  3.32808  117  3.86904  120  3.5   92    2.3   0     0     990.3    NA       0.0000   9999     0     0     0    
2019/06/05  00:30:00  BASE  2.74596  126  3.86904  120  3.5   91    2.2   0     0     990.3    NA       0.0000   9999     4950  0     0    
2019/06/05  00:31:00  BASE  2.26968  136  3.86904  120  3.5   90    2.0   0     0     990.3    NA       0.0000   9999     0     0     0    
2019/06/05  00:32:00  BASE  1.98156  170  3.86904  120  3.3   89    1.7   0     0     990.3    NA       0.0000   9999     0     0     0    
2019/06/05  00:33:00  BASE  2.07564  193  3.86904  120  3.0   89    1.4   0     0     990.3    NA       0.0000   9999     0     0     0    
2019/06/05  00:34:00  BASE  2.32848  184  3.81024  109  2.7   89    1.1   0     0     990.3    NA       0.0000   9999     0     0     0    
2019/06/05  00:35:00  BASE  2.32848  176  3.81024  109  2.3   90    0.8   0     0     990.3    NA       0.0000   9999     0     0     0    
2019/06/05  00:36:00  BASE  2.31084  162  3.81024  109  1.9   92    0.6   0     0     990.3    NA       0.0000   9999     0     0     0    
2019/06/05  00:37:00  BASE  2.66364  137  3.75144  117  1.6   94    0.7   0     0     990.3    NA       0.0000   9999     4990  0     0    
2019/06/05  00:38:00  BASE  2.94     119  3.53976  117  1.7   96    1.1   0     0     990.3    NA       0.0000   9999     9480  0     0    
2019/06/05  00:39:00  BASE  2.90472  111  3.29868  102  1.9   97    1.5   0     0     990.3    NA       0.0000   9999     0     0     0    
2019/06/05  00:40:00  BASE  2.87532  104  3.29868  102  2.2   98    1.9   0     0     990.3    NA       0.0000   9999     9810  0     0    
2019/06/05  00:41:00  BASE  2.793    98   3.29868  102  2.5   99    2.3   0     0     990.3    NA       0.0000   9999     10040 0     0    
2019/06/05  00:42:00  BASE  2.74008  93   3.29868  102  2.7   98    2.5   0     0     990.3    NA       0.0000   9999     0     0     0    
2019/06/05  00:43:00  BASE  3.05172  85   3.72204  81   2.8   98    2.5   0     0     990.2    NA       0.0000   9999     0     0     0    
2019/06/05  00:44:00  BASE  3.2928   79   3.72204  81   2.9   97    2.5   0     0     990.2    NA       0.0000   9999     0     0     0    
2019/06/05  00:45:00  BASE  2.94     70   3.72204  81   3.0   96    2.5   0     0     990.2    NA       0.0000   9999     0     0     0    
2019/06/05  00:46:00  BASE  1.87572  38   3.72204  81   3.0   95    2.3   0     0     990.2    NA       0.0000   9999     0     0     0    
2019/06/05  00:47:00  BASE  0.85848  16   3.72204  81   3.0   94    2.1   0     0     990.2    NA       0.0000   9999     0     0     0    
2019/06/05  00:48:00  BASE  0.75264  31   3.72204  81   2.9   94    2.0   0     0     990.2    NA       0.0000   9999     0     0     0    
2019/06/05  00:49:00  BASE  1.06428  53   3.72204  81   2.8   93    1.8   0     0     990.3    NA       0.0000   9999     0     0     0    
2019/06/05  00:50:00  BASE  1.71696  66   3.72204  81   2.7   93    1.7   0     0     990.3    NA       0.0000   9999     0     0     0    
2019/06/05  00:51:00  BASE  2.35788  64   3.72204  81   2.7   94    1.8   0     0     990.3    NA       0.0000   9999     0     0     0    
2019/06/05  00:52:00  BASE  2.56368  65   3.72204  81   2.7   94    1.9   0     0     990.3    NA       0.0000   9999     0     0     0    
2019/06/05  00:53:00  BASE  2.76948  73   3.51036  77   2.8   94    1.9   0     0     990.3    NA       0.0000   9999     0     0     0    
2019/06/05  00:54:00  BASE  2.68716  66   3.51036  77   2.9   94    2.0   0     0     990.3    NA       0.0000   9999     0     0     0    
2019/06/05  00:55:00  BASE  1.95216  44   3.26928  76   2.9   94    2.0   0     0     990.3    NA       0.0000   9999     7680  0     0    
2019/06/05  00:56:00  BASE  1.89924  34   3.26928  76   2.9   94    1.9   0     0     990.3    NA       0.0000   9999     7320  0     0    
2019/06/05  00:57:00  BASE  2.42256  37   3.26928  76   2.9   94    1.9   0     0     990.3    NA       0.0000   9999     7320  0     0    
2019/06/05  00:58:00  BASE  2.33436  39   3.26928  76   2.9   94    1.9   0     0     990.3    NA       0.0000   9999     7350  0     0    
2019/06/05  00:59:00  BASE  2.205    52   3.26928  76   2.9   94    2.0   0     0     990.2    NA       0.0000   9999     7350  0     0    
2019/06/05  01:00:00  BASE  2.5284   70   3.26928  76   3.0   94    2.0   0     0     990.2    NA       0.0000   9999     7380  0     0    
2019/06/05  01:01:00  BASE  2.63424  81   3.2046   76   3.1   94    2.2   0     0     990.2    NA       0.0000   9999     7150  0     0    
2019/06/05  01:02:00  BASE  2.39904  90   3.2046   76   3.3   93    2.3   0     0     990.1    NA       0.0000   9999     7120  0     0    
2019/06/05  01:03:00  BASE  2.33436  97   3.1458   67   3.5   92    2.4   0     0     990.1    NA       0.0000   9999     6860  0     0    
2019/06/05  01:04:00  BASE  2.48136  102  2.93412  42   3.7   91    2.3   0     0     989.9    NA       0.0000   9999     6920  0     0    
2019/06/05  01:05:00  BASE  2.61072  103  2.93412  42   3.8   89    2.2   0     0     989.9    NA       0.0000   9999     7050  0     0    
2019/06/05  01:06:00  BASE  1.7934   124  2.93412  42   3.8   88    2.0   0     0     989.8    NA       0.0000   9999     7320  0     0    
2019/06/05  01:07:00  BASE  0.92316  159  2.84592  106  3.7   87    1.7   0     0     989.8    NA       0.0000   9999     7380  0     0    
2019/06/05  01:08:00  BASE  0.74088  170  2.84592  106  3.6   87    1.6   0     0     989.8    NA       0.0000   9999     7190  0     0    
2019/06/05  01:09:00  BASE  0.9702   168  2.84592  106  3.4   87    1.4   0     0     989.8    NA       0.0000   9999     7480  0     0    
2019/06/05  01:10:00  BASE  1.51704  170  2.84592  106  3.2   88    1.4   0     0     989.8    NA       0.0000   9999     8010  0     0    
2019/06/05  01:11:00  BASE  1.79928  174  2.84592  106  3.1   89    1.4   0     0     989.8    NA       0.0000   9999     7580  0     0    
2019/06/05  01:12:00  BASE  1.7934   175  2.84592  106  3.1   89    1.5   0     0     989.7    NA       0.0000   9999     7420  0     0    
2019/06/05  01:13:00  BASE  1.8228   180  2.81064  105  2.9   90    1.4   0     0     989.7    NA       0.0000   9999     7480  0     0    
2019/06/05  01:14:00  BASE  2.15796  180  2.81064  177  2.8   90    1.2   0     0     989.7    NA       0.0000   9999     7550  0     0    
2019/06/05  01:15:00  BASE  2.92824  177  3.81024  176  2.5   90    1.1   0     0     989.7    NA       0.0000   9999     7150  0     0    
2019/06/05  01:16:00  BASE  3.73968  173  4.2336   165  2.2   91    0.9   0     0     989.6    NA       0.0000   9999     7250  0     0    
2019/06/05  01:17:00  BASE  4.06896  166  4.35708  161  1.9   92    0.7   0     0     989.6    NA       0.0000   9999     7420  0     0    
2019/06/05  01:18:00  BASE  4.36296  162  4.78044  162  1.7   93    0.7   0     0     989.5    NA       0.0000   9999     7970  0     0    
2019/06/05  01:19:00  BASE  4.68636  156  5.02152  150  1.5   95    0.7   0     0     989.5    NA       0.0000   9999     7550  0     0    
2019/06/05  01:20:00  BASE  4.5276   152  5.02152  150  1.4   96    0.8   0     0     989.5    NA       0.0000   9999     7610  0     0    
2019/06/05  01:21:00  BASE  3.75144  149  5.02152  150  1.3   98    1.0   0     0     989.6    NA       0.0000   9999     8100  0     0    
2019/06/05  01:22:00  BASE  3.03408  140  5.02152  150  1.4   99    1.2   0     0     989.6    NA       0.0000   9999     8010  0     0    
2019/06/05  01:23:00  BASE  3.03996  141  5.02152  150  1.5   99    1.4   0     0     989.6    NA       0.0000   9999     8010  0     0    
2019/06/05  01:24:00  BASE  3.62796  154  5.02152  150  1.6   100   1.5   0     0     989.6    NA       0.0000   9999     8040  0     0    
2019/06/05  01:25:00  BASE  3.7926   156  5.02152  150  1.7   100   1.7   0     0     989.7    NA       0.0000   9999     7940  0     0    
2019/06/05  01:26:00  BASE  3.31044  151  5.02152  150  1.8   100   1.8   0     0     989.7    NA       0.0000   9999     7970  0     0    
2019/06/05  01:27:00  BASE  2.65776  148  5.02152  150  1.9   100   1.9   0     0     989.7    NA       0.0000   9999     8140  0     0    
2019/06/05  01:28:00  BASE  2.07564  142  5.02152  150  1.9   100   1.9   0     0     989.7    NA       0.0000   9999     8560  0     0    
2019/06/05  01:29:00  BASE  1.71696  139  4.59816  153  2.0   100   2.0   0     0     989.7    NA       0.0000   9999     8860  0     0    
2019/06/05  01:30:00  BASE  1.54644  145  4.263    158  2.0   100   2.0   0     0     989.7    NA       0.0000   9999     9060  0     0    
2019/06/05  01:31:00  BASE  1.51704  153  4.263    158  2.1   100   2.1   0     0     989.8    NA       0.0000   9999     9060  0     0    
2019/06/05  01:32:00  BASE  1.21716  148  4.263    158  2.1   100   2.1   0     0     989.8    NA       0.0000   9999     8990  0     0    
2019/06/05  01:33:00  BASE  0.588    103  4.263    158  2.1   100   2.1   0     0     989.8    NA       0.0000   9999     8890  0     0    
2019/06/05  01:34:00  BASE  0.61152  60   3.96312  156  2.2   100   2.1   0     0     989.8    NA       0.0000   9999     8730  0     0    
2019/06/05  01:35:00  BASE  0.92904  72   3.48096  151  2.2   99    2.1   0     0     989.8    NA       0.0000   9999     8530  0     0    
2019/06/05  01:36:00  BASE  1.10544  117  2.66364  151  2.3   99    2.2   0     0     989.8    NA       0.0000   9999     8300  0     0    
2019/06/05  01:37:00  BASE  1.54056  143  2.0874   140  2.3   99    2.2   0     0     989.8    NA       0.0000   9999     8370  0     0    
2019/06/05  01:38:00  BASE  1.79928  149  2.0286   151  2.4   99    2.2   0     0     989.8    NA       0.0000   9999     8660  0     0    
2019/06/05  01:39:00  BASE  1.74048  149  2.0286   151  2.4   98    2.2   0     0     989.8    NA       0.0000   9999     8690  0     0    
2019/06/05  01:40:00  BASE  1.55232  135  2.0286   151  2.4   98    2.1   0     0     989.8    NA       0.0000   9999     8370  0     0    
2019/06/05  01:41:00  BASE  1.58172  116  2.0286   151  2.4   97    2.0   0     0     989.8    NA       0.0000   9999     8070  0     0    
2019/06/05  01:42:00  BASE  1.58172  97   2.0286   151  2.4   97    2.0   0     0     989.8    NA       0.0000   9999     7840  0     0    
2019/06/05  01:43:00  BASE  1.31712  84   2.0286   151  2.3   97    1.9   0     0     989.8    NA       0.0000   9999     7710  0     0    
2019/06/05  01:44:00  BASE  1.31124  88   2.0286   151  2.3   97    1.9   0     0     989.8    NA       0.0000   9999     7710  0     0    
2019/06/05  01:45:00  BASE  1.42884  102  2.0286   151  2.4   97    1.9   0     0     989.8    NA       0.0000   9999     7610  0     0    
2019/06/05  01:46:00  BASE  1.39356  111  2.0286   151  2.4   97    2.0   0     0     989.8    NA       0.0000   9999     7810  0     0    
2019/06/05  01:47:00  BASE  1.43472  114  2.0286   151  2.5   97    2.1   0     0     989.7    NA       0.0000   9999     8070  0     0    
2019/06/05  01:48:00  BASE  1.41708  117  1.9992   123  2.6   97    2.1   0     0     989.7    NA       0.0000   9999     7680  0     0    
2019/06/05  01:49:00  BASE  1.21128  112  1.9992   123  2.7   97    2.2   0     0     989.7    NA       0.0000   9999     8690  0     0    
2019/06/05  01:50:00  BASE  1.02312  96   1.9992   123  2.7   96    2.2   0     0     989.7    NA       0.0000   9999     8560  0     0    
2019/06/05  01:51:00  BASE  1.0584   73   1.75224  86   2.8   96    2.2   0     0     989.7    NA       0.0000   9999     8530  0     0    
2019/06/05  01:52:00  BASE  1.24656  53   1.90512  32   2.9   95    2.2   0     0     989.7    NA       0.0000   9999     8500  0     0    
2019/06/05  01:53:00  BASE  1.68756  39   2.29908  35   2.9   94    2.1   0     0     989.7    NA       0.0000   9999     8960  0     0    
2019/06/05  01:54:00  BASE  1.81692  31   2.29908  35   2.8   93    1.8   0     0     989.7    NA       0.0000   9999     8830  0     0    
2019/06/05  01:55:00  BASE  1.59348  37   2.29908  35   2.6   93    1.5   0     0     989.7    NA       0.0000   9999     8500  0     0    
2019/06/05  01:56:00  BASE  1.44648  54   2.29908  35   2.3   93    1.3   0     0     989.7    NA       0.0000   9999     8690  0     0    
2019/06/05  01:57:00  BASE  1.22892  78   2.29908  35   2.1   93    1.1   0     0     989.6    NA       0.0000   9999     8400  0     0    
2019/06/05  01:58:00  BASE  1.33476  105  2.29908  35   1.9   95    1.1   0     0     989.6    NA       0.0000   9999     8530  0     0    
2019/06/05  01:59:00  BASE  1.74636  126  2.29908  35   1.8   96    1.2   0     0     989.5    NA       0.0000   9999     8100  0     0    
2019/06/05  02:00:00  BASE  2.1462   140  2.54016  150  1.8   97    1.4   0     0     989.4    NA       0.0000   9999     8630  0     0    
2019/06/05  02:01:00  BASE  2.44608  149  3.087    157  1.9   97    1.5   0     0     989.4    NA       0.0000   9999     8330  0     0    
2019/06/05  02:02:00  BASE  2.78712  152  3.2046   149  2.0   98    1.7   0     0     989.4    NA       0.0000   9999     8560  0     0    
2019/06/05  02:03:00  BASE  3.19284  151  3.59856  148  2.0   98    1.7   0     0     989.3    NA       0.0000   9999     8010  0     0    
2019/06/05  02:04:00  BASE  3.37512  147  3.65736  144  2.0   99    1.8   0     0     989.3    NA       0.0000   9999     7710  0     0    
2019/06/05  02:05:00  BASE  3.1164   136  3.65736  144  2.1   99    1.9   0     0     989.4    NA       0.0000   9999     7840  0     0    
2019/06/05  02:06:00  BASE  2.81064  133  3.65736  144  2.0   99    1.9   0     0     989.4    NA       0.0000   9999     9120  0     0    
2019/06/05  02:07:00  BASE  2.4696   143  3.65736  144  2.0   99    1.8   0     0     989.4    NA       0.0000   9999     9090  0     0    
2019/06/05  02:08:00  BASE  1.764    150  3.65736  144  2.0   99    1.9   0     0     989.5    NA       0.0000   9999     8010  0     0    
2019/06/05  02:09:00  BASE  0.71736  176  3.65736  144  2.0   99    1.8   0     0     989.5    NA       0.0000   9999     7810  0     0    
2019/06/05  02:10:00  BASE  0.44688  272  3.65736  144  1.9   99    1.7   0     0     989.6    NA       0.0000   9999     7710  0     0    
2019/06/05  02:11:00  BASE  1.5288   311  3.65736  144  1.8   99    1.7   0     0     989.7    NA       0.0000   9999     8330  0     0    
2019/06/05  02:12:00  BASE  2.90472  319  4.47468  329  1.8   99    1.7   0     0     989.7    NA       0.0000   9999     7640  0     0    
2019/06/05  02:13:00  BASE  4.11012  327  5.02152  333  1.7   100   1.6   0     0     989.8    NA       0.0000   9999     5510  0     0    
2019/06/05  02:14:00  BASE  4.25124  334  5.02152  333  1.6   100   1.6   0     0     989.9    NA       0.0000   9999     7680  0     0    
2019/06/05  02:15:00  BASE  3.74556  339  5.02152  333  1.6   100   1.6   0     0     989.8    NA       0.0000   9999     7020  0     0    
2019/06/05  02:16:00  BASE  3.56328  344  5.02152  333  1.6   100   1.6   0     0     989.8    NA       0.0000   9999     6200  0     0    
2019/06/05  02:17:00  BASE  3.03996  344  5.02152  333  1.5   100   1.5   0     0     989.8    NA       0.0000   9999     6530  0     0    
2019/06/05  02:18:00  BASE  2.11092  332  5.02152  333  1.5   100   1.5   0     0     989.8    NA       0.0000   9999     6270  0     0    
2019/06/05  02:19:00  BASE  1.45824  304  5.02152  333  1.5   100   1.5   0     0     989.8    NA       0.0000   9999     5640  0     0    
2019/06/05  02:20:00  BASE  1.41708  281  5.02152  333  1.5   100   1.5   0     0     989.8    NA       0.0000   9999     6040  0     0    
2019/06/05  02:21:00  BASE  1.55232  285  5.02152  333  1.5   100   1.5   0     0     989.8    NA       0.0000   9999     4400  0     0    
2019/06/05  02:22:00  BASE  1.617    308  5.02152  333  1.6   100   1.6   0     0     989.8    NA       0.0000   9999     5120  0     0    
2019/06/05  02:23:00  BASE  2.058    328  4.2042   336  1.6   100   1.6   0     0     989.8    NA       0.0000   9999     4300  0     0    
2019/06/05  02:24:00  BASE  2.31084  330  4.08072  349  1.6   100   1.6   0     0     989.8    NA       0.0000   9999     4790  0     0    
2019/06/05  02:25:00  BASE  2.0874   329  4.08072  349  1.7   100   1.7   0     0     989.8    NA       0.0000   9999     5680  0     0    
2019/06/05  02:26:00  BASE  1.84044  328  3.234    343  1.8   100   1.8   0     0     989.8    NA       0.0000   9999     3250  0     0    
2019/06/05  02:27:00  BASE  1.8816   322  2.72244  334  1.8   100   1.8   0     0     989.8    NA       0.0000   9999     5480  0     0    
2019/06/05  02:28:00  BASE  2.01684  306  2.72244  334  1.8   100   1.8   0     0     989.8    NA       0.0000   9999     5280  0     0    
2019/06/05  02:29:00  BASE  2.13444  285  2.72244  334  1.8   100   1.8   0     0     989.8    NA       0.0000   9999     5050  0     0    
2019/06/05  02:30:00  BASE  2.12856  282  2.72244  334  1.7   100   1.7   0     0     989.8    NA       0.0000   9999     5480  0     0    
2019/06/05  02:31:00  BASE  1.77576  283  2.72244  334  1.6   100   1.6   0     0     989.7    NA       0.0000   9999     6100  0     0    
2019/06/05  02:32:00  BASE  1.45824  274  2.72244  334  1.5   100   1.5   0     0     989.7    NA       0.0000   9999     5940  0     0    
2019/06/05  02:33:00  BASE  1.53468  265  2.59896  321  1.5   100   1.5   0     0     989.7    NA       0.0000   9999     6100  0     0    
2019/06/05  02:34:00  BASE  2.205    269  2.99292  280  1.4   100   1.4   0     0     989.7    NA       0.0000   9999     6370  0     0    
2019/06/05  02:35:00  BASE  2.65776  281  2.99292  280  1.4   100   1.4   0     0     989.7    NA       0.0000   9999     6330  0     0    
2019/06/05  02:36:00  BASE  2.51664  286  2.99292  280  1.4   100   1.4   0     0     989.7    NA       0.0000   9999     6040  0     0    
2019/06/05  02:37:00  BASE  2.3814   280  2.99292  280  1.4   100   1.4   0     0     989.7    NA       0.0000   9999     5810  0     0    
2019/06/05  02:38:00  BASE  2.41668  275  2.99292  280  1.4   100   1.4   0     0     989.7    NA       0.0000   9999     5710  0     0    
2019/06/05  02:39:00  BASE  2.2638   278  2.99292  280  1.4   100   1.4   0     0     989.7    NA       0.0000   9999     4530  0     0    
2019/06/05  02:40:00  BASE  1.86984  284  2.99292  280  1.5   100   1.5   0     0     989.7    NA       0.0000   9999     4760  0     0    
2019/06/05  02:41:00  BASE  1.47588  286  2.99292  280  1.5   100   1.5   0     0     989.7    NA       0.0000   9999     5220  0     0    
2019/06/05  02:42:00  BASE  1.13484  284  2.99292  280  1.5   100   1.5   0     0     989.7    NA       0.0000   9999     5120  0     0    
2019/06/05  02:43:00  BASE  0.50568  306  2.99292  280  1.6   100   1.6   0     0     989.7    NA       0.0000   9999     5090  0     0    
2019/06/05  02:44:00  BASE  0.02352  347  2.93412  285  1.6   100   1.6   0     0     989.7    NA       0.0000   9999     5350  0     0    
2019/06/05  02:45:00  BASE  0        316  2.69304  274  1.5   100   1.5   0     0     989.7    NA       0.0000   9999     5350  0     0    
2019/06/05  02:46:00  BASE  0        259  2.69304  274  1.5   100   1.5   0     0     989.7    NA       0.0000   9999     4630  0     0    
2019/06/05  02:47:00  BASE  0        240  2.63424  270  1.5   100   1.5   0     0     989.7    NA       0.0000   9999     4330  0     0    
2019/06/05  02:48:00  BASE  0.24696  258  2.26968  279  1.4   100   1.4   0     0     989.7    NA       0.0000   9999     4070  0     0    
2019/06/05  02:49:00  BASE  0.77616  275  2.0286   285  1.4   100   1.4   0     0     989.7    NA       0.0000   9999     3840  0     0    
2019/06/05  02:50:00  BASE  1.0878   280  1.57584  287  1.4   100   1.4   0     0     989.7    NA       0.0000   9999     3410  0     0    
2019/06/05  02:51:00  BASE  1.08192  296  1.18188  280  1.4   100   1.4   0     0     989.7    NA       0.0000   9999     7020  0     0    
2019/06/05  02:52:00  BASE  1.21128  321  1.63464  321  1.3   100   1.3   0     0     989.7    NA       0.0000   9999     0     0     0    
2019/06/05  02:53:00  BASE  1.54644  327  1.87572  326  1.2   100   1.2   0     0     989.7    NA       0.0000   9000     7940  0     0    
2019/06/05  02:54:00  BASE  1.83456  331  2.058    336  1.1   100   1.1   0     0     989.7    NA       0.0000   9000     8660  0     0    
2019/06/05  02:55:00  BASE  1.78752  335  2.058    336  1.0   100   1.0   0     0     989.7    NA       0.0000   9000     8600  0     0    
2019/06/05  02:56:00  BASE  1.48764  330  2.058    336  1.0   100   1.0   0     0     989.7    NA       0.0000   9000     8960  0     0    
2019/06/05  02:57:00  BASE  1.25244  330  2.058    336  0.9   100   0.9   0     0     989.7    NA       0.0000   BR       9000  9650  0    
2019/06/05  02:58:00  BASE  1.10544  340  2.058    336  0.9   100   0.9   0     0     989.7    NA       0.0000   BR       9000  9780  0    
2019/06/05  02:59:00  BASE  1.12308  356  2.058    336  0.9   100   0.9   0     0     989.7    NA       0.0000   BR       9000  9880  0    
2019/06/05  03:00:00  BASE  1.08192  7    2.058    336  0.9   100   0.9   0     0     989.7    NA       0.0000   BR       9999  7150  0    
2019/06/05  03:01:00  BASE  1.01136  6    2.058    336  0.9   100   0.9   0     0     989.7    NA       0.0000   BR       9999  7050  0    
2019/06/05  03:02:00  BASE  1.2348   0    2.058    336  0.9   100   0.9   0     0     989.7    NA       0.0000   BR       9999  9970  0    
2019/06/05  03:03:00  BASE  1.5582   357  2.058    336  1.0   100   1.0   0     0     989.7    NA       0.0000   BR       9999  8860  0    
2019/06/05  03:04:00  BASE  1.78752  347  2.24028  333  1.0   100   1.0   0     0     989.7    NA       0.0000   BR       9999  3610  8890 
2019/06/05  03:05:00  BASE  2.01684  337  2.42256  335  1.1   100   1.1   0     0     989.7    NA       0.0000   BR       9999  7840  0    
2019/06/05  03:06:00  BASE  2.13444  338  2.42256  335  1.1   100   1.1   0     0     989.7    NA       0.0000   9999     7940  0     0    
2019/06/05  03:07:00  BASE  2.16384  343  2.48136  348  1.2   100   1.2   0     0     989.7    NA       0.0000   9999     8010  0     0    
2019/06/05  03:08:00  BASE  2.1756   353  2.48136  348  1.2   100   1.2   0     0     989.7    NA       0.0000   9999     7970  8890  0    
2019/06/05  03:09:00  BASE  1.911    359  2.48136  348  1.1   100   1.1   0     0     989.7    NA       0.0000   9999     3510  7840  0    
2019/06/05  03:10:00  BASE  1.65228  356  2.48136  348  1.1   100   1.1   0     0     989.7    NA       0.0000   9999     7640  8630  0    
2019/06/05  03:11:00  BASE  1.75812  2    2.48136  348  1.1   100   1.1   0     0     989.7    NA       0.0000   9999     7740  0     0    
2019/06/05  03:12:00  BASE  1.97568  12   2.48136  348  1.0   100   1.0   0     0     989.7    NA       0.0000   9999     7640  0     0    
2019/06/05  03:13:00  BASE  2.0874   13   2.48136  348  1.0   100   1.0   0     0     989.7    NA       0.0000   9999     3670  0     0    
2019/06/05  03:14:00  BASE  1.87572  17   2.48136  348  1.0   100   1.0   0     0     989.7    NA       0.0000   9999     3710  0     0    
2019/06/05  03:15:00  BASE  1.59936  27   2.48136  348  0.9   100   0.9   0     0     989.7    NA       0.0000   9999     3740  7710  0    
2019/06/05  03:16:00  BASE  1.42884  28   2.48136  348  0.9   100   0.9   0     0     989.7    NA       0.0000   9999     7550  0     0    
2019/06/05  03:17:00  BASE  1.2642   21   2.35788  9    1.0   100   1.0   0     0     989.7    NA       0.0000   9999     7480  0     0    
2019/06/05  03:18:00  BASE  1.16424  15   2.35788  9    0.9   100   0.9   0     0     989.7    NA       0.0000   9999     3670  7680  0    
2019/06/05  03:19:00  BASE  1.09956  3    2.35788  9    1.0   100   1.0   0     0     989.7    NA       0.0000   9999     7680  0     0    
2019/06/05  03:20:00  BASE  1.2054   355  2.35788  9    1.0   100   1.0   0     0     989.7    NA       0.0000   9999     7680  8730  0    
2019/06/05  03:21:00  BASE  1.25244  353  2.35788  9    1.1   100   1.1   0     0     989.7    NA       0.0000   9999     4330  7870  8730 
2019/06/05  03:22:00  BASE  1.04076  358  2.35788  9    1.1   100   1.1   0     0     989.7    NA       0.0000   9999     7870  8790  0    
2019/06/05  03:23:00  BASE  0.87612  13   1.78752  23   1.2   100   1.2   0     0     989.7    NA       0.0000   9999     7810  8760  0    
2019/06/05  03:24:00  BASE  0.9114   20   1.63464  32   1.3   100   1.3   0     0     989.7    NA       0.0000   9999     7780  8690  0    
2019/06/05  03:25:00  BASE  0.87612  21   1.48176  28   1.3   100   1.3   0     0     989.7    NA       0.0000   9999     7740  8630  0    
2019/06/05  03:26:00  BASE  0.39396  13   1.45236  348  1.5   100   1.5   0     0     989.6    NA       0.0000   9999     7740  8860  0    
2019/06/05  03:27:00  BASE  0.08232  34   1.45236  348  1.7   100   1.7   0     0     989.6    NA       0.0000   9999     7610  9020  0    
2019/06/05  03:28:00  BASE  0.57624  141  1.45236  348  1.8   100   1.8   0     0     989.6    NA       0.0000   9999     4000  0     0    
2019/06/05  03:29:00  BASE  1.15836  135  1.54056  126  1.9   100   1.9   0     0     989.6    NA       0.0000   9999     3870  0     0    
2019/06/05  03:30:00  BASE  1.44648  130  1.69344  140  2.0   100   2.0   0     0     989.6    NA       0.0000   9999     3940  0     0    
2019/06/05  03:31:00  BASE  1.53468  148  1.69344  140  1.9   100   1.9   0     0     989.5    NA       0.0000   9999     3810  0     0    
2019/06/05  03:32:00  BASE  1.4994   167  1.69344  140  1.9   100   1.9   0     0     989.5    NA       0.0000   9999     3840  0     0    
2019/06/05  03:33:00  BASE  1.47588  173  1.69344  140  1.8   100   1.8   0     0     989.5    NA       0.0000   9999     3900  0     0    
2019/06/05  03:34:00  BASE  1.39356  180  1.69344  140  1.8   100   1.8   0     0     989.5    NA       0.0000   9999     3900  0     0    
2019/06/05  03:35:00  BASE  1.1466   185  1.69344  140  1.8   100   1.8   0     0     989.5    NA       0.0000   9999     3900  0     0    
2019/06/05  03:36:00  BASE  0.81144  184  1.69344  140  1.8   100   1.8   0     0     989.4    NA       0.0000   9999     4100  0     0    
2019/06/05  03:37:00  BASE  0.34692  174  1.69344  140  1.8   100   1.8   0     0     989.4    NA       0.0000   9999     4230  0     0    
2019/06/05  03:38:00  BASE  0.02352  137  1.69344  140  1.9   100   1.9   0     0     989.5    NA       0.0000   9999     4200  0     0    
2019/06/05  03:39:00  BASE  0.59976  55   1.93452  37   2.0   100   2.0   0     0     989.5    NA       0.0000   9999     4270  0     0    
2019/06/05  03:40:00  BASE  1.10544  26   1.93452  37   2.0   100   2.0   0     0     989.5    NA       0.0000   9999     4330  0     0    
2019/06/05  03:41:00  BASE  0.98784  7    1.93452  37   2.0   100   2.0   0     0     989.5    NA       0.0000   9999     4490  0     0    
2019/06/05  03:42:00  BASE  1.19364  359  1.93452  37   1.9   100   1.9   0     0     989.6    NA       0.0000   9999     4460  0     0    
2019/06/05  03:43:00  BASE  1.34652  11   1.93452  37   1.9   100   1.9   0     0     989.5    NA       0.0000   9999     4660  0     0    
2019/06/05  03:44:00  BASE  1.11132  14   1.93452  37   1.9   100   1.9   0     0     989.5    NA       0.0000   9999     4660  0     0    
2019/06/05  03:45:00  BASE  0.882    9    1.93452  37   1.9   100   1.9   0     0     989.5    NA       0.0000   9999     4760  0     0    
2019/06/05  03:46:00  BASE  0.8526   17   1.93452  37   2.0   100   2.0   0     0     989.5    NA       0.0000   9999     4760  0     0    
2019/06/05  03:47:00  BASE  0.88788  31   1.93452  37   2.1   100   2.1   0     0     989.4    NA       0.0000   9999     5020  0     0    
2019/06/05  03:48:00  BASE  0.88788  41   1.93452  37   2.2   100   2.2   0     0     989.4    NA       0.0000   9999     4760  0     0    
2019/06/05  03:49:00  BASE  0.94668  51   1.54056  1    2.4   100   2.4   0     0     989.4    NA       0.0000   9999     4990  0     0    
2019/06/05  03:50:00  BASE  0.98784  60   1.54056  1    2.6   100   2.6   0     0     989.4    NA       0.0000   9999     4890  0     0    
2019/06/05  03:51:00  BASE  0.95844  55   1.54056  1    2.7   100   2.7   0     0     989.5    NA       0.0000   9999     4920  0     0    
2019/06/05  03:52:00  BASE  0.95256  31   1.42296  23   2.9   100   2.9   0     0     989.5    NA       0.0000   9999     5020  0     0    
2019/06/05  03:53:00  BASE  1.09368  3    1.66404  333  3.1   100   3.1   0     0     989.5    NA       0.0000   9999     5580  0     0    
2019/06/05  03:54:00  BASE  1.66992  338  2.63424  321  3.1   99    3.0   0     0     989.6    NA       0.0000   9999     5050  0     0    
2019/06/05  03:55:00  BASE  2.2638   318  2.66364  309  2.9   98    2.7   0     0     989.6    NA       0.0000   9999     4630  0     0    
2019/06/05  03:56:00  BASE  2.5872   311  3.1752   310  2.5   98    2.2   0     0     989.7    NA       0.0000   9999     4760  0     0    
2019/06/05  03:57:00  BASE  2.91648  313  3.38688  313  2.1   98    1.8   0     0     989.7    NA       0.0000   9999     4950  0     0    
2019/06/05  03:58:00  BASE  2.66952  318  3.38688  313  1.7   98    1.4   0     0     989.7    NA       0.0000   9999     5250  0     0    
2019/06/05  03:59:00  BASE  2.32848  323  3.38688  313  1.4   99    1.2   0     0     989.7    NA       0.0000   9999     4590  0     0    
2019/06/05  04:00:00  BASE  2.13444  325  3.38688  313  1.3   99    1.2   0     0     989.7    NA       0.0000   9999     4360  0     0    
2019/06/05  04:01:00  BASE  2.1756   316  3.53976  312  1.2   100   1.2   0     0     989.8    NA       0.0000   9999     4360  0     0    
2019/06/05  04:02:00  BASE  3.46332  307  5.292    302  1.1   100   1.1   0     0     989.8    NA       0.0000   8000     4490  0     0    
2019/06/05  04:03:00  BASE  4.06308  300  5.292    302  1.0   100   1.0   0     0     989.8    NA       0.0000   8000     4720  0     0    
2019/06/05  04:04:00  BASE  3.65736  291  5.292    302  0.9   100   0.9   0     0     989.8    NA       0.0000   9000     4330  0     0    
2019/06/05  04:05:02  BASE  3.60444  289  5.292    302  0.9   100   0.9   0     0     989.9    NA       0.0000   9999     4270  0     0    
2019/06/05  04:06:00  BASE  3.48684  292  5.292    302  0.9   100   0.9   0     0     989.9    NA       0.0000   9999     4860  0     0    
2019/06/05  04:07:00  BASE  3.48684  290  5.292    302  1.0   100   1.0   0     0     989.9    NA       0.0000   9999     4300  0     0    
2019/06/05  04:08:00  BASE  3.50448  289  5.292    302  1.1   100   1.1   0     0     989.9    NA       0.0000   BR       9999  2760  0    
2019/06/05  04:09:00  BASE  3.32808  293  5.292    302  1.2   100   1.2   0     0     989.9    NA       0.0000   BR       9000  4760  0    
2019/06/05  04:10:00  BASE  3.1458   299  5.292    302  1.3   100   1.3   0     0     989.9    NA       0.0000   BR       8000  4660  0    
2019/06/05  04:11:00  BASE  2.94588  306  5.292    302  1.3   100   1.3   0     0     989.9    NA       0.0000   BR       8000  4460  0    
2019/06/05  04:12:00  BASE  2.65188  305  4.1748   290  1.3   100   1.3   0     0     989.9    NA       0.0000   BR       7000  4460  0    
2019/06/05  04:13:00  BASE  2.36964  298  4.1748   290  1.2   100   1.2   0     0     989.9    NA       0.0000   BR       7000  4530  0    
2019/06/05  04:14:00  BASE  2.36376  295  4.1748   290  1.2   100   1.2   0     0     989.9    NA       0.0000   BR       7000  4490  0    
2019/06/05  04:15:00  BASE  2.352    297  4.1748   290  1.2   100   1.2   0     0     989.9    NA       0.0000   BR       7000  4530  0    
2019/06/05  04:16:00  BASE  2.06976  302  4.1748   290  1.1   100   1.1   0     0     989.9    NA       0.0000   BR       7000  0     0    
2019/06/05  04:17:00  BASE  1.84632  305  3.93372  289  1.0   100   1.0   0     0     989.9    NA       0.0000   BR       7000  0     0    
2019/06/05  04:18:00  BASE  1.31124  305  3.51036  298  1.0   100   1.0   0     0     989.9    NA       0.0000   BR       7000  0     0    
2019/06/05  04:19:00  BASE  0.42924  300  3.51036  298  1.0   100   1.0   0     0     989.9    NA       0.0000   BR       7000  0     0    
2019/06/05  04:20:00  BASE  0.59976  217  3.41628  306  0.9   100   0.9   0     0     990.0    NA       0.0000   BR       6000  0     0    
2019/06/05  04:21:00  BASE  1.62876  165  2.81064  290  0.9   100   0.9   0     0     990.1    NA       0.0000   BR       6000  0     0    
2019/06/05  04:22:00  BASE  1.94628  163  2.81064  290  0.8   100   0.8   0     0     990.1    NA       0.0000   BR       6000  4070  0    
2019/06/05  04:23:00  BASE  1.81104  148  2.81064  290  0.8   100   0.8   0     0     990.1    NA       0.0000   BR       6000  4000  0    
2019/06/05  04:24:00  BASE  1.91688  150  2.35788  301  0.8   100   0.8   0     0     990.1    NA       0.0000   BR       6000  6530  0    
2019/06/05  04:25:00  BASE  1.98156  169  2.24028  149  0.9   100   0.9   0     0     990.0    NA       0.0000   BR       6000  6430  0    
2019/06/05  04:26:00  BASE  1.98744  180  2.35788  181  0.9   100   0.9   0     0     990.0    NA       0.0000   BR       6000  0     0    
2019/06/05  04:27:00  BASE  2.12268  186  2.35788  181  0.9   100   0.9   0     0     989.9    NA       0.0000   BR       6000  0     0    
2019/06/05  04:28:00  BASE  2.21088  199  2.35788  181  0.9   100   0.9   0     0     989.9    NA       0.0000   UP       BR    5000  0    
2019/06/05  04:29:00  BASE  2.24616  209  2.35788  212  0.8   100   0.8   0     0     989.9    NA       0.0000   UP       BR    5000  0    
2019/06/05  04:30:00  BASE  2.31672  213  2.54016  218  0.7   100   0.7   0     0     989.9    NA       0.0000   UP       BR    5000  8010 
2019/06/05  04:31:01  BASE  2.51076  217  3.2046   224  0.7   100   0.7   0     0     990.0    NA       0.0000   UP       BR    5000  4430 
2019/06/05  04:32:00  BASE  2.15796  216  3.2046   224  0.6   100   0.6   0     0     990.0    NA       0.0000   UP       BR    5000  4330 
2019/06/05  04:33:00  BASE  1.53468  202  3.2046   224  0.5   100   0.5   0     0     990.1    NA       0.0000   UP       BR    5000  4660 
2019/06/05  04:34:00  BASE  1.25244  189  3.2046   224  0.5   100   0.5   0     0     990.1    NA       0.0000   UP       BR    5000  4400 
2019/06/05  04:35:01  BASE  1.13484  183  3.2046   224  0.5   100   0.5   0     0     990.1    NA       0.0000   UP       BR    5000  4230 
2019/06/05  04:36:01  BASE  1.17012  177  3.2046   224  0.5   100   0.5   0     0     990.1    NA       0.0000   UP       BR    5000  4170 
2019/06/05  04:37:01  BASE  1.03488  190  3.2046   224  0.5   100   0.5   0     0     990.1    NA       0.0000   UP       BR    5000  4130 
2019/06/05  04:38:01  BASE  0.67032  212  3.2046   224  0.5   100   0.5   0     0     990.1    NA       0.0000   UP       BR    5000  4230 
2019/06/05  04:39:01  BASE  0.6174   212  3.2046   224  0.5   100   0.5   0     0     990.1    NA       0.0000   UP       BR    5000  4270 
2019/06/05  04:40:01  BASE  0.78204  192  3.2046   224  0.5   100   0.5   0     0     990.1    NA       0.0000   BR       5000  4200  0    
2019/06/05  04:41:01  BASE  0.40572  157  2.1756   238  0.5   100   0.5   0     0     990.1    NA       0.0000   BR       5000  4170  0    
2019/06/05  04:42:01  BASE  0.36456  154  1.75224  186  0.5   100   0.5   0     0     990.1    NA       0.0000   BR       6000  4130  0    
2019/06/05  04:43:01  BASE  0.77028  185  1.60524  193  0.5   100   0.5   0     0     990.2    NA       0.0000   BR       6000  4070  0    
2019/06/05  04:44:01  BASE  0.60564  204  1.60524  193  0.5   100   0.5   0     0     990.2    NA       0.0000   BR       6000  4040  0    
2019/06/05  04:45:01  BASE  0.69972  212  1.48176  189  0.5   100   0.5   0     0     990.2    NA       0.0000   BR       6000  3940  0    
2019/06/05  04:46:01  BASE  1.2642   216  1.69344  213  0.5   100   0.5   0     0     990.2    NA       0.0000   BR       6000  3870  0    
2019/06/05  04:47:01  BASE  1.47     208  1.81692  203  0.4   100   0.4   0     0     990.2    NA       0.0000   BR       6000  3710  0    
2019/06/05  04:48:01  BASE  1.27008  201  1.81692  203  0.5   100   0.5   0     0     990.2    NA       0.0000   BR       6000  3870  0    
2019/06/05  04:49:01  BASE  0.93492  179  1.81692  203  0.5   100   0.5   0     0     990.2    NA       0.0000   BR       6000  3540  0    
2019/06/05  04:50:01  BASE  0.93492  150  1.81692  203  0.5   100   0.5   0     0     990.2    NA       0.0000   BR       6000  3510  0    
2019/06/05  04:51:01  BASE  1.18776  133  1.81692  203  0.5   100   0.5   0     0     990.2    NA       0.0000   BR       6000  3480  4170 
2019/06/05  04:52:01  BASE  1.4406   125  1.84632  120  0.5   100   0.5   0     0     990.2    NA       0.0000   BR       6000  4100  0    
2019/06/05  04:53:01  BASE  1.41708  129  1.84632  120  0.4   100   0.4   0     0     990.2    NA       0.0000   BR       5000  4200  0    
2019/06/05  04:54:01  BASE  1.03488  137  1.84632  120  0.4   100   0.4   0     0     990.3    NA       0.0000   BR       5000  3740  4300 
2019/06/05  04:55:01  BASE  0.49392  149  1.84632  120  0.4   100   0.4   0     0     990.3    NA       0.0000   BR       6000  3580  4430 
2019/06/05  04:56:01  BASE  0.09408  176  1.84632  120  0.4   100   0.4   0     0     990.3    NA       0.0000   BR       6000  3610  0    
2019/06/05  04:57:01  BASE  0        186  1.84632  120  0.4   100   0.4   0     0     990.3    NA       0.0000   BR       6000  3540  0    
2019/06/05  04:58:01  BASE  0        190  1.84632  120  0.5   100   0.5   0     0     990.3    NA       0.0000   BR       6000  3540  0    
2019/06/05  04:59:01  BASE  0        169  1.84632  120  0.5   100   0.5   0     0     990.3    NA       0.0000   BR       7000  3410  0    
2019/06/05  05:00:01  BASE  0.34692  142  1.84632  120  0.5   100   0.5   0     0     990.3    NA       0.0000   BR       7000  3450  0    
2019/06/05  05:01:01  BASE  0.71736  158  1.84632  120  0.6   100   0.6   0     0     990.2    NA       0.0000   BR       7000  3410  0    
2019/06/05  05:02:01  BASE  0.68796  150  1.48176  134  0.7   100   0.7   0     0     990.2    NA       0.0000   BR       7000  3350  0    
2019/06/05  05:03:01  BASE  0.57036  119  1.1466   146  0.7   100   0.7   0     0     990.2    NA       0.0000   BR       7000  3280  0    
2019/06/05  05:04:01  BASE  0.25872  92   1.1466   146  0.7   100   0.7   0     0     990.2    NA       0.0000   BR       7000  3280  0    
2019/06/05  05:05:01  BASE  0.08232  64   1.1466   146  0.7   100   0.7   0     0     990.3    NA       0.0000   BR       7000  3220  0    
2019/06/05  05:06:01  BASE  0.24696  51   1.1466   146  0.7   100   0.7   0     0     990.3    NA       0.0000   BR       7000  3180  0    
2019/06/05  05:07:01  BASE  0.16464  54   1.1466   146  0.7   100   0.7   0     0     990.3    NA       0.0000   BR       7000  3180  0    
2019/06/05  05:08:01  BASE  0        46   1.1466   146  0.8   100   0.8   0     0     990.3    NA       0.0000   BR       7000  3180  0    
2019/06/05  05:09:01  BASE  0        38   1.1466   146  0.8   100   0.8   0     0     990.3    NA       0.0000   BR       7000  3150  0    
2019/06/05  05:10:01  BASE  0.0294   85   1.0584   203  0.8   100   0.8   0     0     990.3    NA       0.0000   BR       7000  3150  0    
2019/06/05  05:11:01  BASE  0.05292  115  0.90552  130  0.8   100   0.8   0     0     990.2    NA       0.0000   BR       7000  3150  0    
2019/06/05  05:12:01  BASE  0.0294   130  0.75852  31   0.9   100   0.9   0     0     990.3    NA       0.0000   BR       7000  3120  0    
2019/06/05  05:13:01  BASE  0.45276  152  1.029    152  0.9   100   0.9   0     0     990.3    NA       0.0000   BR       7000  3150  0    
2019/06/05  05:14:01  BASE  0.89376  158  1.1466   161  0.8   100   0.8   0     0     990.2    NA       0.0000   BR       7000  3080  0    
2019/06/05  05:15:01  BASE  1.37592  176  2.24028  188  0.8   100   0.8   0     0     990.2    NA       0.0000   BR       7000  3120  0    
2019/06/05  05:16:01  BASE  1.83456  199  2.24028  188  0.7   100   0.7   0     0     990.2    NA       0.0000   BR       7000  3250  0    
2019/06/05  05:17:01  BASE  1.68168  217  2.24028  188  0.7   100   0.7   0     0     990.2    NA       0.0000   BR       7000  2920  3480 
2019/06/05  05:18:01  BASE  1.33476  229  2.24028  188  0.6   100   0.6   0     0     990.2    NA       0.0000   BR       7000  2920  3710 
2019/06/05  05:19:01  BASE  1.05252  233  2.24028  188  0.5   100   0.5   0     0     990.2    NA       0.0000   BR       6000  3020  0    
2019/06/05  05:20:01  BASE  0.98196  237  2.24028  188  0.5   100   0.5   0     0     990.2    NA       0.0000   BR       6000  3080  0    
2019/06/05  05:21:01  BASE  0.95256  241  2.24028  188  0.4   100   0.4   0     0     990.2    NA       0.0000   BR       6000  3120  0    
2019/06/05  05:22:01  BASE  0.86436  250  2.24028  188  0.4   100   0.4   0     0     990.2    NA       0.0000   BR       7000  3020  0    
2019/06/05  05:23:01  BASE  0.60564  264  2.24028  188  0.3   100   0.3   0     0     990.2    NA       0.0000   UP       BR    8000  3050 
2019/06/05  05:24:01  BASE  0.24108  263  2.24028  188  0.3   100   0.3   0     0     990.2    NA       0.0000   UP       BR    9000  3220 
2019/06/05  05:25:01  BASE  0.02352  264  1.93452  206  0.3   100   0.3   0     0     990.2    NA       0.0000   UP       BR    9999  3120 
2019/06/05  05:26:01  BASE  0        260  1.81692  223  0.3   100   0.3   0     0     990.2    NA       0.0000   UP       BR    9999  3310 
2019/06/05  05:27:01  BASE  0.05292  241  1.24068  234  0.3   100   0.3   0     0     990.2    NA       0.0000   UP       BR    9999  2990 
2019/06/05  05:28:01  BASE  0.24108  222  1.21128  236  0.3   100   0.3   0     0     990.2    NA       0.0000   BR       9999  3020  0    
2019/06/05  05:29:01  BASE  0.39984  195  1.0878   237  0.2   100   0.2   0     0     990.2    NA       0.0000   BR       9999  2890  0    
2019/06/05  05:30:00  BASE  0.3528   179  1.029    247  0.2   100   0.2   0     0     990.1    NA       0.0000   BR       9999  2890  0    
2019/06/05  05:31:01  BASE  0.52332  172  0.93492  251  0.2   100   0.2   0     0     990.1    NA       0.0000   BR       9999  2890  0    
2019/06/05  05:32:01  BASE  0.84672  159  1.1172   159  0.2   100   0.2   0     0     990.1    NA       0.0000   9999     2990  0     0    
2019/06/05  05:33:01  BASE  1.01136  150  1.32888  145  0.2   100   0.2   0     0     990.1    NA       0.0000   9999     3220  0     0    
2019/06/05  05:34:00  BASE  1.16424  146  1.32888  145  0.2   100   0.2   0     0     990.1    NA       0.0000   9999     3310  0     0    
2019/06/05  05:35:00  BASE  1.16424  143  1.32888  145  0.2   100   0.2   0     0     990.1    NA       0.0000   9999     3280  0     0    
2019/06/05  05:36:00  BASE  0.9702   134  1.32888  145  0.2   100   0.2   0     0     990.1    NA       0.0000   9999     3150  0     0    
2019/06/05  05:37:01  BASE  0.85848  120  1.32888  145  0.2   100   0.2   0     0     990.1    NA       0.0000   9999     3250  0     0    
2019/06/05  05:38:01  BASE  0.6468   108  1.32888  145  0.2   100   0.2   0     0     990.1    NA       0.0000   9999     3350  0     0    
2019/06/05  05:39:00  BASE  0.57624  101  1.32888  145  0.2   100   0.2   0     0     990.1    NA       0.0000   9000     3410  0     0    
2019/06/05  05:40:00  BASE  0.735    100  1.32888  145  0.2   100   0.2   0     0     990.1    NA       0.0000   UP       9000  3450  0    
2019/06/05  05:41:00  BASE  0.86436  100  1.32888  145  0.3   100   0.3   0     0     990.1    NA       0.0000   UP       9999  2790  0    
2019/06/05  05:42:00  BASE  1.04664  97   1.32888  145  0.3   100   0.3   0     0     990.1    NA       0.0000   UP       9999  2820  0    
2019/06/05  05:43:00  BASE  1.18188  87   1.42296  79   0.3   100   0.3   0     0     990.1    NA       0.0000   UP       9999  4130  0    
2019/06/05  05:44:01  BASE  1.3524   76   1.57584  67   0.4   100   0.4   0     0     990.1    NA       0.0000   UP       9999  2620  0    
2019/06/05  05:45:01  BASE  1.52292  70   1.75224  70   0.5   100   0.5   0     0     990.1    NA       0.0000   UP       9999  2790  0    
2019/06/05  05:46:00  BASE  1.51116  65   1.75224  70   0.6   100   0.6   0     0     990.1    NA       0.0000   UP       9999  2890  0    
2019/06/05  05:47:01  BASE  1.52292  60   1.75224  70   0.7   100   0.7   0     0     990.1    NA       0.0000   UP       9999  2920  0    
2019/06/05  05:48:00  BASE  1.38768  57   1.75224  70   0.7   100   0.7   0     0     990.2    NA       0.0000   UP       9999  2990  0    
2019/06/05  05:49:00  BASE  0.9996   51   1.75224  70   0.7   100   0.7   0     0     990.2    NA       0.0000   UP       9000  3050  0    
2019/06/05  05:50:00  BASE  0.87024  37   1.75224  70   0.6   100   0.6   0     0     990.2    NA       0.0000   UP       9000  2690  0    
2019/06/05  05:51:00  BASE  1.16424  21   1.75224  70   0.6   100   0.6   0     0     990.2    NA       0.0000   8000     2490  0     0    
2019/06/05  05:52:00  BASE  1.65228  12   1.9992   6    0.5   100   0.5   0     0     990.2    NA       0.0000   8000     2950  0     0    
2019/06/05  05:53:00  BASE  1.99332  6    2.1756   360  0.5   100   0.5   0     0     990.2    NA       0.0000   BR       9000  2460  0    
2019/06/05  05:54:00  BASE  2.06388  359  2.1756   360  0.5   100   0.5   0     0     990.2    NA       0.0000   BR       9000  3150  0    
2019/06/05  05:55:00  BASE  1.9698   357  2.1756   360  0.4   100   0.4   0     0     990.2    NA       0.0000   BR       9000  3020  0    
2019/06/05  05:56:00  BASE  1.76988  360  2.1756   360  0.4   100   0.4   0     0     990.3    NA       0.0000   BR       9000  3080  0    
2019/06/05  05:57:00  BASE  1.49352  358  2.1756   360  0.3   100   0.3   0     0     990.3    NA       0.0000   BR       9000  2990  0    
2019/06/05  05:58:01  BASE  1.19952  352  2.1756   360  0.3   100   0.3   0     0     990.3    NA       0.0000   BR       8000  2890  0    
2019/06/05  05:59:00  BASE  0.882    349  2.1756   360  0.3   100   0.3   0     0     990.3    NA       0.0000   BR       8000  2920  0    
2019/06/05  06:00:00  BASE  0.72324  350  2.1756   360  0.3   100   0.3   0     0     990.3    NA       0.0000   BR       8000  2990  0    
2019/06/05  06:01:00  BASE  0.78792  348  2.1756   360  0.4   100   0.4   0     0     990.2    NA       0.0000   BR       9000  3020  0    
2019/06/05  06:02:01  BASE  0.88788  346  2.1756   360  0.5   100   0.5   0     0     990.2    NA       0.0000   BR       9000  2890  3540 
2019/06/05  06:03:00  BASE  0.8526   345  2.1168   360  0.6   100   0.6   0     0     990.2    NA       0.0000   BR       9000  4400  0    
2019/06/05  06:04:00  BASE  0.3822   341  2.0874   353  0.8   100   0.8   0     0     990.1    NA       0.0000   BR       9000  3120  0    
2019/06/05  06:05:00  BASE  0        322  1.78752  3    0.9   100   0.9   0     0     990.1    NA       0.0000   BR       9000  0     0    
2019/06/05  06:06:00  BASE  0.53508  211  1.54056  1    1.0   100   1.0   0     0     990.1    NA       0.0000   BR       8000  0     0    
2019/06/05  06:07:00  BASE  1.05252  170  1.32888  167  0.9   100   0.9   0     0     990.1    NA       0.0000   BR       7000  0     0    
2019/06/05  06:08:00  BASE  1.09956  166  1.32888  167  0.8   100   0.8   0     0     990.0    NA       0.0000   BR       7000  0     0    
2019/06/05  06:09:00  BASE  1.48764  164  2.24028  167  0.7   100   0.7   0     0     989.9    NA       0.0000   BR       7000  0     0    
2019/06/05  06:10:00  BASE  2.15208  167  2.75184  166  0.5   100   0.5   0     0     989.9    NA       0.0000   BR       7000  0     0    
2019/06/05  06:11:00  BASE  2.57544  166  3.02232  168  0.4   100   0.4   0     0     989.9    NA       0.0000   UP       BR    6000  0    
2019/06/05  06:12:00  BASE  2.74596  167  3.1164   171  0.3   100   0.3   0     0     989.9    NA       0.0000   UP       BR    5000  0    
2019/06/05  06:13:00  BASE  2.46372  163  3.1164   171  0.3   100   0.3   0     0     989.9    NA       0.0000   UP       BR    5000  4400 
2019/06/05  06:14:00  BASE  2.01096  153  3.1164   171  0.2   100   0.2   0     0     990.0    NA       0.0000   UP       BR    4700  0    
2019/06/05  06:15:00  BASE  1.89336  150  3.1164   171  0.2   100   0.2   0     0     990.1    NA       0.0000   UP       BR    4500  0    
2019/06/05  06:16:00  BASE  1.57584  155  3.1164   171  0.2   100   0.2   0     0     990.1    NA       0.0000   UP       BR    4500  0    
2019/06/05  06:17:00  BASE  0.9996   170  3.1164   171  0.2   100   0.2   0     0     990.1    NA       0.0000   UP       BR    4500  0    
2019/06/05  06:18:00  BASE  0.84084  186  3.1164   171  0.2   100   0.2   0     0     990.2    NA       0.0000   UP       BR    5000  4070 
2019/06/05  06:19:00  BASE  0.99372  193  3.1164   171  0.2   100   0.2   0     0     990.2    NA       0.0000   UP       BR    6000  0    
2019/06/05  06:20:00  BASE  0.62916  191  3.1164   171  0.2   100   0.2   0     0     990.2    NA       0.0000   UP       BR    6000  4000 
2019/06/05  06:21:00  BASE  0.1176   176  3.1164   171  0.2   100   0.2   0     0     990.2    NA       0.0000   UP       BR    6000  4070 
2019/06/05  06:22:00  BASE  0        157  2.42256  164  0.2   100   0.2   0     0     990.3    NA       0.0000   UP       BR    7000  4230 
2019/06/05  06:23:00  BASE  0        197  2.1756   152  0.2   100   0.2   0     0     990.3    NA       0.0000   UP       BR    7000  4170 
2019/06/05  06:24:00  BASE  0        312  2.1756   152  0.2   100   0.2   0     0     990.3    NA       0.0000   UP       BR    8000  3280 
2019/06/05  06:25:00  BASE  0        340  1.54056  158  0.1   100   0.1   0     0     990.3    NA       0.0000   BR       8000  3020  3770 
2019/06/05  06:26:00  BASE  0.40572  351  1.27008  188  0.1   100   0.1   0     0     990.2    NA       0.0000   BR       8000  2690  0    
2019/06/05  06:27:00  BASE  1.05252  347  1.63464  352  0.2   100   0.2   0     0     990.2    NA       0.0000   BR       8000  2690  0    
2019/06/05  06:28:00  BASE  1.54056  346  1.90512  346  0.1   100   0.1   0     0     990.3    NA       0.0000   BR       8000  2660  0    
2019/06/05  06:29:00  BASE  1.81692  346  1.90512  345  0.1   100   0.1   0     0     990.2    NA       0.0000   BR       8000  2690  0    
2019/06/05  06:30:00  BASE  1.82868  346  1.93452  346  0.1   100   0.1   0     0     990.2    NA       0.0000   BR       8000  2690  0    
2019/06/05  06:31:00  BASE  1.75224  345  1.96392  349  0.1   100   0.1   0     0     990.2    NA       0.0000   BR       8000  2760  0    
2019/06/05  06:32:00  BASE  1.8816   345  2.21088  346  0.0   100   0.0   0     0     990.2    NA       0.0000   BR       8000  2720  0    
2019/06/05  06:33:00  BASE  1.83456  343  2.21088  346  -0.0  100   -0.0  0     0     990.2    NA       0.0000   BR       8000  2760  0    
2019/06/05  06:34:00  BASE  1.25244  335  2.21088  346  -0.0  100   -0.0  0     0     990.2    NA       0.0000   BR       8000  2720  0    
2019/06/05  06:35:00  BASE  0.4998   330  2.21088  346  -0.1  100   -0.1  0     0     990.1    NA       0.0000   BR       8000  2760  0    
2019/06/05  06:36:00  BASE  0.05292  308  2.21088  346  -0.0  100   -0.0  0     0     990.1    NA       0.0000   BR       9000  2720  0    
2019/06/05  06:37:00  BASE  0        282  2.21088  346  0.0   100   0.0   0     0     990.1    NA       0.0000   BR       8000  2820  0    
2019/06/05  06:38:00  BASE  0        276  2.21088  346  0.1   100   0.1   0     0     990.1    NA       0.0000   BR       8000  2760  0    
2019/06/05  06:39:00  BASE  0        273  2.21088  346  0.1   100   0.1   0     0     990.1    NA       0.0000   BR       7000  2720  0    
2019/06/05  06:40:00  BASE  0.3528   105  2.21088  346  0.1   100   0.1   0     0     990.1    NA       0.0000   UP       BR    7000  2850 
2019/06/05  06:41:00  BASE  0.58212  84   2.21088  346  0.1   100   0.1   0     0     990.1    NA       0.0000   UP       BR    7000  2920 
2019/06/05  06:42:00  BASE  0.22932  64   1.87572  347  0.2   100   0.2   0     0     990.1    NA       0.0000   UP       BR    7000  2990 
2019/06/05  06:43:00  BASE  0.05292  45   1.1466   329  0.3   100   0.3   0     0     990.1    NA       0.0000   UP       BR    7000  3020 
2019/06/05  06:44:00  BASE  0.45864  45   1.029    55   0.3   100   0.3   0     0     990.2    NA       0.0000   UP       BR    7000  2660 
2019/06/05  06:45:00  BASE  0.7938   69   1.029    55   0.4   100   0.4   0     0     990.2    NA       0.0000   UP       BR    7000  2690 
2019/06/05  06:46:00  BASE  0.95256  110  1.42296  156  0.4   100   0.4   0     0     990.2    NA       0.0000   UP       BR    7000  3180 
2019/06/05  06:47:00  BASE  1.47     148  2.0874   164  0.3   100   0.3   0     0     990.2    NA       0.0000   UP       BR    7000  2690 
2019/06/05  06:48:00  BASE  1.95216  159  2.24028  159  0.3   100   0.3   0     0     990.1    NA       0.0000   UP       BR    7000  2850 
2019/06/05  06:49:00  BASE  1.95216  154  2.24028  159  0.3   100   0.3   0     0     990.1    NA       0.0000   UP       BR    7000  3410 
2019/06/05  06:50:00  BASE  1.95804  151  2.24028  159  0.2   100   0.2   0     0     990.0    NA       0.0000   UP       BR    7000  3540 
2019/06/05  06:51:00  BASE  2.29908  152  2.87532  157  0.2   100   0.2   0     0     989.9    NA       0.0000   UP       BR    7000  3580 
2019/06/05  06:52:00  BASE  2.95176  156  3.62796  160  0.2   100   0.2   0     0     989.8    NA       0.0000   UP       BR    7000  3220 
2019/06/05  06:53:00  BASE  3.40452  161  3.65736  158  0.2   100   0.2   0     0     989.8    NA       0.0000   UP       BR    7000  3280 
2019/06/05  06:54:00  BASE  3.47508  163  3.78084  163  0.1   100   0.1   0     0     989.7    NA       0.0000   UP       BR    7000  890  
2019/06/05  06:55:00  BASE  3.62208  161  3.96312  152  0.1   100   0.1   0     0     989.7    NA       0.0000   UP       BR    7000  1050 
2019/06/05  06:56:00  BASE  3.66912  154  3.96312  152  0.1   100   0.1   0     0     989.7    NA       0.0000   UP       BR    6000  0    
2019/06/05  06:57:00  BASE  3.42804  151  3.96312  152  0.1   100   0.1   0     0     989.7    NA       0.0000   UP       BR    5000  750  
2019/06/05  06:58:00  BASE  3.22224  152  3.96312  152  0.1   100   0.1   0     0     989.8    NA       0.0000   UP       BR    5000  520  
2019/06/05  06:59:00  BASE  3.15168  156  3.96312  152  0.2   100   0.2   0     0     989.8    NA       0.0000   BR       5000  2660  0    
2019/06/05  07:00:00  BASE  2.94     153  3.96312  152  0.2   100   0.2   0     0     989.8    NA       0.0000   UP       BR    5000  2460 
2019/06/05  07:01:00  BASE  2.56956  137  3.96312  152  0.3   100   0.3   0     0     989.8    NA       0.0000   UP       BR    5000  3020 
2019/06/05  07:02:00  BASE  2.205    129  3.96312  152  0.4   100   0.4   0     0     989.8    NA       0.0000   UP       BR    5000  3250 
2019/06/05  07:03:00  BASE  2.16384  139  3.96312  152  0.5   100   0.5   0     0     989.7    NA       0.0000   BR       5000  2950  0    
2019/06/05  07:04:00  BASE  2.45196  152  3.96312  152  0.6   100   0.6   0     0     989.7    NA       0.0000   BR       5000  2950  0    
2019/06/05  07:05:00  BASE  2.7342   158  3.93372  153  0.7   100   0.7   0     0     989.7    NA       0.0000   UP       BR    5000  3180 
2019/06/05  07:06:00  BASE  3.21048  161  4.53936  161  0.8   100   0.8   0     0     989.6    NA       0.0000   UP       BR    5000  3080 
2019/06/05  07:07:00  BASE  3.71616  161  4.53936  161  0.8   100   0.8   0     0     989.6    NA       0.0000   UP       BR    5000  3150 
2019/06/05  07:08:00  BASE  3.63972  161  4.53936  161  0.9   100   0.9   0     0     989.6    NA       0.0000   UP       BR    5000  3150 
2019/06/05  07:09:00  BASE  3.32808  166  4.53936  161  0.9   100   0.9   0     0     989.6    NA       0.0000   UP       BR    6000  3150 
2019/06/05  07:10:00  BASE  3.0576   158  4.53936  161  0.9   100   0.9   0     0     989.6    NA       0.0000   BR       6000  3150  0    
2019/06/05  07:11:00  BASE  2.72832  149  4.53936  161  0.8   100   0.8   0     0     989.6    NA       0.0000   BR       6000  3220  0    
2019/06/05  07:12:00  BASE  2.72244  155  4.53936  161  0.7   100   0.7   0     0     989.6    NA       0.0000   BR       7000  3480  0    
2019/06/05  07:13:00  BASE  2.4696   153  4.53936  161  0.7   100   0.7   0     0     989.6    NA       0.0000   BR       8000  3510  0    
2019/06/05  07:14:00  BASE  1.9404   150  4.53936  161  0.7   100   0.7   0     0     989.6    NA       0.0000   BR       9000  3050  0    
2019/06/05  07:15:00  BASE  2.10504  152  4.53936  161  0.7   100   0.7   0     0     989.6    NA       0.0000   BR       9000  3080  0    
2019/06/05  07:16:00  BASE  2.42256  153  4.116    169  0.7   100   0.7   0     0     989.6    NA       0.0000   BR       9000  4560  0    
2019/06/05  07:17:00  BASE  2.32848  159  4.116    169  0.8   100   0.8   0     0     989.6    NA       0.0000   BR       8000  4590  0    
2019/06/05  07:18:00  BASE  1.99332  157  3.65736  167  0.8   100   0.8   0     0     989.5    NA       0.0000   BR       8000  3640  0    
2019/06/05  07:19:00  BASE  1.69932  155  3.35748  152  0.8   100   0.8   0     0     989.5    NA       0.0000   BR       9000  3740  4330 
2019/06/05  07:20:00  BASE  1.95804  165  3.2046   151  0.8   100   0.8   0     0     989.5    NA       0.0000   BR       9000  3810  0    
2019/06/05  07:21:00  BASE  2.50488  167  3.32808  163  0.8   100   0.8   0     0     989.4    NA       0.0000   BR       9999  3810  0    
2019/06/05  07:22:00  BASE  2.66952  170  3.32808  163  0.9   100   0.9   0     0     989.4    NA       0.0000   BR       9999  3770  0    
2019/06/05  07:23:00  BASE  2.7636   167  3.35748  166  0.9   100   0.9   0     0     989.4    NA       0.0000   BR       9000  3640  0    
2019/06/05  07:24:00  BASE  3.15168  164  3.65736  159  1.0   100   1.0   0     0     989.4    NA       0.0000   BR       9999  3710  0    
2019/06/05  07:25:00  BASE  3.55152  166  4.1748   160  0.9   100   0.9   0     0     989.4    NA       0.0000   BR       9000  3670  0    
2019/06/05  07:26:00  BASE  3.95724  160  4.62756  154  0.8   100   0.8   0     0     989.4    NA       0.0000   BR       9000  3710  0    
2019/06/05  07:27:00  BASE  3.83964  150  4.62756  154  0.7   100   0.7   0     0     989.4    NA       0.0000   BR       9999  3740  0    
2019/06/05  07:28:00  BASE  3.47508  143  4.62756  154  0.8   100   0.8   0     0     989.4    NA       0.0000   BR       9999  3840  0    
2019/06/05  07:29:00  BASE  3.38688  141  4.62756  154  0.8   100   0.8   0     0     989.4    NA       0.0000   BR       9999  3870  0    
2019/06/05  07:30:00  BASE  3.19284  136  4.62756  154  0.9   100   0.9   0     0     989.5    NA       0.0000   9999     3940  0     0    
2019/06/05  07:31:00  BASE  3.2634   128  4.62756  154  1.0   100   1.0   0     0     989.4    NA       0.0000   9999     3480  0     0    
2019/06/05  07:32:00  BASE  3.33396  125  4.62756  154  1.1   100   1.1   0     0     989.4    NA       0.0000   9999     3480  4000  0    
2019/06/05  07:33:00  BASE  2.29908  115  4.62756  154  1.2   100   1.2   0     0     989.4    NA       0.0000   9999     3510  4000  0    
2019/06/05  07:34:00  BASE  1.5288   101  4.62756  154  1.2   100   1.2   0     0     989.4    NA       0.0000   9999     4040  0     0    
2019/06/05  07:35:00  BASE  1.74636  99   4.62756  154  1.1   100   1.1   0     0     989.4    NA       0.0000   9999     0     0     0    
2019/06/05  07:36:00  BASE  1.45236  98   4.41588  140  1.1   100   1.1   0     0     989.4    NA       0.0000   9999     3310  0     0    
2019/06/05  07:37:00  BASE  1.3818   107  4.41588  140  1.2   100   1.2   0     0     989.3    NA       0.0000   9999     0     0     0    
2019/06/05  07:38:00  BASE  2.45784  124  4.32768  133  1.2   100   1.2   0     0     989.2    NA       0.0000   9999     0     0     0    
2019/06/05  07:39:00  BASE  3.52212  138  4.32768  133  1.2   100   1.2   0     0     989.2    NA       0.0000   9999     0     0     0    
2019/06/05  07:40:00  BASE  4.16892  142  5.74476  134  1.2   100   1.2   0     0     989.1    NA       0.0000   9999     0     0     0    
2019/06/05  07:41:00  BASE  5.0862   136  6.13872  136  1.2   100   1.2   0     0     989.1    NA       0.0000   9999     0     0     0    
2019/06/05  07:42:01  BASE  5.84472  135  6.47388  138  1.2   100   1.2   0     0     989.0    NA       0.0000   9999     0     0     0    
2019/06/05  07:43:00  BASE  5.99172  138  6.47388  138  1.3   100   1.3   0     0     988.9    NA       0.0000   9999     0     0     0    
2019/06/05  07:44:00  BASE  6.19752  140  7.3206   137  1.3   100   1.3   0     0     988.9    NA       0.0000   9999     0     0     0    
2019/06/05  07:45:00  BASE  6.615    137  7.3206   137  1.3   100   1.3   0     0     988.9    NA       0.0000   9999     0     0     0    
2019/06/05  07:46:01  BASE  6.69144  135  7.3206   137  1.3   100   1.3   0     0     988.9    NA       0.0000   9999     0     0     0    
2019/06/05  07:47:00  BASE  6.60912  136  7.3206   137  1.3   100   1.3   0     0     988.9    NA       0.0000   9999     0     0     0    
2019/06/05  07:48:00  BASE  6.60324  133  7.3206   137  1.3   100   1.3   0     0     988.9    NA       0.0000   9999     0     0     0    
2019/06/05  07:49:00  BASE  6.42684  131  7.3206   137  1.2   100   1.2   0     0     988.9    NA       0.0000   9999     0     0     0    
2019/06/05  07:50:00  BASE  6.20928  130  7.3206   137  1.2   100   1.2   0     0     988.9    NA       0.0000   9999     0     0     0    
2019/06/05  07:51:01  BASE  6.2622   125  7.3206   137  1.3   100   1.3   0     0     988.9    NA       0.0000   9999     0     0     0    
2019/06/05  07:52:00  BASE  6.37392  122  7.3206   137  1.3   100   1.3   0     0     988.9    NA       0.0000   9999     0     0     0    
2019/06/05  07:53:00  BASE  6.25632  122  7.3206   137  1.4   100   1.4   0     0     989.0    NA       0.0000   9999     0     0     0    
2019/06/05  07:54:00  BASE  6.06228  118  7.2618   134  1.5   100   1.5   0     0     989.0    NA       0.0000   9999     0     0     0    
2019/06/05  07:55:00  BASE  5.87412  116  7.16772  136  1.6   100   1.6   0     0     989.0    NA       0.0000   9999     0     0     0    
2019/06/05  07:56:00  BASE  5.8212   113  6.95604  105  1.6   100   1.6   0     0     989.0    NA       0.0000   9999     0     0     0    
2019/06/05  07:57:00  BASE  6.28572  107  6.95604  105  1.6   100   1.6   0     0     989.0    NA       0.0000   9999     0     0     0    
2019/06/05  07:58:00  BASE  6.53856  104  6.95604  105  1.6   100   1.6   0     0     989.0    NA       0.0000   9999     0     0     0    
2019/06/05  07:59:00  BASE  6.21516  104  6.95604  105  1.6   100   1.6   0     0     989.0    NA       0.0000   9999     0     0     0    
2019/06/05  08:00:00  BASE  5.82708  107  6.95604  105  1.7   100   1.7   0     0     989.0    NA       0.0000   9999     0     0     0    
2019/06/05  08:01:00  BASE  5.48604  107  6.95604  105  1.7   100   1.7   0     0     989.0    NA       0.0000   9999     0     0     0    
2019/06/05  08:02:00  BASE  5.42136  103  6.95604  105  1.8   100   1.8   0     0     989.0    NA       0.0000   9999     0     0     0    
2019/06/05  08:03:00  BASE  5.48604  101  6.95604  105  1.9   100   1.9   0     0     989.0    NA       0.0000   9999     0     0     0    
2019/06/05  08:04:00  BASE  5.49192  102  6.95604  105  2.0   100   2.0   0     0     988.9    NA       0.0000   9999     0     0     0    
2019/06/05  08:05:00  BASE  5.60364  105  6.95604  105  2.0   100   2.0   0     0     988.9    NA       0.0000   9999     0     0     0    
2019/06/05  08:06:00  BASE  5.6448   107  6.80316  107  2.0   100   2.0   0     0     988.9    NA       0.0000   9999     0     0     0    
2019/06/05  08:07:00  BASE  5.50956  108  6.65616  102  1.9   100   1.9   0     0     988.9    NA       0.0000   9999     0     0     0    
2019/06/05  08:08:00  BASE  5.2038   109  6.2622   104  1.9   100   1.9   0     0     988.9    NA       0.0000   9999     0     0     0    
2019/06/05  08:09:00  BASE  5.01564  109  6.02112  105  1.9   100   1.9   0     0     988.9    NA       0.0000   9999     0     0     0    
2019/06/05  08:10:00  BASE  4.92744  107  6.02112  105  1.8   100   1.8   0     0     988.9    NA       0.0000   9999     0     0     0    
2019/06/05  08:11:00  BASE  4.82748  106  6.02112  105  1.8   100   1.8   0     0     988.9    NA       0.0000   9999     0     0     0    
2019/06/05  08:12:00  BASE  4.7922   107  6.02112  105  1.8   100   1.8   0     0     988.8    NA       0.0000   9999     0     0     0    
2019/06/05  08:13:00  BASE  4.24536  112  6.02112  105  1.8   100   1.8   0     0     988.9    NA       0.0000   9999     0     0     0    
2019/06/05  08:14:00  BASE  2.78124  137  6.02112  105  1.8   100   1.8   0     0     988.9    NA       0.0000   9999     0     0     0    
2019/06/05  08:15:00  BASE  1.93452  162  5.99172  102  1.6   100   1.6   0     0     989.0    NA       0.0000   9999     0     0     0    
2019/06/05  08:16:00  BASE  1.79928  174  5.78004  112  1.5   100   1.5   0     0     989.0    NA       0.0000   9999     0     0     0    
2019/06/05  08:17:00  BASE  1.95804  182  5.50368  108  1.2   100   1.2   0     0     989.0    NA       0.0000   9999     0     0     0    
2019/06/05  08:18:00  BASE  2.1462   179  5.145    106  1.0   100   1.0   0     0     989.0    NA       0.0000   9999     0     0     0    
2019/06/05  08:19:00  BASE  2.00508  183  5.02152  104  0.8   100   0.8   0     0     989.0    NA       0.0000   9999     0     0     0    
2019/06/05  08:20:00  BASE  2.2638   187  4.96272  108  0.8   100   0.8   0     0     989.0    NA       0.0000   9999     0     0     0    
2019/06/05  08:21:00  BASE  2.4402   185  4.93332  108  0.7   100   0.7   0     0     989.0    NA       0.0000   9999     0     0     0    
2019/06/05  08:22:00  BASE  2.18148  182  4.41588  110  0.6   100   0.6   0     0     989.0    NA       0.0000   9999     0     0     0    
2019/06/05  08:23:00  BASE  1.71696  185  2.78124  187  0.6   100   0.6   0     0     989.0    NA       0.0000   9999     0     0     0    
2019/06/05  08:24:00  BASE  1.17012  192  2.78124  187  0.6   100   0.6   0     0     989.0    NA       0.0000   9999     0     0     0    
2019/06/05  08:25:00  BASE  0.78204  194  2.78124  187  0.6   100   0.6   0     0     989.0    NA       0.0000   9999     0     0     0    
2019/06/05  08:26:00  BASE  0.61152  161  2.78124  187  0.6   100   0.6   0     0     989.0    NA       0.0000   9999     0     0     0    
2019/06/05  08:27:00  BASE  0.69384  174  2.78124  187  0.7   100   0.7   0     0     988.9    NA       0.0000   9999     0     0     0    
2019/06/05  08:28:00  BASE  0.8526   208  2.78124  187  0.8   100   0.8   0     0     989.0    NA       0.0000   9999     0     0     0    
2019/06/05  08:29:00  BASE  1.1466   189  2.78124  187  0.8   100   0.8   0     0     989.0    NA       0.0000   9999     0     0     0    
2019/06/05  08:30:00  BASE  1.54644  185  2.72244  177  0.9   100   0.9   0     0     989.0    NA       0.0000   9999     5580  0     0    
2019/06/05  08:31:00  BASE  1.84044  189  2.59896  196  0.9   100   0.9   0     0     988.9    NA       0.0000   9999     5610  0     0    
2019/06/05  08:32:00  BASE  1.94628  185  2.59896  196  0.8   100   0.8   0     0     989.0    NA       0.0000   9999     5580  0     0    
2019/06/05  08:33:00  BASE  1.83456  181  2.59896  196  0.8   100   0.8   0     0     989.0    NA       0.0000   9999     5540  0     0    
2019/06/05  08:34:00  BASE  2.0874   182  2.59896  192  0.8   100   0.8   0     0     989.0    NA       0.0000   9999     5540  0     0    
2019/06/05  08:35:00  BASE  2.29908  186  2.59896  192  0.7   100   0.7   0     0     989.0    NA       0.0000   9999     5580  0     0    
2019/06/05  08:36:00  BASE  2.2344   183  2.59896  192  0.6   100   0.6   0     0     989.0    NA       0.0000   9999     5480  0     0    
2019/06/05  08:37:00  BASE  2.205    179  2.59896  192  0.6   100   0.6   0     0     989.0    NA       0.0000   9999     5540  0     0    
2019/06/05  08:38:00  BASE  2.05212  179  2.59896  192  0.5   100   0.5   0     0     989.0    NA       0.0000   9000     0     0     0    
2019/06/05  08:39:00  BASE  1.77576  178  2.59896  192  0.4   100   0.4   0     0     989.0    NA       0.0000   9000     0     0     0    
2019/06/05  08:40:00  BASE  1.42296  171  2.59896  192  0.3   100   0.3   0     0     988.9    NA       0.0000   9000     0     0     0    
2019/06/05  08:41:00  BASE  1.40532  168  2.59896  192  0.3   100   0.3   0     0     988.9    NA       0.0000   9999     0     0     0    
2019/06/05  08:42:00  BASE  1.5876   185  2.59896  192  0.3   100   0.3   0     0     988.9    NA       0.0000   9999     0     0     0    
2019/06/05  08:43:00  BASE  1.37004  203  2.59896  192  0.3   100   0.3   0     0     988.9    NA       0.0000   9999     0     0     0    
2019/06/05  08:44:00  BASE  1.31124  201  2.48136  178  0.3   100   0.3   0     0     988.9    NA       0.0000   9000     0     0     0    
2019/06/05  08:45:00  BASE  1.42884  196  2.48136  178  0.2   100   0.2   0     0     988.8    NA       0.0000   BR       9000  0     0    
2019/06/05  08:46:00  BASE  1.54644  193  2.48136  178  0.1   100   0.1   0     0     988.7    NA       0.0000   BR       9000  0     0    
2019/06/05  08:47:00  BASE  1.4994   194  2.29908  175  0.1   100   0.0   0     0     988.7    NA       0.0000   BR       8000  0     0    
2019/06/05  08:48:00  BASE  1.43472  193  2.29908  175  -0.0  100   -0.0  0     0     988.7    NA       0.0000   BR       8000  0     0    
2019/06/05  08:49:00  BASE  1.44648  193  2.29908  175  -0.1  100   -0.1  0     0     988.7    NA       0.0000   BR       9000  0     0    
2019/06/05  08:50:00  BASE  1.2348   217  2.29908  175  -0.1  100   -0.1  0     0     988.7    NA       0.0000   BR       9000  0     0    
2019/06/05  08:51:00  BASE  0.93492  245  2.29908  175  -0.2  100   -0.2  0     0     988.7    NA       0.0000   BR       8000  0     0    
2019/06/05  08:52:00  BASE  1.01136  264  2.29908  175  -0.2  100   -0.2  0     0     988.7    NA       0.0000   BR       8000  0     0    
2019/06/05  08:53:00  BASE  1.12896  266  2.29908  175  -0.2  100   -0.2  0     0     988.7    NA       0.0000   BR       9000  0     0    
2019/06/05  08:54:00  BASE  0.65856  252  2.29908  175  -0.2  100   -0.2  0     0     988.7    NA       0.0000   BR       9000  0     0    
2019/06/05  08:55:00  BASE  0.60564  256  2.29908  175  -0.2  100   -0.2  0     0     988.6    NA       0.0000   BR       9000  0     0    
2019/06/05  08:56:00  BASE  0.68796  245  1.9992   191  -0.1  100   -0.1  0     0     988.6    NA       0.0000   BR       9999  0     0    
2019/06/05  08:57:00  BASE  0.36456  213  1.9992   191  0.0   100   0.0   0     0     988.5    NA       0.0000   BR       9999  0     0    
2019/06/05  08:58:00  BASE  0.43512  184  1.81692  187  0.1   100   0.1   0     0     988.5    NA       0.0000   BR       9000  0     0    
2019/06/05  08:59:00  BASE  0.30576  154  1.48176  180  0.1   100   0.1   0     0     988.5    NA       0.0000   BR       9000  0     0    
2019/06/05  09:00:00  BASE  0        163  1.42296  281  0.2   100   0.2   0     0     988.5    NA       0.0000   BR       9999  0     0    
2019/06/05  09:01:00  BASE  0.15876  151  1.42296  281  0.2   100   0.2   0     0     988.5    NA       0.0000   BR       9000  0     0    
2019/06/05  09:02:00  BASE  0.54684  81   1.35828  258  0.2   100   0.2   0     0     988.5    NA       0.0000   BR       9000  0     0    
2019/06/05  09:03:00  BASE  0.90552  58   1.27008  49   0.2   100   0.2   0     0     988.5    NA       0.0000   BR       9000  0     0    
2019/06/05  09:04:00  BASE  1.00548  62   1.32888  75   0.1   100   0.1   0     0     988.5    NA       0.0000   BR       9000  0     0    
2019/06/05  09:05:00  BASE  1.14072  73   1.69344  75   0.1   100   0.1   0     0     988.5    NA       0.0000   BR       9000  0     0    
2019/06/05  09:06:00  BASE  1.4406   79   1.69344  85   0.1   100   0.1   0     0     988.5    NA       0.0000   BR       9000  0     0    
2019/06/05  09:07:00  BASE  1.59936  81   1.87572  80   0.0   100   0.0   0     0     988.5    NA       0.0000   BR       8000  0     0    
2019/06/05  09:08:00  BASE  1.68756  77   1.90512  76   0.0   100   0.0   0     0     988.5    NA       0.0000   BR       8000  0     0    
2019/06/05  09:09:00  BASE  1.74048  70   1.90512  65   0.0   100   0.0   0     0     988.5    NA       0.0000   BR       8000  0     0    
2019/06/05  09:10:00  BASE  1.911    62   2.1756   51   -0.0  100   -0.0  0     0     988.5    NA       0.0000   BR       8000  0     0    
2019/06/05  09:11:00  BASE  2.06388  52   2.38728  48   -0.1  100   -0.1  0     0     988.5    NA       0.0000   BR       8000  0     0    
2019/06/05  09:12:00  BASE  2.06388  48   2.38728  48   -0.1  100   -0.1  0     0     988.5    NA       0.0000   BR       7000  0     0    
2019/06/05  09:13:00  BASE  1.82868  49   2.38728  48   -0.1  100   -0.1  0     0     988.5    NA       0.0000   BR       7000  0     0    
2019/06/05  09:14:00  BASE  1.62288  42   2.38728  48   -0.2  100   -0.2  0     0     988.5    NA       0.0000   BR       7000  0     0    
2019/06/05  09:15:00  BASE  1.54056  33   2.38728  48   -0.2  100   -0.2  0     0     988.5    NA       0.0000   BR       7000  0     0    
2019/06/05  09:16:00  BASE  1.47588  32   2.38728  48   -0.3  100   -0.3  0     0     988.5    NA       0.0000   BR       7000  0     0    
2019/06/05  09:17:00  BASE  1.57584  35   2.38728  48   -0.3  100   -0.3  0     0     988.5    NA       0.0000   BR       6000  0     0    
2019/06/05  09:18:00  BASE  1.62288  39   2.38728  48   -0.4  100   -0.4  0     0     988.5    NA       0.0000   BR       6000  0     0    
2019/06/05  09:19:00  BASE  1.56408  43   2.38728  48   -0.3  100   -0.3  0     0     988.5    NA       0.0000   BR       7000  0     0    
2019/06/05  09:20:00  BASE  1.51704  42   2.38728  48   -0.3  100   -0.3  0     0     988.5    NA       0.0000   BR       8000  0     0    
2019/06/05  09:21:00  BASE  1.43472  39   2.24028  48   -0.3  100   -0.3  0     0     988.5    NA       0.0000   BR       8000  0     0    
2019/06/05  09:22:00  BASE  1.22304  32   2.0874   36   -0.3  100   -0.3  0     0     988.5    NA       0.0000   BR       8000  0     0    
2019/06/05  09:23:00  BASE  1.14072  30   2.0874   36   -0.2  100   -0.2  0     0     988.5    NA       0.0000   BR       8000  0     0    
2019/06/05  09:24:00  BASE  1.15836  30   1.87572  49   -0.2  100   -0.2  0     0     988.4    NA       0.0000   BR       8000  0     0    
2019/06/05  09:25:00  BASE  1.09956  31   1.75224  38   -0.1  100   -0.1  0     0     988.4    NA       0.0000   BR       8000  0     0    
2019/06/05  09:26:00  BASE  1.09956  35   1.69344  40   -0.1  100   -0.1  0     0     988.5    NA       0.0000   BR       8000  0     0    
2019/06/05  09:27:00  BASE  1.06428  35   1.66404  42   -0.0  100   -0.0  0     0     988.5    NA       0.0000   BR       9000  0     0    
2019/06/05  09:28:00  BASE  0.95256  37   1.63464  42   0.0   100   0.0   0     0     988.5    NA       0.0000   BR       9000  0     0    
2019/06/05  09:29:00  BASE  0.77028  41   1.57584  40   0.1   100   0.1   0     0     988.5    NA       0.0000   BR       9000  0     0    
2019/06/05  09:30:00  BASE  0.71736  41   1.54056  36   0.2   100   0.2   0     0     988.5    NA       0.0000   BR       9000  0     0    
2019/06/05  09:31:00  BASE  0.90552  51   1.54056  36   0.2   100   0.2   0     0     988.4    NA       0.0000   BR       9999  0     0    
2019/06/05  09:32:00  BASE  1.19364  55   1.63464  52   0.3   100   0.3   0     0     988.4    NA       0.0000   BR       9999  0     0    
2019/06/05  09:33:00  BASE  1.31712  44   1.63464  52   0.3   100   0.3   0     0     988.4    NA       0.0000   BR       9000  0     0    
2019/06/05  09:34:00  BASE  1.25244  39   1.63464  52   0.3   100   0.3   0     0     988.4    NA       0.0000   BR       9000  0     0    
2019/06/05  09:35:00  BASE  1.27596  39   1.63464  52   0.4   100   0.4   0     0     988.4    NA       0.0000   BR       9999  0     0    
2019/06/05  09:36:00  BASE  1.34064  34   1.63464  52   0.4   100   0.4   0     0     988.4    NA       0.0000   BR       9999  0     0    
2019/06/05  09:37:00  BASE  1.40532  23   1.63464  52   0.4   100   0.4   0     0     988.4    NA       0.0000   BR       9999  0     0    
2019/06/05  09:38:00  BASE  1.47588  22   1.63464  27   0.4   100   0.4   0     0     988.4    NA       0.0000   BR       9999  0     0    
2019/06/05  09:39:00  BASE  1.56408  26   1.69344  28   0.4   100   0.4   0     0     988.4    NA       0.0000   BR       9999  0     0    
2019/06/05  09:40:00  BASE  1.66992  32   1.90512  38   0.4   100   0.4   0     0     988.4    NA       0.0000   BR       9999  0     0    
2019/06/05  09:41:00  BASE  1.77576  36   2.0286   35   0.5   100   0.5   0     0     988.3    NA       0.0000   BR       9999  0     0    
2019/06/05  09:42:00  BASE  1.7346   36   2.0286   35   0.5   100   0.5   0     0     988.3    NA       0.0000   BR       9999  0     0    
2019/06/05  09:43:00  BASE  1.57584  35   2.0286   35   0.6   100   0.6   0     0     988.3    NA       0.0000   9999     0     0     0    
2019/06/05  09:44:00  BASE  1.45824  36   2.0286   35   0.7   100   0.7   0     0     988.3    NA       0.0000   9999     0     0     0    
2019/06/05  09:45:00  BASE  1.43472  37   2.0286   35   0.8   100   0.8   0     0     988.3    NA       0.0000   9999     0     0     0    
2019/06/05  09:46:00  BASE  1.47588  34   2.0286   35   0.9   100   0.9   0     0     988.2    NA       0.0000   9999     0     0     0    
2019/06/05  09:47:00  BASE  1.59936  29   2.0286   35   0.9   100   0.9   0     0     988.2    NA       0.0000   9999     0     0     0    
2019/06/05  09:48:00  BASE  1.86396  27   2.24028  23   1.0   100   1.0   0     0     988.2    NA       0.0000   9999     0     0     0    
2019/06/05  09:49:00  BASE  2.16384  24   2.42256  15   1.0   100   1.0   0     0     988.2    NA       0.0000   9999     0     0     0    
2019/06/05  09:50:00  BASE  2.31672  26   2.42256  23   1.0   100   1.0   0     0     988.2    NA       0.0000   9999     0     0     0    
2019/06/05  09:51:00  BASE  2.32848  29   2.54016  28   0.9   100   0.9   0     0     988.2    NA       0.0000   9999     0     0     0    
2019/06/05  09:52:00  BASE  2.2932   30   2.54016  28   0.9   100   0.9   0     0     988.2    NA       0.0000   9999     0     0     0    
2019/06/05  09:53:00  BASE  2.34024  30   2.54016  27   0.9   100   0.9   0     0     988.2    NA       0.0000   9999     0     0     0    
2019/06/05  09:54:00  BASE  2.352    31   2.54016  27   0.8   100   0.8   0     0     988.2    NA       0.0000   9999     0     0     0    
2019/06/05  09:55:00  BASE  2.33436  30   2.59896  26   0.7   100   0.7   0     0     988.2    NA       0.0000   9999     0     0     0    
2019/06/05  09:56:00  BASE  2.42844  22   2.63424  16   0.6   100   0.6   0     0     988.2    NA       0.0000   9999     0     0     0    
2019/06/05  09:57:00  BASE  2.46372  12   2.63424  16   0.6   100   0.6   0     0     988.2    NA       0.0000   9999     0     0     0    
2019/06/05  09:58:00  BASE  2.34612  10   2.63424  16   0.6   100   0.6   0     0     988.2    NA       0.0000   9999     0     0     0    
2019/06/05  09:59:00  BASE  2.27556  10   2.69304  354  0.7   100   0.6   0     0     988.2    NA       0.0000   9999     0     0     0    
2019/06/05  10:00:00  BASE  2.31672  7    2.69304  354  0.7   100   0.7   0     0     988.2    NA       0.0000   9999     0     0     0    
2019/06/05  10:01:00  BASE  2.19324  8    2.69304  354  0.8   100   0.8   0     0     988.2    NA       0.0000   9999     0     0     0    
2019/06/05  10:02:00  BASE  2.06388  8    2.69304  354  0.8   100   0.8   0     0     988.2    NA       0.0000   9999     0     0     0    
2019/06/05  10:03:00  BASE  2.07564  3    2.69304  354  0.9   100   0.9   0     0     988.2    NA       0.0000   9999     0     0     0    
2019/06/05  10:04:00  BASE  2.205    359  2.69304  352  0.8   100   0.8   0     0     988.2    NA       0.0000   9999     0     0     0    
2019/06/05  10:05:00  BASE  2.43432  356  2.93412  349  0.8   100   0.8   0     0     988.2    NA       0.0000   9999     0     0     0    
2019/06/05  10:06:00  BASE  2.61072  354  3.2046   339  0.8   100   0.8   0     0     988.2    NA       0.0000   9999     0     0     0    
2019/06/05  10:07:00  BASE  2.7048   354  3.2046   339  0.7   100   0.7   0     0     988.2    NA       0.0000   9999     0     0     0    
2019/06/05  10:08:01  BASE  2.84592  357  3.35748  8    0.6   100   0.6   0     0     988.2    NA       0.0000   9999     0     0     0    
2019/06/05  10:09:01  BASE  2.95764  358  3.35748  353  0.6   100   0.6   0     0     988.2    NA       0.0000   9999     0     0     0    
2019/06/05  10:10:01  BASE  3.0576   359  3.35748  1    0.5   100   0.5   0     0     988.2    NA       0.0000   9999     0     0     0    
2019/06/05  10:11:01  BASE  3.2046   357  3.69264  260  0.4   100   0.4   0     0     988.2    NA       0.0000   9999     0     0     0    
2019/06/05  10:12:01  BASE  3.47508  349  4.02192  352  0.4   100   0.4   0     0     988.2    NA       0.0000   9999     0     0     0    
2019/06/05  10:13:01  BASE  3.72204  346  4.2042   351  0.5   100   0.5   0     0     988.2    NA       0.0000   9999     0     0     0    
2019/06/05  10:14:01  BASE  3.92196  348  4.2042   345  0.5   100   0.5   0     0     988.2    NA       0.0000   9999     0     0     0    
2019/06/05  10:15:01  BASE  3.98076  346  4.44528  340  0.5   100   0.5   0     0     988.2    NA       0.0000   9999     0     0     0    
2019/06/05  10:16:01  BASE  4.0572   342  4.80984  339  0.6   100   0.6   0     0     988.2    NA       0.0000   9999     0     0     0    
2019/06/05  10:17:01  BASE  4.24536  341  4.86864  330  0.6   100   0.6   0     0     988.2    NA       0.0000   9999     0     0     0    
2019/06/05  10:18:01  BASE  4.21596  341  4.86864  330  0.7   100   0.7   0     0     988.2    NA       0.0000   9999     0     0     0    
2019/06/05  10:19:01  BASE  3.89256  343  4.86864  330  0.6   100   0.6   0     0     988.2    NA       0.0000   9000     0     0     0    
2019/06/05  10:20:01  BASE  3.78672  341  4.86864  330  0.6   100   0.6   0     0     988.1    NA       0.0000   9000     0     0     0    
2019/06/05  10:21:01  BASE  4.02192  337  4.86864  330  0.6   100   0.6   0     0     988.2    NA       0.0000   8000     0     0     0    
2019/06/05  10:22:01  BASE  3.98076  335  4.86864  330  0.5   100   0.5   0     0     988.2    NA       0.0000   BR       8000  0     0    
2019/06/05  10:23:01  BASE  3.71616  333  4.86864  330  0.5   100   0.5   0     0     988.2    NA       0.0000   BR       8000  0     0    
2019/06/05  10:24:01  BASE  3.50448  333  4.86864  330  0.5   100   0.5   0     0     988.2    NA       0.0000   BR       8000  0     0    
2019/06/05  10:25:01  BASE  3.35748  334  4.86864  330  0.5   100   0.5   0     0     988.2    NA       0.0000   BR       8000  0     0    
2019/06/05  10:26:01  BASE  2.95764  332  4.86864  330  0.5   100   0.5   0     0     988.2    NA       0.0000   BR       8000  0     0    
2019/06/05  10:27:01  BASE  2.64012  330  4.47468  339  0.4   100   0.4   0     0     988.2    NA       0.0000   BR       7000  0     0    
2019/06/05  10:28:01  BASE  2.44608  327  4.41588  334  0.3   100   0.3   0     0     988.1    NA       0.0000   BR       7000  0     0    
2019/06/05  10:29:01  BASE  2.31672  330  4.41588  334  0.3   100   0.3   0     0     988.0    NA       0.0000   BR       7000  0     0    
2019/06/05  10:30:01  BASE  2.24028  331  4.41588  334  0.3   100   0.3   0     0     988.0    NA       0.0000   BR       7000  0     0    
2019/06/05  10:31:01  BASE  2.06976  324  4.35708  330  0.3   100   0.3   0     0     988.0    NA       0.0000   BR       6000  0     0    
2019/06/05  10:32:01  BASE  1.96392  321  3.69264  333  0.3   100   0.3   0     0     988.0    NA       0.0000   BR       6000  0     0    
2019/06/05  10:33:01  BASE  1.71696  321  3.69264  333  0.3   100   0.3   0     0     988.0    NA       0.0000   BR       6000  0     0    
2019/06/05  10:34:01  BASE  1.40532  320  3.48096  324  0.3   100   0.3   0     0     988.0    NA       0.0000   BR       6000  0     0    
2019/06/05  10:35:01  BASE  1.28184  323  3.02232  325  0.3   100   0.3   0     0     987.9    NA       0.0000   BR       6000  0     0    
2019/06/05  10:36:01  BASE  1.37592  328  2.90472  333  0.3   100   0.3   0     0     987.9    NA       0.0000   BR       6000  0     0    
2019/06/05  10:37:01  BASE  1.59936  324  2.56956  330  0.3   100   0.3   0     0     987.9    NA       0.0000   BR       6000  0     0    
2019/06/05  10:38:01  BASE  1.75224  317  2.56956  330  0.3   100   0.3   0     0     987.9    NA       0.0000   BR       6000  0     0    
2019/06/05  10:39:01  BASE  1.91688  312  2.29908  310  0.3   100   0.3   0     0     987.9    NA       0.0000   BR       6000  0     0    
2019/06/05  10:40:01  BASE  2.06976  308  2.29908  310  0.2   100   0.2   0     0     987.9    NA       0.0000   BR       6000  0     0    
2019/06/05  10:41:01  BASE  2.0874   306  2.29908  310  0.2   100   0.2   0     0     987.9    NA       0.0000   BR       5000  0     0    
2019/06/05  10:42:01  BASE  2.15796  307  2.42256  313  0.2   100   0.2   0     0     987.9    NA       0.0000   BR       5000  0     0    
2019/06/05  10:43:01  BASE  2.28144  311  2.42256  312  0.2   100   0.2   0     0     988.0    NA       0.0000   BR       6000  0     0    
2019/06/05  10:44:01  BASE  2.45784  317  2.87532  319  0.1   100   0.1   0     0     988.0    NA       0.0000   BR       6000  0     0    
2019/06/05  10:45:01  BASE  2.69304  322  2.93412  320  0.1   100   0.1   0     0     988.0    NA       0.0000   BR       5000  360   0    
2019/06/05  10:46:01  BASE  2.89296  326  3.1164   326  0.1   100   0.1   0     0     988.0    NA       0.0000   BR       5000  0     0    
2019/06/05  10:47:00  BASE  2.96352  328  3.1164   326  0.1   100   0.1   0     0     988.0    NA       0.0000   BR       5000  0     0    
2019/06/05  10:48:00  BASE  2.95764  328  3.2046   324  0.0   100   0.0   0     0     987.9    NA       0.0000   BR       5000  0     0    
2019/06/05  10:49:00  BASE  3.13404  326  3.41628  324  0.0   100   0.0   0     0     987.9    NA       0.0000   BR       5000  0     0    
2019/06/05  10:50:01  BASE  3.42216  324  3.81024  318  0.0   100   0.0   0     0     987.9    NA       0.0000   BR       5000  0     0    
2019/06/05  10:51:00  BASE  3.53976  324  3.81024  318  -0.0  100   -0.0  0     0     987.9    NA       0.0000   BR       5000  0     0    
2019/06/05  10:52:00  BASE  3.51624  325  3.81024  318  -0.0  100   -0.0  0     0     987.9    NA       0.0000   BR       5000  0     0    
2019/06/05  10:53:01  BASE  3.51624  328  3.81024  318  -0.1  100   -0.1  0     0     987.9    NA       0.0000   BR       5000  0     0    
2019/06/05  10:54:01  BASE  3.48096  330  3.81024  318  -0.1  100   -0.1  0     0     987.9    NA       0.0000   BR       5000  0     0    
2019/06/05  10:55:00  BASE  3.32808  333  3.81024  318  -0.1  100   -0.1  0     0     987.9    NA       0.0000   BR       5000  0     0    
2019/06/05  10:56:00  BASE  3.19872  337  3.81024  318  -0.1  100   -0.1  0     0     987.9    NA       0.0000   BR       5000  0     0    
2019/06/05  10:57:00  BASE  3.15168  340  3.81024  318  -0.1  100   -0.1  0     0     987.9    NA       0.0000   BR       5000  0     0    
2019/06/05  10:58:00  BASE  3.1164   341  3.81024  318  -0.1  100   -0.1  0     0     987.9    NA       0.0000   BR       5000  0     0    
2019/06/05  10:59:00  BASE  3.16932  341  3.81024  318  -0.1  100   -0.1  0     0     987.9    NA       0.0000   BR       5000  0     0    
2019/06/05  11:00:01  BASE  3.26928  341  3.69264  329  -0.2  100   -0.2  0     0     987.9    NA       0.0000   BR       5000  0     0    
2019/06/05  11:01:00  BASE  3.33396  346  3.69264  329  -0.2  100   -0.2  0     0     987.9    NA       0.0000   BR       5000  0     0    
2019/06/05  11:02:00  BASE  3.2928   349  3.69264  329  -0.2  100   -0.2  0     0     987.9    NA       0.0000   BR       5000  0     0    
2019/06/05  11:03:01  BASE  3.10464  349  3.56916  328  -0.3  100   -0.3  0     0     987.9    NA       0.0000   BR       5000  0     0    
2019/06/05  11:04:01  BASE  2.89296  345  3.44568  350  -0.3  100   -0.3  0     0     987.9    NA       0.0000   BR       5000  0     0    
2019/06/05  11:05:00  BASE  2.6754   343  3.44568  350  -0.3  100   -0.3  0     0     987.9    NA       0.0000   BR       5000  0     0    
2019/06/05  11:06:00  BASE  2.48724  344  3.44568  350  -0.3  100   -0.3  0     0     987.9    NA       0.0000   BR       5000  0     0    
2019/06/05  11:07:00  BASE  2.38728  343  3.44568  350  -0.3  100   -0.3  0     0     987.9    NA       0.0000   BR       5000  0     0    
2019/06/05  11:08:00  BASE  2.28732  340  3.44568  350  -0.3  100   -0.3  0     0     987.9    NA       0.0000   BR       5000  0     0    
2019/06/05  11:09:00  BASE  2.12856  338  3.44568  350  -0.3  100   -0.3  0     0     987.9    NA       0.0000   BR       6000  0     0    
2019/06/05  11:10:00  BASE  2.058    337  3.44568  350  -0.3  100   -0.3  0     0     987.9    NA       0.0000   BR       7000  0     0    
2019/06/05  11:11:00  BASE  2.09916  335  3.29868  347  -0.3  100   -0.3  0     0     987.9    NA       0.0000   BR       7000  0     0    
2019/06/05  11:12:00  BASE  2.16972  335  3.1752   349  -0.3  100   -0.3  0     0     987.9    NA       0.0000   BR       6000  0     0    
2019/06/05  11:13:00  BASE  2.2638   335  2.96352  340  -0.3  100   -0.3  0     0     987.9    NA       0.0000   BR       6000  0     0    
2019/06/05  11:14:00  BASE  2.35788  335  2.75184  339  -0.3  100   -0.3  0     0     987.9    NA       0.0000   BR       6000  0     0    
2019/06/05  11:15:00  BASE  2.38728  336  2.54016  346  -0.3  100   -0.3  0     0     987.9    NA       0.0000   BR       6000  0     0    
2019/06/05  11:16:00  BASE  2.3226   340  2.51076  336  -0.3  100   -0.3  0     0     987.9    NA       0.0000   BR       6000  0     0    
2019/06/05  11:17:00  BASE  2.09916  347  2.51076  336  -0.4  100   -0.4  0     0     987.9    NA       0.0000   BR       6000  0     0    
2019/06/05  11:18:00  BASE  1.74636  359  2.51076  336  -0.4  100   -0.4  0     0     987.9    NA       0.0000   BR       6000  0     0    
2019/06/05  11:19:00  BASE  1.4406   7    2.51076  336  -0.5  100   -0.5  0     0     987.9    NA       0.0000   BR       7000  0     0    
2019/06/05  11:20:00  BASE  1.45824  11   2.51076  336  -0.5  100   -0.5  0     0     987.9    NA       0.0000   BR       7000  0     0    
2019/06/05  11:21:00  BASE  1.64052  9    2.51076  336  -0.5  100   -0.5  0     0     987.9    NA       0.0000   BR       6000  0     0    
2019/06/05  11:22:00  BASE  1.71696  8    2.51076  336  -0.4  100   -0.4  0     0     987.9    NA       0.0000   BR       6000  0     0    
2019/06/05  11:23:00  BASE  1.77576  11   2.51076  336  -0.4  100   -0.4  0     0     987.9    NA       0.0000   BR       6000  0     0    
2019/06/05  11:24:00  BASE  1.8228   13   2.51076  336  -0.4  100   -0.4  0     0     987.9    NA       0.0000   BR       6000  0     0    
2019/06/05  11:25:00  BASE  1.79928  11   2.48136  338  -0.3  100   -0.3  0     0     987.9    NA       0.0000   BR       7000  0     0    
2019/06/05  11:26:00  BASE  1.86984  11   2.1168   346  -0.3  100   -0.3  0     0     987.9    NA       0.0000   BR       7000  0     0    
2019/06/05  11:27:00  BASE  1.911    12   2.0874   17   -0.3  100   -0.3  0     0     987.8    NA       0.0000   BR       8000  0     0    
2019/06/05  11:28:00  BASE  1.95804  8    2.35788  14   -0.4  100   -0.4  0     0     987.9    NA       0.0000   BR       8000  0     0    
2019/06/05  11:29:00  BASE  2.00508  4    2.35788  14   -0.4  100   -0.4  0     0     987.9    NA       0.0000   BR       8000  0     0    
2019/06/05  11:30:00  BASE  2.08152  4    2.48136  3    -0.4  100   -0.4  0     0     987.9    NA       0.0000   BR       8000  0     0    
2019/06/05  11:31:00  BASE  2.24028  5    2.48136  3    -0.5  100   -0.5  0     0     987.9    NA       0.0000   BR       8000  0     0    
2019/06/05  11:32:00  BASE  2.2932   4    2.48136  2    -0.5  100   -0.5  0     0     987.9    NA       0.0000   BR       8000  0     0    
2019/06/05  11:33:00  BASE  2.36964  0    2.75184  360  -0.5  100   -0.5  0     0     987.9    NA       0.0000   BR       8000  0     0    
2019/06/05  11:34:00  BASE  2.49312  360  2.75184  360  -0.6  100   -0.6  0     0     987.9    NA       0.0000   BR       7000  0     0    
2019/06/05  11:35:00  BASE  2.63424  359  2.81064  1    -0.6  100   -0.6  0     0     987.9    NA       0.0000   BR       7000  0     0    
2019/06/05  11:36:00  BASE  2.84004  354  3.2046   350  -0.6  100   -0.6  0     0     987.9    NA       0.0000   BR       7000  0     0    
2019/06/05  11:37:00  BASE  3.13404  351  3.44568  351  -0.7  100   -0.7  0     0     987.8    NA       0.0000   BR       7000  0     0    
2019/06/05  11:38:00  BASE  3.39864  351  3.62796  350  -0.7  100   -0.7  0     0     987.8    NA       0.0000   BR       6000  0     0    
2019/06/05  11:39:00  BASE  3.675    350  4.02192  349  -0.7  100   -0.7  0     0     987.8    NA       0.0000   BR       6000  0     0    
2019/06/05  11:40:00  BASE  3.969    350  4.2042   352  -0.7  100   -0.7  0     0     987.8    NA       0.0000   BR       6000  0     0    
2019/06/05  11:41:00  BASE  4.19832  351  4.56876  350  -0.7  100   -0.7  0     0     987.8    NA       0.0000   BR       6000  0     0    
2019/06/05  11:42:00  BASE  4.37472  352  4.65696  352  -0.7  100   -0.7  0     0     987.8    NA       0.0000   BR       6000  0     0    
2019/06/05  11:43:00  BASE  4.59228  353  4.86864  354  -0.7  100   -0.7  0     0     987.8    NA       0.0000   BR       6000  0     0    
2019/06/05  11:44:00  BASE  4.57464  351  4.86864  354  -0.7  100   -0.7  0     0     987.8    NA       0.0000   BR       6000  0     0    
2019/06/05  11:45:00  BASE  4.40412  349  4.86864  354  -0.6  100   -0.6  0     0     987.8    NA       0.0000   BR       7000  0     0    
2019/06/05  11:46:00  BASE  4.37472  347  4.86864  354  -0.6  100   -0.6  0     0     987.9    NA       0.0000   BR       7000  0     0    
2019/06/05  11:47:00  BASE  4.52172  348  4.86864  353  -0.5  100   -0.5  0     0     987.8    NA       0.0000   BR       7000  0     0    
2019/06/05  11:48:00  BASE  4.66872  351  4.93332  347  -0.5  100   -0.5  0     0     987.8    NA       0.0000   BR       7000  0     0    
2019/06/05  11:49:00  BASE  4.7922   350  5.145    350  -0.4  100   -0.4  0     0     987.8    NA       0.0000   BR       7000  0     0    
2019/06/05  11:50:00  BASE  4.74516  352  5.145    350  -0.4  100   -0.4  0     0     987.8    NA       0.0000   BR       7000  0     0    
2019/06/05  11:51:00  BASE  4.56288  351  5.145    350  -0.3  100   -0.3  0     0     987.7    NA       0.0000   BR       8000  0     0    
2019/06/05  11:52:00  BASE  4.59228  350  5.145    350  -0.3  100   -0.3  0     0     987.7    NA       0.0000   BR       9000  0     0    
2019/06/05  11:53:00  BASE  4.74516  352  5.41548  353  -0.3  100   -0.3  0     0     987.7    NA       0.0000   BR       9000  0     0    
2019/06/05  11:54:00  BASE  4.68048  351  5.41548  353  -0.3  100   -0.3  0     0     987.6    NA       0.0000   BR       9000  0     0    
2019/06/05  11:55:00  BASE  4.48644  352  5.41548  353  -0.3  100   -0.3  0     0     987.7    NA       0.0000   BR       9000  0     0    
2019/06/05  11:56:00  BASE  4.37472  356  5.41548  353  -0.3  100   -0.3  0     0     987.7    NA       0.0000   BR       8000  0     0    
2019/06/05  11:57:00  BASE  4.28064  351  5.41548  353  -0.3  100   -0.3  0     0     987.7    NA       0.0000   BR       8000  0     0    
2019/06/05  11:58:00  BASE  4.10424  350  5.41548  353  -0.4  100   -0.4  0     0     987.7    NA       0.0000   BR       8000  0     0    
2019/06/05  11:59:00  BASE  4.01604  355  5.41548  353  -0.4  100   -0.4  0     0     987.6    NA       0.0000   BR       8000  0     0    
2019/06/05  12:00:00  BASE  4.12188  351  5.41548  353  -0.5  100   -0.5  0     0     987.6    NA       0.0000   BR       9000  0     0    
2019/06/05  12:01:00  BASE  4.22772  353  5.41548  353  -0.5  100   -0.5  0     0     987.6    NA       0.0000   BR       9999  0     0    
2019/06/05  12:02:00  BASE  4.29828  357  5.41548  353  -0.5  100   -0.5  0     0     987.6    NA       0.0000   BR       9999  0     0    
2019/06/05  12:03:00  BASE  4.23948  352  4.75104  351  -0.5  100   -0.5  0     0     987.5    NA       0.0000   BR       9999  0     0    
2019/06/05  12:04:00  BASE  4.10424  349  4.75104  351  -0.5  100   -0.5  0     0     987.4    NA       0.0000   BR       9999  0     0    
2019/06/05  12:05:00  BASE  3.84552  346  4.75104  351  -0.5  100   -0.5  0     0     987.4    NA       0.0000   9999     0     0     0    
2019/06/05  12:06:00  BASE  3.7044   342  4.75104  351  -0.5  100   -0.5  0     0     987.4    NA       0.0000   9999     0     0     0    
2019/06/05  12:07:00  BASE  3.78084  340  4.75104  351  -0.4  100   -0.4  0     0     987.4    NA       0.0000   9999     0     0     0    
2019/06/05  12:08:00  BASE  3.81612  341  4.75104  351  -0.4  100   -0.4  0     0     987.4    NA       0.0000   9999     0     0     0    
2019/06/05  12:09:00  BASE  3.65736  342  4.75104  351  -0.4  100   -0.4  0     0     987.4    NA       0.0000   9999     0     0     0    
2019/06/05  12:10:00  BASE  3.55152  343  4.75104  351  -0.5  100   -0.5  0     0     987.4    NA       0.0000   9999     0     0     0    
2019/06/05  12:11:00  BASE  3.62796  342  4.75104  351  -0.6  100   -0.6  0     0     987.3    NA       0.0000   9999     0     0     0    
2019/06/05  12:12:00  BASE  3.59856  336  4.56876  351  -0.6  100   -0.6  0     0     987.3    NA       0.0000   9999     0     0     0    
2019/06/05  12:13:00  BASE  3.33396  329  4.38648  355  -0.6  100   -0.6  0     0     987.3    NA       0.0000   9999     0     0     0    
2019/06/05  12:14:00  BASE  3.09288  320  4.29828  347  -0.6  100   -0.6  0     0     987.4    NA       0.0000   9999     0     0     0    
2019/06/05  12:15:00  BASE  3.0576   319  4.08072  336  -0.6  100   -0.6  0     0     987.3    NA       0.0000   9999     0     0     0    
2019/06/05  12:16:00  BASE  3.15168  323  3.96312  339  -0.5  100   -0.5  0     0     987.3    NA       0.0000   9999     0     0     0    
2019/06/05  12:17:00  BASE  3.36336  327  3.93372  341  -0.5  100   -0.5  0     0     987.3    NA       0.0000   9999     0     0     0    
2019/06/05  12:18:00  BASE  3.62208  328  4.05132  329  -0.4  100   -0.4  0     0     987.3    NA       0.0000   9999     0     0     0    
2019/06/05  12:19:00  BASE  3.83964  328  4.2336   324  -0.4  100   -0.4  0     0     987.3    NA       0.0000   9999     0     0     0    
2019/06/05  12:20:00  BASE  3.98664  329  4.263    328  -0.4  100   -0.4  0     0     987.3    NA       0.0000   9999     0     0     0    
2019/06/05  12:21:00  BASE  4.11012  329  4.35708  329  -0.5  100   -0.5  0     0     987.3    NA       0.0000   9999     0     0     0    
2019/06/05  12:22:00  BASE  4.2924   328  4.47468  329  -0.5  100   -0.5  0     0     987.3    NA       0.0000   9999     0     0     0    
2019/06/05  12:23:00  BASE  4.4394   329  4.59816  331  -0.5  100   -0.5  0     0     987.3    NA       0.0000   9999     0     0     0    
2019/06/05  12:24:00  BASE  4.42176  329  4.59816  331  -0.6  100   -0.6  0     0     987.3    NA       0.0000   9999     0     0     0    
2019/06/05  12:25:00  BASE  4.3218   329  4.59816  331  -0.6  100   -0.6  0     0     987.3    NA       0.0000   9999     0     0     0    
2019/06/05  12:26:00  BASE  4.26888  331  4.59816  331  -0.6  100   -0.6  0     0     987.3    NA       0.0000   9999     0     0     0    
2019/06/05  12:27:00  BASE  4.28064  333  4.59816  331  -0.6  100   -0.6  0     0     987.3    NA       0.0000   9999     0     0     0    
2019/06/05  12:28:00  BASE  4.263    334  4.59816  331  -0.7  100   -0.7  0     0     987.3    NA       0.0000   9999     0     0     0    
2019/06/05  12:29:00  BASE  4.13364  334  4.59816  331  -0.7  100   -0.7  0     0     987.3    NA       0.0000   9999     0     0     0    
2019/06/05  12:30:00  BASE  4.07484  335  4.59816  331  -0.7  100   -0.7  0     0     987.3    NA       0.0000   9999     0     0     0    
2019/06/05  12:31:00  BASE  4.09248  336  4.59816  331  -0.7  100   -0.7  0     0     987.3    NA       0.0000   9999     0     0     0    
2019/06/05  12:32:00  BASE  3.93372  335  4.59816  331  -0.7  100   -0.7  0     0     987.3    NA       0.0000   9999     0     0     0    
2019/06/05  12:33:00  BASE  3.7632   336  4.56876  329  -0.8  100   -0.8  0     0     987.3    NA       0.0000   9999     0     0     0    
2019/06/05  12:34:00  BASE  3.62796  336  4.44528  331  -0.8  100   -0.8  0     0     987.3    NA       0.0000   9999     0     0     0    
2019/06/05  12:35:00  BASE  3.61032  335  4.44528  331  -0.8  100   -0.8  0     0     987.3    NA       0.0000   9999     0     0     0    
2019/06/05  12:36:00  BASE  3.71616  336  4.41588  333  -0.8  100   -0.8  0     0     987.3    NA       0.0000   9999     0     0     0    
2019/06/05  12:37:00  BASE  3.71028  337  4.38648  333  -0.8  100   -0.8  0     0     987.3    NA       0.0000   9999     0     0     0    
2019/06/05  12:38:00  BASE  3.68088  337  4.2336   336  -0.8  100   -0.8  0     0     987.3    NA       0.0000   9999     0     0     0    
2019/06/05  12:39:00  BASE  3.71616  339  4.2336   336  -0.8  100   -0.8  0     0     987.3    NA       0.0000   9999     0     0     0    
2019/06/05  12:40:00  BASE  3.72792  342  4.2336   336  -0.8  100   -0.8  0     0     987.2    NA       0.0000   9999     0     0     0    
2019/06/05  12:41:00  BASE  3.72204  344  3.93372  335  -0.8  100   -0.8  0     0     987.2    NA       0.0000   9999     0     0     0    
2019/06/05  12:42:00  BASE  3.68676  346  3.93372  335  -0.7  100   -0.7  0     0     987.2    NA       0.0000   9999     0     0     0    
2019/06/05  12:43:00  BASE  3.62796  348  3.93372  335  -0.7  100   -0.7  0     0     987.2    NA       0.0000   9999     0     0     0    
2019/06/05  12:44:00  BASE  3.5868   348  3.93372  335  -0.7  100   -0.7  0     0     987.2    NA       0.0000   9999     0     0     0    
2019/06/05  12:45:00  BASE  3.4692   348  3.90432  347  -0.6  100   -0.6  0     0     987.3    NA       0.0000   9999     0     0     0    
2019/06/05  12:46:00  BASE  3.35748  349  3.90432  347  -0.6  100   -0.6  0     0     987.3    NA       0.0000   9999     0     0     0    
2019/06/05  12:47:00  BASE  3.19284  349  3.90432  347  -0.6  100   -0.6  0     0     987.3    NA       0.0000   9999     0     0     0    
2019/06/05  12:48:00  BASE  3.06348  352  3.90432  347  -0.6  100   -0.6  0     0     987.3    NA       0.0000   9999     0     0     0    
2019/06/05  12:49:00  BASE  3.09288  356  3.90432  347  -0.5  100   -0.5  0     0     987.3    NA       0.0000   9999     0     0     0    
2019/06/05  12:50:00  BASE  3.10464  357  3.90432  347  -0.5  100   -0.5  0     0     987.3    NA       0.0000   9999     0     0     0    
2019/06/05  12:51:00  BASE  3.06348  353  3.75144  345  -0.5  100   -0.5  0     0     987.3    NA       0.0000   9999     0     0     0    
2019/06/05  12:52:00  BASE  3.05172  351  3.72204  348  -0.4  100   -0.4  0     0     987.3    NA       0.0000   9999     0     0     0    
2019/06/05  12:53:00  BASE  3.18696  353  3.69264  346  -0.4  100   -0.4  0     0     987.3    NA       0.0000   9999     0     0     0    
2019/06/05  12:54:00  BASE  3.27516  353  3.53976  349  -0.4  100   -0.4  0     0     987.3    NA       0.0000   9999     0     0     0    
2019/06/05  12:55:00  BASE  3.23988  350  3.48096  354  -0.4  100   -0.4  0     0     987.3    NA       0.0000   9999     0     0     0    
2019/06/05  12:56:00  BASE  3.26928  352  3.48096  354  -0.4  100   -0.4  0     0     987.3    NA       0.0000   9999     0     0     0    
2019/06/05  12:57:00  BASE  3.27516  351  3.48096  354  -0.4  100   -0.4  0     0     987.3    NA       0.0000   9999     0     0     0    
2019/06/05  12:58:00  BASE  3.29868  347  3.51036  347  -0.4  100   -0.4  0     0     987.3    NA       0.0000   9999     0     0     0    
2019/06/05  12:59:00  BASE  3.38688  344  3.69264  343  -0.4  100   -0.4  0     0     987.3    NA       0.0000   9999     0     0     0    
2019/06/05  13:00:00  BASE  3.49272  343  3.75144  344  -0.5  100   -0.5  0     0     987.3    NA       0.0000   9999     0     0     0    
2019/06/05  13:01:00  BASE  3.45156  343  3.75144  344  -0.4  100   -0.4  0     0     987.3    NA       0.0000   9999     0     0     0    
2019/06/05  13:02:00  BASE  3.29868  341  3.75144  344  -0.4  100   -0.4  0     0     987.3    NA       0.0000   9999     0     0     0    
2019/06/05  13:03:00  BASE  3.32808  340  3.75144  344  -0.5  100   -0.5  0     0     987.3    NA       0.0000   9999     0     0     0    
2019/06/05  13:04:00  BASE  3.48684  342  3.86904  339  -0.4  100   -0.4  0     0     987.3    NA       0.0000   9999     0     0     0    
2019/06/05  13:05:00  BASE  3.52212  344  3.86904  339  -0.5  100   -0.5  0     0     987.3    NA       0.0000   9999     0     0     0    
2019/06/05  13:06:00  BASE  3.54564  345  3.93372  349  -0.5  100   -0.5  0     0     987.3    NA       0.0000   9999     0     0     0    
2019/06/05  13:07:00  BASE  3.50448  346  3.93372  349  -0.5  100   -0.5  0     0     987.3    NA       0.0000   9999     0     0     0    
2019/06/05  13:08:00  BASE  3.37512  348  3.93372  349  -0.5  100   -0.5  0     0     987.3    NA       0.0000   9999     0     0     0    
2019/06/05  13:09:00  BASE  3.29868  348  3.93372  349  -0.4  100   -0.4  0     0     987.3    NA       0.0000   9999     0     0     0    
2019/06/05  13:10:00  BASE  3.25164  348  3.93372  349  -0.4  100   -0.4  0     0     987.3    NA       0.0000   9999     0     0     0    
2019/06/05  13:11:00  BASE  3.19284  350  3.93372  349  -0.5  100   -0.5  0     0     987.3    NA       0.0000   9999     0     0     0    
2019/06/05  13:12:00  BASE  3.21048  352  3.93372  349  -0.5  100   -0.5  0     0     987.3    NA       0.0000   9999     0     0     0    
2019/06/05  13:13:00  BASE  3.234    352  3.93372  349  -0.4  100   -0.4  0     0     987.2    NA       0.0000   9999     0     0     0    
2019/06/05  13:14:00  BASE  3.15168  353  3.93372  349  -0.5  100   -0.5  0     0     987.2    NA       0.0000   9999     0     0     0    
2019/06/05  13:15:00  BASE  3.21636  351  3.93372  349  -0.5  100   -0.5  0     0     987.3    NA       0.0000   9999     0     0     0    
2019/06/05  13:16:00  BASE  3.19284  355  3.69264  343  -0.4  100   -0.4  0     0     987.3    NA       0.0000   9999     0     0     0    
2019/06/05  13:17:00  BASE  3.18696  1    3.56916  347  -0.5  100   -0.5  0     0     987.3    NA       0.0000   9999     0     0     0    
2019/06/05  13:18:00  BASE  3.29868  1    3.53976  350  -0.5  100   -0.5  0     0     987.3    NA       0.0000   9999     0     0     0    
2019/06/05  13:19:00  BASE  3.38688  355  3.62796  354  -0.5  100   -0.5  0     0     987.3    NA       0.0000   9999     0     0     0    
2019/06/05  13:20:00  BASE  3.34572  353  3.62796  354  -0.5  100   -0.5  0     0     987.3    NA       0.0000   9999     0     0     0    
2019/06/05  13:21:00  BASE  3.36924  357  3.62796  354  -0.5  100   -0.5  0     0     987.2    NA       0.0000   9999     0     0     0    
2019/06/05  13:22:00  BASE  3.528    356  3.78084  354  -0.6  100   -0.6  0     0     987.2    NA       0.0000   9999     0     0     0    
2019/06/05  13:23:00  BASE  3.44568  356  3.78084  354  -0.6  100   -0.6  0     0     987.2    NA       0.0000   9999     0     0     0    
2019/06/05  13:24:00  BASE  3.31044  3    3.78084  354  -0.5  100   -0.5  0     0     987.2    NA       0.0000   9999     0     0     0    
2019/06/05  13:25:00  BASE  3.22224  8    3.78084  354  -0.5  100   -0.5  0     0     987.2    NA       0.0000   9999     0     0     0    
2019/06/05  13:26:00  BASE  3.12228  14   3.78084  354  -0.5  100   -0.5  0     0     987.2    NA       0.0000   9999     0     0     0    
2019/06/05  13:27:00  BASE  2.98116  18   3.78084  354  -0.6  100   -0.6  0     0     987.2    NA       0.0000   9999     0     0     0    
2019/06/05  13:28:00  BASE  3.03408  18   3.78084  354  -0.6  100   -0.6  0     0     987.2    NA       0.0000   9999     0     0     0    
2019/06/05  13:29:00  BASE  3.15756  18   3.78084  354  -0.6  100   -0.6  0     0     987.2    NA       0.0000   9999     0     0     0    
2019/06/05  13:30:00  BASE  2.96352  18   3.78084  354  -0.6  100   -0.6  0     0     987.2    NA       0.0000   9999     0     0     0    
2019/06/05  13:31:00  BASE  2.68128  20   3.78084  354  -0.6  100   -0.6  0     0     987.2    NA       0.0000   9999     0     0     0    
2019/06/05  13:32:00  BASE  2.66952  22   3.62796  3    -0.6  100   -0.6  1     0     987.2    NA       0.0000   9999     0     0     0    
2019/06/05  13:33:00  BASE  2.76948  24   3.62796  3    -0.7  100   -0.7  1     0     987.3    NA       0.0000   9999     0     0     0    
2019/06/05  13:34:00  BASE  2.81652  26   3.62796  3    -0.7  100   -0.7  1     0     987.3    NA       0.0000   9999     0     0     0    
2019/06/05  13:35:00  BASE  2.8518   29   3.48096  13   -0.8  100   -0.8  1     0     987.3    NA       0.0000   9999     0     0     0    
2019/06/05  13:36:00  BASE  2.74596  32   3.48096  13   -0.8  100   -0.8  1     0     987.3    NA       0.0000   9999     0     0     0    
2019/06/05  13:37:00  BASE  2.78712  31   3.48096  13   -0.8  100   -0.8  1     0     987.3    NA       0.0000   9999     0     0     0    
2019/06/05  13:38:00  BASE  2.8518   27   3.48096  13   -0.7  100   -0.7  1     0     987.2    NA       0.0000   9999     0     0     0    
2019/06/05  13:39:00  BASE  2.71068  25   3.1752   25   -0.7  100   -0.7  1     0     987.3    NA       0.0000   9999     0     0     0    
2019/06/05  13:40:00  BASE  2.66364  21   3.1752   25   -0.7  100   -0.7  1     0     987.3    NA       0.0000   9999     0     0     0    
2019/06/05  13:41:00  BASE  2.66364  19   3.1752   25   -0.6  100   -0.6  1     0     987.2    NA       0.0000   9999     0     0     0    
2019/06/05  13:42:00  BASE  2.56956  17   3.1752   25   -0.6  100   -0.6  1     0     987.3    NA       0.0000   9999     0     0     0    
2019/06/05  13:43:00  BASE  2.39316  11   3.1752   25   -0.6  100   -0.6  1     0     987.3    NA       0.0000   9999     0     0     0    
2019/06/05  13:44:00  BASE  2.25792  7    3.087    20   -0.7  100   -0.7  1     0     987.3    NA       0.0000   9999     0     0     0    
2019/06/05  13:45:00  BASE  2.26968  3    3.087    20   -0.7  100   -0.7  1     0     987.3    NA       0.0000   9999     1050  0     0    
2019/06/05  13:46:00  BASE  2.31672  2    3.087    20   -0.7  100   -0.7  1     0     987.3    NA       0.0000   9999     560   0     0    
2019/06/05  13:47:00  BASE  2.21676  356  2.93412  18   -0.7  100   -0.7  1     0     987.3    NA       0.0000   9999     460   0     0    
2019/06/05  13:48:00  BASE  1.9992   344  2.93412  18   -0.7  100   -0.7  1     0     987.3    NA       0.0000   9999     460   0     0    
2019/06/05  13:49:00  BASE  2.02272  331  2.93412  18   -0.7  100   -0.7  1     0     987.3    NA       0.0000   9999     460   0     0    
2019/06/05  13:50:00  BASE  2.07564  324  2.93412  18   -0.7  100   -0.7  1     0     987.3    NA       0.0000   9999     390   0     0    
2019/06/05  13:51:00  BASE  1.93452  331  2.87532  13   -0.6  100   -0.6  1     0     987.2    NA       0.0000   9999     330   0     0    
2019/06/05  13:52:00  BASE  1.9698   328  2.75184  354  -0.6  100   -0.6  1     0     987.2    NA       0.0000   9999     330   0     0    
2019/06/05  13:53:00  BASE  2.31672  321  3.1164   310  -0.6  100   -0.6  1     0     987.2    NA       0.0000   9999     300   0     0    
2019/06/05  13:54:00  BASE  2.60484  320  3.1164   310  -0.6  100   -0.6  1     0     987.2    NA       0.0000   9999     260   0     0    
2019/06/05  13:55:00  BASE  2.51664  319  3.1164   310  -0.6  100   -0.6  1     0     987.2    NA       0.0000   9999     330   0     0    
2019/06/05  13:56:00  BASE  2.7048   319  3.53976  318  -0.6  100   -0.6  1     0     987.1    NA       0.0000   9999     260   0     0    
2019/06/05  13:57:00  BASE  3.21048  323  3.96312  325  -0.7  100   -0.7  1     0     987.1    NA       0.0000   9999     300   0     0    
2019/06/05  13:58:00  BASE  3.65148  325  4.08072  320  -0.8  100   -0.8  1     0     987.1    NA       0.0000   9999     390   0     0    
2019/06/05  13:59:00  BASE  3.89256  326  4.08072  336  -0.8  100   -0.8  2     0     987.1    NA       0.0000   9999     360   0     0    
2019/06/05  14:00:00  BASE  3.93372  332  4.29828  336  -0.8  100   -0.8  2     0     987.2    NA       0.0000   9999     360   0     0    
2019/06/05  14:01:00  BASE  3.63384  333  4.29828  336  -0.7  100   -0.7  2     0     987.2    NA       0.0000   9999     300   0     0    
2019/06/05  14:02:00  BASE  3.28104  334  4.29828  336  -0.7  100   -0.7  2     0     987.2    NA       0.0000   9999     360   0     0    
2019/06/05  14:03:00  BASE  3.44568  336  4.29828  336  -0.7  100   -0.7  2     0     987.1    NA       0.0000   9999     330   0     0    
2019/06/05  14:04:00  BASE  3.59268  337  4.29828  336  -0.8  100   -0.8  2     0     987.1    NA       0.0000   9999     360   0     0    
2019/06/05  14:05:00  BASE  3.66912  341  4.29828  336  -0.8  100   -0.8  2     0     987.2    NA       0.0000   9999     390   0     0    
2019/06/05  14:06:00  BASE  3.62208  343  4.29828  336  -0.7  100   -0.7  2     0     987.1    NA       0.0000   9999     390   0     0    
2019/06/05  14:07:00  BASE  3.37512  345  4.29828  336  -0.7  100   -0.7  2     0     987.2    NA       0.0000   9999     360   0     0    
2019/06/05  14:08:00  BASE  3.08112  352  4.29828  336  -0.6  100   -0.6  2     0     987.2    NA       0.0000   9999     390   0     0    
2019/06/05  14:09:00  BASE  2.9988   359  4.29828  336  -0.6  100   -0.6  2     0     987.2    NA       0.0000   9999     390   0     0    
2019/06/05  14:10:00  BASE  3.05172  2    3.99252  343  -0.6  100   -0.6  2     0     987.1    NA       0.0000   9999     390   0     0    
2019/06/05  14:11:00  BASE  2.92824  2    3.99252  343  -0.6  100   -0.6  3     0     987.1    NA       0.0000   9999     430   0     0    
2019/06/05  14:12:00  BASE  2.77536  360  3.99252  343  -0.6  100   -0.6  3     0     987.0    NA       0.0000   9999     460   0     0    
2019/06/05  14:13:00  BASE  2.68128  357  3.99252  343  -0.6  100   -0.6  3     0     987.0    NA       0.0000   9999     430   0     0    
2019/06/05  14:14:00  BASE  2.87532  351  3.99252  343  -0.6  100   -0.6  3     0     987.0    NA       0.0000   9999     460   0     0    
2019/06/05  14:15:00  BASE  3.15168  349  3.99252  343  -0.5  100   -0.5  3     0     987.0    NA       0.0000   9999     520   0     0    
2019/06/05  14:16:00  BASE  3.08112  350  3.69264  341  -0.5  100   -0.5  3     0     987.0    NA       0.0000   9999     430   0     0    
2019/06/05  14:17:00  BASE  3.087    349  3.48096  352  -0.5  100   -0.5  3     0     987.0    NA       0.0000   9999     390   0     0    
2019/06/05  14:18:00  BASE  3.18108  349  3.53976  339  -0.4  100   -0.4  3     0     987.0    NA       0.0000   9999     430   0     0    
2019/06/05  14:19:00  BASE  3.24576  345  3.62796  337  -0.4  100   -0.4  3     0     987.0    NA       0.0000   9999     430   0     0    
2019/06/05  14:20:00  BASE  3.11052  342  3.62796  337  -0.4  100   -0.4  3     0     987.1    NA       0.0000   9999     460   0     0    
2019/06/05  14:21:00  BASE  2.6754   349  3.62796  337  -0.4  100   -0.4  3     0     987.0    NA       0.0000   9999     430   0     0    
2019/06/05  14:22:00  BASE  2.42844  355  3.62796  337  -0.5  100   -0.5  3     0     987.0    NA       0.0000   9999     460   0     0    
2019/06/05  14:23:00  BASE  2.38728  355  3.62796  337  -0.5  100   -0.5  3     0     987.1    NA       0.0000   9999     490   0     0    
2019/06/05  14:24:00  BASE  2.51664  348  3.62796  337  -0.5  100   -0.5  4     0     987.0    NA       0.0000   9999     460   0     0    
2019/06/05  14:25:00  BASE  2.66952  341  3.62796  337  -0.5  100   -0.5  3     0     987.0    NA       0.0000   9999     430   0     0    
2019/06/05  14:26:00  BASE  2.646    347  3.62796  337  -0.5  100   -0.5  4     0     986.9    NA       0.0000   9999     430   0     0    
2019/06/05  14:27:00  BASE  2.56956  352  3.62796  337  -0.4  100   -0.4  4     0     987.0    NA       0.0000   9999     460   0     0    
2019/06/05  14:28:00  BASE  2.82828  351  3.62796  337  -0.4  100   -0.4  4     0     987.0    NA       0.0000   9999     430   0     0    
2019/06/05  14:29:00  BASE  2.76948  350  3.35748  341  -0.4  100   -0.4  4     0     987.0    NA       0.0000   9999     490   0     0    
2019/06/05  14:30:00  BASE  2.1462   350  3.35748  341  -0.4  100   -0.4  4     0     987.0    NA       0.0000   9999     460   0     0    
2019/06/05  14:31:00  BASE  1.8228   347  3.35748  341  -0.4  100   -0.4  4     0     987.0    NA       0.0000   9999     490   0     0    
2019/06/05  14:32:00  BASE  1.81692  354  3.35748  341  -0.3  100   -0.3  4     0     987.0    NA       0.0000   9999     490   0     0    
2019/06/05  14:33:00  BASE  2.06976  4    3.35748  341  -0.3  100   -0.3  4     0     987.0    NA       0.0000   9999     520   0     0    
2019/06/05  14:34:00  BASE  2.32848  359  3.35748  341  -0.4  100   -0.4  4     0     986.9    NA       0.0000   9999     490   0     0    
2019/06/05  14:35:00  BASE  2.22264  347  3.35748  341  -0.4  100   -0.4  4     0     986.9    NA       0.0000   9999     360   0     0    
2019/06/05  14:36:00  BASE  1.74048  341  3.35748  341  -0.3  100   -0.3  4     0     987.0    NA       0.0000   9999     300   0     0    
2019/06/05  14:37:00  BASE  1.2054   357  3.35748  341  -0.3  100   -0.3  4     0     987.0    NA       0.0000   9999     360   0     0    
2019/06/05  14:38:00  BASE  1.17012  19   2.75184  336  -0.3  100   -0.3  5     0     986.9    NA       0.0000   9999     460   0     0    
2019/06/05  14:39:00  BASE  1.2936   22   2.75184  336  -0.3  100   -0.3  5     0     986.8    NA       0.0000   9999     490   0     0    
2019/06/05  14:40:00  BASE  1.42296  6    2.75184  336  -0.3  100   -0.3  5     0     986.8    NA       0.0000   9999     460   0     0    
2019/06/05  14:41:00  BASE  1.94628  2    2.93412  70   -0.3  100   -0.3  5     0     986.8    NA       0.0000   9999     390   0     0    
2019/06/05  14:42:00  BASE  2.5872   8    3.26928  14   -0.3  100   -0.3  5     0     986.8    NA       0.0000   9999     430   0     0    
2019/06/05  14:43:00  BASE  2.92236  6    3.26928  14   -0.3  100   -0.3  5     0     986.8    NA       0.0000   9999     430   0     0    
2019/06/05  14:44:00  BASE  2.78124  7    3.26928  14   -0.3  100   -0.3  5     0     986.8    NA       0.0000   9999     390   0     0    
2019/06/05  14:45:00  BASE  2.66952  4    3.26928  14   -0.3  100   -0.3  5     0     986.8    NA       0.0000   9999     330   0     0    
2019/06/05  14:46:00  BASE  2.8812   4    3.26928  14   -0.4  100   -0.4  5     0     986.8    NA       0.0000   9999     330   0     0    
2019/06/05  14:47:00  BASE  3.13992  10   3.65736  23   -0.4  100   -0.4  5     0     986.8    NA       0.0000   9999     300   0     0    
2019/06/05  14:48:00  BASE  3.48096  16   3.96312  16   -0.4  100   -0.4  5     0     986.8    NA       0.0000   9999     330   0     0    
2019/06/05  14:49:00  BASE  3.49272  20   3.96312  16   -0.5  100   -0.5  6     0     986.8    NA       0.0000   9999     330   0     0    
2019/06/05  14:50:00  BASE  3.09288  22   3.96312  16   -0.5  100   -0.5  6     0     986.8    NA       0.0000   9999     330   0     0    
2019/06/05  14:51:00  BASE  2.7048   25   3.96312  16   -0.5  100   -0.5  6     0     986.8    NA       0.0000   9999     300   0     0    
2019/06/05  14:52:00  BASE  2.45784  30   3.96312  16   -0.5  100   -0.5  7     0     986.8    NA       0.0000   9999     260   0     0    
2019/06/05  14:53:00  BASE  2.51076  34   3.96312  16   -0.5  100   -0.5  7     0     986.8    NA       0.0000   9999     330   0     0    
2019/06/05  14:54:00  BASE  2.56368  35   3.96312  16   -0.5  100   -0.5  7     0     986.8    NA       0.0000   9999     330   0     0    
2019/06/05  14:55:00  BASE  2.45196  33   3.96312  16   -0.5  100   -0.5  7     0     986.8    NA       0.0000   9999     260   0     0    
2019/06/05  14:56:00  BASE  2.34612  30   3.96312  16   -0.5  100   -0.5  7     0     986.8    NA       0.0000   9999     260   0     0    
2019/06/05  14:57:00  BASE  2.50488  28   3.96312  16   -0.5  100   -0.5  7     0     986.7    NA       0.0000   9999     260   0     0    
2019/06/05  14:58:00  BASE  2.81652  28   3.51036  17   -0.5  100   -0.5  8     0     986.7    NA       0.0000   9999     230   0     0    
2019/06/05  14:59:00  BASE  2.96352  27   3.53976  19   -0.5  100   -0.5  8     0     986.7    NA       0.0000   9999     230   0     0    
2019/06/05  15:00:00  BASE  2.97528  23   3.53976  19   -0.5  100   -0.5  8     0     986.7    NA       0.0000   9999     230   0     0    
2019/06/05  15:01:00  BASE  2.7048   20   3.53976  19   -0.5  100   -0.5  9     0     986.7    NA       0.0000   9999     260   0     0    
2019/06/05  15:02:00  BASE  2.42844  21   3.53976  19   -0.4  100   -0.4  9     0     986.6    NA       0.0000   9999     0     0     0    
2019/06/05  15:03:00  BASE  2.47548  23   3.53976  19   -0.4  100   -0.4  9     0     986.6    NA       0.0000   9999     0     0     0    
2019/06/05  15:04:00  BASE  2.4402   22   3.53976  19   -0.4  100   -0.4  9     0     986.6    NA       0.0000   9999     0     0     0    
2019/06/05  15:05:00  BASE  1.94628  23   3.53976  19   -0.4  100   -0.4  9     0     986.6    NA       0.0000   9999     0     0     0    
2019/06/05  15:06:00  BASE  1.5876   32   3.53976  19   -0.4  100   -0.4  9     0     986.6    NA       0.0000   9999     0     0     0    
2019/06/05  15:07:00  BASE  1.2936   39   3.53976  19   -0.4  100   -0.4  9     0     986.6    NA       0.0000   9999     0     0     0    
2019/06/05  15:08:00  BASE  0.89964  45   3.53976  19   -0.4  100   -0.4  9     0     986.6    NA       0.0000   9999     0     0     0    
2019/06/05  15:09:00  BASE  1.01136  36   3.234    18   -0.4  100   -0.4  9     0     986.6    NA       0.0000   9999     0     0     0    
2019/06/05  15:10:00  BASE  1.29948  23   2.96352  27   -0.4  100   -0.4  9     0     986.6    NA       0.0000   9999     0     0     0    
2019/06/05  15:11:00  BASE  1.43472  29   2.96352  27   -0.4  100   -0.4  10    0     986.6    NA       0.0000   9999     0     0     0    
2019/06/05  15:12:00  BASE  1.56996  30   2.96352  27   -0.4  100   -0.4  10    0     986.6    NA       0.0000   9999     0     0     0    
2019/06/05  15:13:00  BASE  1.60524  30   2.56956  24   -0.4  100   -0.4  10    0     986.6    NA       0.0000   9999     0     0     0    
2019/06/05  15:14:00  BASE  1.42884  33   1.87572  33   -0.4  100   -0.4  10    0     986.6    NA       0.0000   9999     0     0     0    
2019/06/05  15:15:00  BASE  1.24656  31   1.84632  32   -0.5  100   -0.5  10    0     986.6    NA       0.0000   9999     0     0     0    
2019/06/05  15:16:00  BASE  1.57584  30   2.21088  33   -0.6  100   -0.6  9     0     986.6    NA       0.0000   9999     0     0     0    
2019/06/05  15:17:00  BASE  2.33436  38   2.93412  43   -0.6  100   -0.6  10    0     986.6    NA       0.0000   9999     0     0     0    
2019/06/05  15:18:00  BASE  2.78712  44   2.99292  43   -0.7  100   -0.7  10    0     986.6    NA       0.0000   9999     0     0     0    
2019/06/05  15:19:00  BASE  2.6166   45   2.99292  43   -0.7  100   -0.7  10    0     986.6    NA       0.0000   9999     0     0     0    
2019/06/05  15:20:00  BASE  2.15796  45   2.99292  43   -0.8  100   -0.8  10    0     986.5    NA       0.0000   9999     0     0     0    
2019/06/05  15:21:00  BASE  2.01096  42   2.99292  43   -0.8  100   -0.8  10    0     986.5    NA       0.0000   9999     0     0     0    
2019/06/05  15:22:00  BASE  2.25204  40   2.99292  43   -0.9  100   -0.9  10    0     986.5    NA       0.0000   9999     0     0     0    
2019/06/05  15:23:00  BASE  2.34024  43   2.99292  43   -0.9  100   -0.9  11    0     986.5    NA       0.0000   9999     0     0     0    
2019/06/05  15:24:00  BASE  2.0874   45   2.99292  43   -0.9  100   -0.9  11    0     986.5    NA       0.0000   9999     0     0     0    
2019/06/05  15:25:00  BASE  1.71108  44   2.99292  43   -0.9  100   -0.9  11    0     986.5    NA       0.0000   9999     0     0     0    
2019/06/05  15:26:00  BASE  1.52292  46   2.99292  43   -0.8  100   -0.8  12    0     986.5    NA       0.0000   9999     0     0     0    
2019/06/05  15:27:00  BASE  1.45236  45   2.99292  43   -0.8  100   -0.8  12    0     986.5    NA       0.0000   9999     0     0     0    
2019/06/05  15:28:00  BASE  1.27008  40   2.81064  38   -0.7  100   -0.7  12    0     986.5    NA       0.0000   9999     0     0     0    
2019/06/05  15:29:00  BASE  0.92904  41   2.54016  39   -0.7  100   -0.7  12    0     986.6    NA       0.0000   9999     0     0     0    
2019/06/05  15:30:00  BASE  0.64092  34   2.54016  39   -0.6  100   -0.6  12    0     986.5    NA       0.0000   9000     0     0     0    
2019/06/05  15:31:00  BASE  0.28224  25   2.54016  39   -0.6  100   -0.6  13    0     986.5    NA       0.0000   4900     0     0     0    
2019/06/05  15:32:00  BASE  0        33   2.51076  41   -0.5  100   -0.5  13    0     986.5    NA       0.0000   BR       2800  0     0    
2019/06/05  15:33:00  BASE  0        71   2.1462   47   -0.5  100   -0.5  14    0     986.5    NA       0.0000   BR       2700  0     0    
2019/06/05  15:34:00  BASE  0        96   1.81692  44   -0.5  100   -0.5  14    0     986.5    NA       0.0000   BR       3500  0     0    
2019/06/05  15:35:00  BASE  0        90   1.81692  44   -0.5  100   -0.5  14    0     986.5    NA       0.0000   BR       2900  0     0    
2019/06/05  15:36:00  BASE  0        70   1.51116  47   -0.5  100   -0.5  14    0     986.5    NA       0.0000   BR       2000  0     0    
2019/06/05  15:37:00  BASE  0        38   1.32888  37   -0.5  100   -0.5  14    0     986.5    NA       0.0000   BR       1800  0     0    
2019/06/05  15:38:01  BASE  0        11   0.90552  33   -0.5  100   -0.5  14    0     986.5    NA       0.0000   BR       1700  0     0    
2019/06/05  15:39:01  BASE  0        3    0.90552  33   -0.5  100   -0.5  14    0     986.5    NA       0.0000   BR       1700  0     0    
2019/06/05  15:40:01  BASE  0        3    0        M    -0.5  100   -0.5  14    0     986.5    NA       0.0000   BR       1800  0     0    
2019/06/05  15:41:01  BASE  0        3    0        M    -0.5  100   -0.5  14    0     986.5    NA       0.0000   BR       2200  0     0    
2019/06/05  15:42:01  BASE  0        3    0        M    -0.5  100   -0.5  14    0     986.5    NA       0.0000   BR       2200  0     0    
2019/06/05  15:43:01  BASE  0        3    0        M    -0.5  100   -0.5  14    0     986.4    NA       0.0000   BR       1400  0     0    
2019/06/05  15:44:01  BASE  0        3    0        M    -0.6  100   -0.6  14    0     986.4    NA       0.0000   BR       1000  0     0    
2019/06/05  15:45:01  BASE  0        3    0        M    -0.6  100   -0.6  14    0     986.4    NA       0.0000   BR       1000  0     0    
2019/06/05  15:46:01  BASE  0        6    0        M    -0.6  100   -0.6  14    0     986.4    NA       0.0000   BR       0900  0     0    
2019/06/05  15:47:01  BASE  0.07644  29   0.63504  35   -0.6  100   -0.6  14    0     986.3    NA       0.0000   BR       0650  0     0    
2019/06/05  15:48:01  BASE  0.41748  45   0.84672  44   -0.6  100   -0.6  14    0     986.3    NA       0.0000   BR       0550  0     0    
2019/06/05  15:49:01  BASE  0.69384  45   0.90552  57   -0.7  100   -0.7  14    0     986.3    NA       0.0000   BR       0550  0     0    
2019/06/05  15:50:01  BASE  1.03488  57   1.54056  73   -0.7  100   -0.7  14    0     986.3    NA       0.0000   FZFG     0550  0     0    
2019/06/05  15:51:01  BASE  1.33476  65   1.54056  73   -0.8  100   -0.8  14    0     986.3    NA       0.0000   FZFG     0700  0     0    
2019/06/05  15:52:01  BASE  1.16424  62   1.54056  73   -0.8  100   -0.8  15    0     986.3    NA       0.0000   FZFG     0900  0     0    
2019/06/05  15:53:01  BASE  0.81732  61   1.54056  73   -0.9  100   -0.9  15    0     986.3    NA       0.0000   FZFG     1400  0     0    
2019/06/05  15:54:01  BASE  0.31164  54   1.54056  73   -0.9  100   -0.9  15    0     986.3    NA       0.0000   FZFG     1200  0     0    
2019/06/05  15:55:01  BASE  0        54   1.54056  73   -0.9  100   -0.9  15    0     986.2    NA       0.0000   FZFG     0800  0     0    
2019/06/05  15:56:01  BASE  0        57   1.54056  73   -0.9  100   -0.9  15    0     986.2    NA       0.0000   FZFG     0700  0     0    
2019/06/05  15:57:01  BASE  0        52   1.54056  73   -0.9  100   -0.9  15    0     986.2    NA       0.0000   FZFG     0500  0     0    
2019/06/05  15:58:01  BASE  0.18228  47   1.54056  73   -0.9  100   -0.9  15    0     986.2    NA       0.0000   FZFG     0450  0     0    
2019/06/05  15:59:01  BASE  0.44688  47   1.54056  73   -0.9  100   -0.9  15    0     986.1    NA       0.0000   FZFG     0500  0     0    
2019/06/05  16:00:01  BASE  0.2646   55   1.42296  71   -0.9  100   -0.9  16    0     986.2    NA       0.0000   FZFG     0500  0     0    
2019/06/05  16:01:01  BASE  0        74   1.24068  61   -1.0  100   -1.0  16    0     986.1    NA       0.0000   FZFG     0450  0     0    
2019/06/05  16:02:01  BASE  0.4116   109  1.27008  145  -1.0  100   -1.0  16    0     986.2    NA       0.0000   FZFG     0450  0     0    
2019/06/05  16:03:01  BASE  1.16424  141  1.60524  155  -1.1  100   -1.1  15    0     986.0    NA       0.0000   FZFG     0550  0     0    
2019/06/05  16:04:01  BASE  1.4994   159  1.93452  161  -1.1  100   -1.1  15    0     986.0    NA       0.0000   FZFG     0750  0     0    
2019/06/05  16:05:01  BASE  1.76988  164  2.35788  166  -1.2  100   -1.2  16    0     986.0    NA       0.0000   FZFG     0800  0     0    
2019/06/05  16:06:01  BASE  2.15208  161  2.56956  154  -1.2  100   -1.2  16    0     986.0    NA       0.0000   FZFG     1800  0     0    
2019/06/05  16:07:01  BASE  2.21088  150  2.56956  154  -1.3  100   -1.3  16    0     986.0    NA       0.0000   FZFG     4000  160   0    
2019/06/05  16:08:01  BASE  2.25792  143  2.59896  137  -1.4  100   -1.4  16    0     986.0    NA       0.0000   FZFG     7000  0     0    
2019/06/05  16:09:01  BASE  2.34024  146  2.59896  137  -1.4  100   -1.4  15    0     986.0    NA       0.0000   FZFG     2200  0     0    
2019/06/05  16:10:01  BASE  2.41668  144  2.84592  146  -1.4  100   -1.4  16    0     986.0    NA       0.0000   BR       0800  0     0    
2019/06/05  16:11:01  BASE  2.86356  142  3.53976  144  -1.4  100   -1.4  16    0     986.0    NA       0.0000   BR       0450  0     0    
2019/06/05  16:12:01  BASE  3.34572  146  3.62796  150  -1.4  100   -1.4  16    0     986.0    NA       0.0000   FZFG     0350  0     0    
2019/06/05  16:13:01  BASE  3.36924  148  3.62796  150  -1.4  100   -1.4  15    0     986.0    NA       0.0000   FZFG     0300  0     0    
2019/06/05  16:14:01  BASE  3.31044  150  3.62796  150  -1.4  100   -1.4  15    0     986.0    NA       0.0000   FZFG     0300  0     0    
2019/06/05  16:15:01  BASE  3.2928   149  3.62796  150  -1.4  100   -1.4  15    0     985.9    NA       0.0000   FZFG     0350  0     0    
2019/06/05  16:16:01  BASE  3.13404  149  3.62796  150  -1.4  100   -1.4  15    0     985.9    NA       0.0000   FZFG     0400  0     0    
2019/06/05  16:17:00  BASE  3.05172  151  3.62796  150  -1.4  100   -1.4  15    0     985.9    NA       0.0000   FZFG     0350  0     0    
2019/06/05  16:18:00  BASE  3.12228  146  3.62796  150  -1.4  100   -1.4  15    0     985.8    NA       0.0000   FZFG     0250  0     0    
2019/06/05  16:19:00  BASE  3.25164  147  3.62796  150  -1.4  100   -1.4  15    0     985.9    NA       0.0000   FZFG     0200  0     0    
2019/06/05  16:20:00  BASE  3.33396  153  3.62796  150  -1.5  100   -1.5  15    0     985.8    NA       0.0000   FZFG     0250  0     0    
2019/06/05  16:21:00  BASE  3.27516  155  3.62796  150  -1.4  100   -1.4  15    0     985.8    NA       0.0000   FZFG     0200  0     0    
2019/06/05  16:22:01  BASE  3.0282   150  3.56916  157  -1.4  100   -1.4  15    0     985.8    NA       0.0000   FZFG     0200  0     0    
2019/06/05  16:23:00  BASE  2.86356  145  3.56916  157  -1.4  100   -1.4  15    0     985.8    NA       0.0000   FZFG     0200  0     0    
2019/06/05  16:24:00  BASE  2.79888  144  3.56916  157  -1.4  100   -1.4  15    0     985.8    NA       0.0000   FZFG     0200  0     0    
2019/06/05  16:25:01  BASE  2.54604  144  3.56916  157  -1.4  100   -1.4  15    0     985.8    NA       0.0000   FZFG     0250  0     0    
2019/06/05  16:26:00  BASE  2.3226   147  3.56916  157  -1.4  100   -1.4  15    0     985.8    NA       0.0000   FZFG     0300  0     0    
2019/06/05  16:27:00  BASE  2.36964  150  3.56916  157  -1.5  100   -1.5  15    0     985.8    NA       0.0000   FZFG     0300  0     0    
2019/06/05  16:28:00  BASE  2.39904  143  3.56916  157  -1.5  100   -1.5  16    0     985.8    NA       0.0000   FZFG     0450  0     0    
2019/06/05  16:29:00  BASE  2.54604  137  3.56916  157  -1.5  100   -1.5  16    0     985.7    NA       0.0000   FZFG     0900  1120  0    
2019/06/05  16:30:00  BASE  2.85768  140  3.41628  155  -1.6  100   -1.6  16    0     985.7    NA       0.0000   FZFG     4400  1020  0    
2019/06/05  16:31:00  BASE  2.97528  141  3.38688  139  -1.6  100   -1.6  16    0     985.6    NA       0.0000   FZFG     9999  980   0    
2019/06/05  16:32:00  BASE  3.02232  141  3.38688  139  -1.6  100   -1.6  16    0     985.6    NA       0.0000   FZFG     9999  980   0    
2019/06/05  16:33:00  BASE  3.13404  141  3.44568  142  -1.6  100   -1.6  16    0     985.6    NA       0.0000   FZFG     9999  980   0    
2019/06/05  16:34:00  BASE  3.28104  137  4.05132  134  -1.6  100   -1.6  15    0     985.6    NA       0.0000   FZFG     9999  950   0    
2019/06/05  16:35:00  BASE  3.56916  134  4.29828  136  -1.5  100   -1.5  15    0     985.6    NA       0.0000   BR       9999  1020  0    
2019/06/05  16:36:00  BASE  3.8808   134  4.29828  136  -1.5  100   -1.5  15    0     985.5    NA       0.0000   BR       9999  1020  0    
2019/06/05  16:37:00  BASE  3.9984   136  4.29828  136  -1.5  100   -1.5  15    0     985.4    NA       0.0000   BR       9999  950   0    
2019/06/05  16:38:00  BASE  3.86904  137  4.38648  136  -1.5  100   -1.5  15    0     985.4    NA       0.0000   BR       9999  890   0    
2019/06/05  16:39:00  BASE  3.969    137  4.53936  135  -1.5  100   -1.5  15    0     985.4    NA       0.0000   9999     1020  0     0    
2019/06/05  16:40:00  BASE  4.33356  137  4.75104  135  -1.5  100   -1.5  14    0     985.4    NA       0.0000   9999     1020  0     0    
2019/06/05  16:41:00  BASE  4.42764  135  4.75104  135  -1.5  100   -1.5  14    0     985.4    NA       0.0000   9999     1020  0     0    
2019/06/05  16:42:00  BASE  4.41588  133  4.75104  136  -1.5  100   -1.5  13    0     985.4    NA       0.0000   9999     890   0     0    
2019/06/05  16:43:00  BASE  4.53936  133  4.80984  134  -1.5  100   -1.5  13    0     985.4    NA       0.0000   9999     850   0     0    
2019/06/05  16:44:00  BASE  4.6158   134  4.86864  130  -1.4  100   -1.4  13    0     985.4    NA       0.0000   9999     850   0     0    
2019/06/05  16:45:00  BASE  4.56876  133  4.99212  132  -1.4  100   -1.4  13    0     985.4    NA       0.0000   9999     820   0     0    
2019/06/05  16:46:00  BASE  4.6158   132  5.2626   129  -1.4  100   -1.4  13    0     985.4    NA       0.0000   9999     790   0     0    
2019/06/05  16:47:00  BASE  4.5276   130  5.2626   129  -1.3  100   -1.3  12    0     985.4    NA       0.0000   9999     820   0     0    
2019/06/05  16:48:00  BASE  4.28652  129  5.2626   129  -1.3  100   -1.3  12    0     985.4    NA       0.0000   9999     820   0     0    
2019/06/05  16:49:01  BASE  4.42764  129  5.2626   129  -1.3  100   -1.3  12    0     985.4    NA       0.0000   9999     850   0     0    
2019/06/05  16:50:00  BASE  4.59228  128  5.2626   129  -1.3  100   -1.3  12    0     985.4    NA       0.0000   9999     850   0     0    
2019/06/05  16:51:00  BASE  4.59228  128  5.2626   129  -1.2  100   -1.2  12    0     985.4    NA       0.0000   9999     920   0     0    
2019/06/05  16:52:00  BASE  4.49232  127  5.2626   129  -1.2  100   -1.2  12    0     985.3    NA       0.0000   9999     820   0     0    
2019/06/05  16:53:00  BASE  4.50408  125  5.2626   129  -1.1  100   -1.1  12    0     985.3    NA       0.0000   9999     750   0     0    
2019/06/05  16:54:00  BASE  4.68636  121  5.2626   129  -1.1  100   -1.1  11    0     985.3    NA       0.0000   9999     790   0     0    
2019/06/05  16:55:00  BASE  4.7922   119  5.2626   129  -1.0  100   -1.0  11    0     985.2    NA       0.0000   9999     790   0     0    
2019/06/05  16:56:00  BASE  4.7334   120  5.08032  124  -1.0  100   -1.0  11    0     985.1    NA       0.0000   9999     750   0     0    
2019/06/05  16:57:01  BASE  4.60404  121  5.08032  124  -0.9  100   -0.9  11    0     985.1    NA       0.0000   9999     720   0     0    
2019/06/05  16:58:01  BASE  4.46292  120  5.08032  124  -0.9  100   -0.9  11    0     985.2    NA       0.0000   9999     750   0     0    
2019/06/05  16:59:01  BASE  4.2336   121  5.08032  124  -0.8  100   -0.8  10    0     985.2    NA       0.0000   9999     720   0     0    
2019/06/05  17:00:00  BASE  4.23948  122  5.08032  124  -0.8  100   -0.8  10    0     985.2    NA       0.0000   9999     720   0     0    
2019/06/05  17:01:00  BASE  4.13952  120  5.08032  124  -0.7  100   -0.7  10    0     985.2    NA       0.0000   9999     720   0     0    
2019/06/05  17:02:00  BASE  3.822    118  5.08032  124  -0.7  100   -0.7  10    0     985.2    NA       0.0000   9999     690   0     0    
2019/06/05  17:03:00  BASE  3.7632   122  5.08032  124  -0.7  100   -0.7  10    0     985.2    NA       0.0000   9999     790   0     0    
2019/06/05  17:04:00  BASE  3.8514   125  5.08032  124  -0.7  100   -0.7  10    0     985.2    NA       0.0000   9999     750   0     0    
2019/06/05  17:05:00  BASE  3.8808   121  4.93332  121  -0.7  100   -0.7  10    0     985.1    NA       0.0000   9999     720   0     0    
2019/06/05  17:06:00  BASE  3.78084  119  4.86864  124  -0.7  100   -0.7  11    0     985.1    NA       0.0000   9999     720   0     0    
2019/06/05  17:07:00  BASE  3.7632   119  4.50996  121  -0.7  100   -0.7  11    0     985.1    NA       0.0000   9999     750   0     0    
2019/06/05  17:08:00  BASE  3.86904  117  4.50996  121  -0.7  100   -0.7  11    0     985.1    NA       0.0000   9999     790   0     0    
2019/06/05  17:09:00  BASE  3.93372  116  4.50996  121  -0.6  100   -0.6  11    0     985.1    NA       0.0000   9999     820   0     0    
2019/06/05  17:10:00  BASE  3.90432  113  4.29828  122  -0.6  100   -0.6  11    0     985.1    NA       0.0000   9999     820   0     0    
2019/06/05  17:11:00  BASE  3.675    110  4.29828  122  -0.7  100   -0.7  11    0     985.1    NA       0.0000   9999     820   0     0    
2019/06/05  17:12:00  BASE  3.381    111  4.29828  122  -0.7  100   -0.7  11    0     985.1    NA       0.0000   9999     820   0     0    
2019/06/05  17:13:00  BASE  3.35748  108  4.2042   118  -0.8  100   -0.8  11    0     985.1    NA       0.0000   9999     790   0     0    
2019/06/05  17:14:00  BASE  3.49272  103  4.2042   118  -0.9  100   -0.9  11    0     985.1    NA       0.0000   9999     820   0     0    
2019/06/05  17:15:00  BASE  3.528    103  4.2042   118  -1.0  100   -1.0  10    0     985.1    NA       0.0000   9999     790   0     0    
2019/06/05  17:16:00  BASE  3.38688  104  4.2042   118  -1.0  100   -1.0  10    0     985.1    NA       0.0000   9999     790   0     0    
2019/06/05  17:17:00  BASE  3.33984  103  4.2042   118  -1.0  100   -1.0  10    0     985.1    NA       0.0000   9999     820   0     0    
2019/06/05  17:18:00  BASE  3.26928  106  4.116    115  -1.0  100   -1.0  10    0     985.1    NA       0.0000   9999     790   0     0    
2019/06/05  17:19:00  BASE  2.99292  110  3.99252  112  -0.9  100   -0.9  10    0     985.1    NA       0.0000   9999     790   0     0    
2019/06/05  17:20:00  BASE  2.78712  109  3.81024  105  -0.9  100   -0.9  11    0     985.0    NA       0.0000   9999     790   0     0    
2019/06/05  17:21:00  BASE  2.7342   106  3.81024  105  -0.9  100   -0.9  11    0     984.9    NA       0.0000   9999     790   0     0    
2019/06/05  17:22:00  BASE  2.81652  105  3.81024  105  -0.9  100   -0.9  11    0     984.9    NA       0.0000   9999     750   0     0    
2019/06/05  17:23:00  BASE  2.85768  108  3.81024  105  -0.9  100   -0.9  11    0     984.9    NA       0.0000   9999     750   0     0    
2019/06/05  17:24:00  BASE  2.9694   115  3.72204  105  -0.9  100   -0.9  11    0     984.9    NA       0.0000   9999     790   0     0    
2019/06/05  17:25:00  BASE  2.9106   113  3.62796  109  -0.9  100   -0.9  11    0     984.9    NA       0.0000   9999     750   0     0    
2019/06/05  17:26:00  BASE  2.89884  109  3.62796  109  -0.8  100   -0.8  11    0     984.8    NA       0.0000   9999     0     0     0    
2019/06/05  17:27:00  BASE  2.8812   113  3.48096  125  -0.8  100   -0.8  11    0     984.8    NA       0.0000   9999     0     0     0    
2019/06/05  17:28:00  BASE  2.78124  115  3.48096  125  -0.8  100   -0.8  10    0     984.8    NA       0.0000   9999     790   0     0    
2019/06/05  17:29:00  BASE  2.92824  119  3.48096  125  -0.9  100   -0.9  10    0     984.8    NA       0.0000   9999     0     0     0    
2019/06/05  17:30:00  BASE  2.95176  123  3.48096  125  -0.9  100   -0.9  10    0     984.8    NA       0.0000   9999     0     0     0    
2019/06/05  17:31:00  BASE  2.78712  122  3.48096  125  -0.9  100   -0.9  10    0     984.8    NA       0.0000   9999     0     0     0    
2019/06/05  17:32:00  BASE  2.84004  122  3.48096  125  -0.9  100   -0.9  9     0     984.8    NA       0.0000   9999     0     0     0    
2019/06/05  17:33:00  BASE  2.85768  132  3.48096  125  -0.8  100   -0.8  9     0     984.8    NA       0.0000   9999     0     0     0    
2019/06/05  17:34:00  BASE  2.63424  129  3.35748  129  -0.7  100   -0.7  9     0     984.7    NA       0.0000   9999     0     0     0    
2019/06/05  17:35:00  BASE  2.64012  124  3.35748  129  -0.6  100   -0.6  9     0     984.7    NA       0.0000   9999     0     0     0    
2019/06/05  17:36:00  BASE  2.77536  130  3.35748  129  -0.5  100   -0.5  8     0     984.7    NA       0.0000   9999     0     0     0    
2019/06/05  17:37:00  BASE  2.74596  133  3.35748  129  -0.3  100   -0.3  8     0     984.7    NA       0.0000   9999     0     0     0    
2019/06/05  17:38:00  BASE  2.59896  129  3.35748  129  -0.3  100   -0.3  8     0     984.6    NA       0.0000   9999     0     0     0    
2019/06/05  17:39:00  BASE  2.62836  131  3.35748  129  -0.3  100   -0.3  8     0     984.6    NA       0.0000   9999     0     0     0    
2019/06/05  17:40:00  BASE  2.56956  137  3.29868  128  -0.3  100   -0.3  7     0     984.6    NA       0.0000   9999     0     0     0    
2019/06/05  17:41:00  BASE  2.45196  133  3.29868  128  -0.3  100   -0.3  7     0     984.6    NA       0.0000   9999     0     0     0    
2019/06/05  17:42:00  BASE  2.48136  129  3.1752   129  -0.3  100   -0.3  7     0     984.5    NA       0.0000   9999     0     0     0    
2019/06/05  17:43:00  BASE  2.28144  125  3.02232  135  -0.4  100   -0.4  7     0     984.5    NA       0.0000   9999     0     0     0    
2019/06/05  17:44:00  BASE  1.99332  124  3.02232  135  -0.4  100   -0.4  7     0     984.4    NA       0.0000   9999     0     0     0    
2019/06/05  17:45:00  BASE  1.84632  122  3.02232  135  -0.4  100   -0.4  6     0     984.3    NA       0.0000   9999     0     0     0    
2019/06/05  17:46:00  BASE  1.90512  120  3.02232  135  -0.5  100   -0.5  6     0     984.3    NA       0.0000   9999     0     0     0    
2019/06/05  17:47:00  BASE  1.5876   120  3.02232  135  -0.5  100   -0.5  6     0     984.3    NA       0.0000   9999     0     0     0    
2019/06/05  17:48:00  BASE  1.12308  120  3.02232  135  -0.5  100   -0.6  6     0     984.4    NA       0.0000   9999     0     0     0    
2019/06/05  17:49:00  BASE  1.15248  116  2.90472  125  -0.6  100   -0.6  6     0     984.4    NA       0.0000   9999     0     0     0    
2019/06/05  17:50:00  BASE  1.05252  104  2.90472  125  -0.6  100   -0.6  6     0     984.3    NA       0.0000   9999     0     0     0    
2019/06/05  17:51:00  BASE  1.00548  102  2.90472  125  -0.5  100   -0.5  5     0     984.4    NA       0.0000   9999     0     0     0    
2019/06/05  17:52:00  BASE  1.176    110  2.29908  129  -0.5  100   -0.5  5     0     984.4    NA       0.0000   9999     0     0     0    
2019/06/05  17:53:00  BASE  1.0584   111  2.29908  129  -0.5  100   -0.5  5     0     984.3    NA       0.0000   9999     0     0     0    
2019/06/05  17:54:00  BASE  0.90552  110  2.29908  129  -0.5  100   -0.5  5     0     984.3    NA       0.0000   9999     0     0     0    
2019/06/05  17:55:00  BASE  0.9702   112  2.29908  129  -0.5  100   -0.5  5     0     984.3    NA       0.0000   9999     0     0     0    
2019/06/05  17:56:00  BASE  1.04076  117  1.54056  116  -0.5  100   -0.5  5     0     984.3    NA       0.0000   9999     0     0     0    
2019/06/05  17:57:00  BASE  1.0584   129  1.54056  116  -0.6  100   -0.6  5     0     984.2    NA       0.0000   9999     0     0     0    
2019/06/05  17:58:00  BASE  0.85848  134  1.54056  116  -0.6  100   -0.6  5     0     984.2    NA       0.0000   9999     0     0     0    
2019/06/05  17:59:01  BASE  0.3822   132  1.54056  116  -0.6  100   -0.6  4     0     984.1    NA       0.0000   9999     0     0     0    
2019/06/05  18:00:01  BASE  0.30576  129  1.54056  116  -0.6  100   -0.6  4     0     984.1    NA       0.0000   9999     0     0     0    
2019/06/05  18:01:01  BASE  0.6468   131  1.54056  116  -0.6  100   -0.6  4     0     984.1    NA       0.0000   9999     0     0     0    
2019/06/05  18:02:01  BASE  0.88788  141  1.27008  137  -0.7  100   -0.7  4     0     984.1    NA       0.0000   9999     0     0     0    
2019/06/05  18:03:01  BASE  1.11132  145  1.29948  137  -0.7  100   -0.7  4     0     984.1    NA       0.0000   9999     0     0     0    
2019/06/05  18:04:01  BASE  1.30536  141  1.60524  142  -0.7  100   -0.7  4     0     984.1    NA       0.0000   9999     0     0     0    
2019/06/05  18:05:01  BASE  1.3818   145  1.60524  142  -0.8  100   -0.8  4     0     984.1    NA       0.0000   9999     0     0     0    
2019/06/05  18:06:01  BASE  1.28184  161  1.60524  142  -0.8  100   -0.8  4     0     984.1    NA       0.0000   9999     0     0     0    
2019/06/05  18:07:01  BASE  1.39356  167  1.75224  161  -0.9  100   -0.9  4     0     984.1    NA       0.0000   9999     0     0     0    
2019/06/05  18:08:01  BASE  1.59936  163  1.75224  161  -1.1  100   -1.1  4     0     984.1    NA       0.0000   9999     0     0     0    
2019/06/05  18:09:01  BASE  1.62876  163  1.75224  161  -1.2  100   -1.2  4     0     984.0    NA       0.0000   9999     0     0     0    
2019/06/05  18:10:01  BASE  1.68756  161  1.93452  160  -1.3  100   -1.3  3     0     984.0    NA       0.0000   9999     0     0     0    
2019/06/05  18:11:01  BASE  1.82868  160  2.1462   159  -1.4  100   -1.4  3     0     984.0    NA       0.0000   9000     0     0     0    
2019/06/05  18:12:01  BASE  1.92864  162  2.1462   159  -1.5  100   -1.5  3     0     984.0    NA       0.0000   9000     0     0     0    
2019/06/05  18:13:01  BASE  1.97568  158  2.1462   149  -1.5  100   -1.5  3     0     984.0    NA       0.0000   9999     0     0     0    
2019/06/05  18:14:01  BASE  1.98156  152  2.1462   149  -1.6  100   -1.6  3     0     984.0    NA       0.0000   9999     0     0     0    
2019/06/05  18:15:01  BASE  1.88748  155  2.1462   149  -1.6  100   -1.6  3     0     983.9    NA       0.0000   9999     0     0     0    
2019/06/05  18:16:01  BASE  1.85808  160  2.1462   149  -1.6  100   -1.6  3     0     983.9    NA       0.0000   9000     0     0     0    
2019/06/05  18:17:01  BASE  1.98156  157  2.42256  148  -1.6  100   -1.6  3     0     983.9    NA       0.0000   BR       9999  0     0    
2019/06/05  18:18:01  BASE  2.28732  146  2.69304  134  -1.6  100   -1.6  3     0     983.9    NA       0.0000   BR       9999  0     0    
2019/06/05  18:19:01  BASE  2.205    136  2.69304  134  -1.6  100   -1.6  3     0     983.9    NA       0.0000   BR       9999  0     0    
2019/06/05  18:20:01  BASE  1.93452  135  2.69304  134  -1.6  100   -1.6  2     0     983.8    NA       0.0000   9999     0     0     0    
2019/06/05  18:21:01  BASE  1.84632  138  2.69304  134  -1.5  100   -1.5  2     0     983.7    NA       0.0000   9999     0     0     0    
2019/06/05  18:22:01  BASE  1.90512  134  2.69304  134  -1.4  100   -1.4  2     0     983.7    NA       0.0000   9999     0     0     0    
2019/06/05  18:23:01  BASE  2.19324  131  2.69304  134  -1.4  100   -1.4  2     0     983.7    NA       0.0000   9999     0     0     0    
2019/06/05  18:24:01  BASE  2.18736  135  2.69304  134  -1.3  100   -1.3  2     0     983.7    NA       0.0000   9999     0     0     0    
2019/06/05  18:25:01  BASE  2.15796  138  2.69304  134  -1.3  100   -1.3  2     0     983.7    NA       0.0000   9999     0     0     0    
2019/06/05  18:26:01  BASE  2.30496  132  2.69304  134  -1.3  100   -1.3  2     0     983.7    NA       0.0000   9999     0     0     0    
2019/06/05  18:27:01  BASE  2.56368  124  2.96352  120  -1.3  100   -1.3  2     0     983.7    NA       0.0000   9999     0     0     0    
2019/06/05  18:28:01  BASE  2.75772  130  3.02232  140  -1.3  100   -1.3  2     0     983.6    NA       0.0000   9999     0     0     0    
2019/06/05  18:29:01  BASE  2.78124  139  3.02232  140  -1.3  100   -1.3  2     0     983.5    NA       0.0000   9999     0     0     0    
2019/06/05  18:30:01  BASE  2.66952  143  3.02232  140  -1.3  100   -1.3  2     0     983.5    NA       0.0000   9999     0     0     0    
2019/06/05  18:31:01  BASE  2.5578   142  3.02232  140  -1.3  100   -1.3  2     0     983.5    NA       0.0000   9999     0     0     0    
2019/06/05  18:32:01  BASE  2.63424  134  3.02232  125  -1.3  100   -1.3  2     0     983.5    NA       0.0000   9999     0     0     0    
2019/06/05  18:33:01  BASE  2.86356  130  3.1458   137  -1.4  100   -1.4  2     0     983.4    NA       0.0000   9999     0     0     0    
2019/06/05  18:34:01  BASE  2.95176  135  3.1458   138  -1.5  100   -1.5  2     0     983.4    NA       0.0000   9999     0     0     0    
2019/06/05  18:35:01  BASE  2.71656  136  3.1458   138  -1.5  100   -1.5  1     0     983.4    NA       0.0000   9999     0     0     0    
2019/06/05  18:36:01  BASE  2.55192  132  3.1458   138  -1.5  100   -1.5  1     0     983.4    NA       0.0000   9999     0     0     0    
2019/06/05  18:37:01  BASE  2.56956  130  3.1458   138  -1.5  100   -1.5  1     0     983.3    NA       0.0000   9999     0     0     0    
2019/06/05  18:38:01  BASE  2.5284   132  3.1458   138  -1.6  100   -1.6  1     0     983.3    NA       0.0000   9999     0     0     0    
2019/06/05  18:39:01  BASE  2.38728  135  3.1458   138  -1.6  100   -1.6  1     0     983.4    NA       0.0000   9999     0     0     0    
2019/06/05  18:40:01  BASE  2.16384  134  3.1458   138  -1.6  100   -1.6  1     0     983.3    NA       0.0000   9999     0     0     0    
2019/06/05  18:41:00  BASE  1.92276  136  3.1458   138  -1.7  100   -1.7  1     0     983.3    NA       0.0000   9999     0     0     0    
2019/06/05  18:42:00  BASE  1.6758   139  3.1458   138  -1.7  100   -1.7  1     0     983.3    NA       0.0000   9999     0     0     0    
2019/06/05  18:43:01  BASE  1.51704  139  3.1458   138  -1.7  100   -1.7  1     0     983.3    NA       0.0000   9999     0     0     0    
2019/06/05  18:44:01  BASE  1.69344  145  2.93412  134  -1.7  100   -1.7  1     0     983.3    NA       0.0000   9999     0     0     0    
2019/06/05  18:45:01  BASE  1.83456  152  2.93412  134  -1.7  100   -1.7  1     0     983.2    NA       0.0000   9999     0     0     0    
2019/06/05  18:46:00  BASE  1.77576  150  2.93412  134  -1.7  100   -1.7  1     0     983.2    NA       0.0000   9999     0     0     0    
2019/06/05  18:47:00  BASE  1.79928  139  2.78124  130  -1.8  100   -1.8  1     0     983.2    NA       0.0000   9999     0     0     0    
2019/06/05  18:48:01  BASE  2.04624  131  2.59896  130  -1.8  100   -1.8  1     0     983.2    NA       0.0000   9999     0     0     0    
2019/06/05  18:49:00  BASE  2.4108   133  2.81064  139  -1.8  100   -1.8  1     0     983.2    NA       0.0000   9999     0     0     0    
2019/06/05  18:50:01  BASE  2.72244  137  3.2046   146  -1.8  100   -1.8  1     0     983.2    NA       0.0000   9999     0     0     0    
2019/06/05  18:51:00  BASE  3.0576   138  3.41628  134  -1.7  100   -1.7  1     0     983.2    NA       0.0000   9999     0     0     0    
2019/06/05  18:52:00  BASE  3.51036  134  4.35708  133  -1.7  100   -1.7  1     0     983.2    NA       0.0000   9999     0     0     0    
2019/06/05  18:53:00  BASE  3.92784  131  4.35708  133  -1.6  100   -1.6  1     0     983.1    NA       0.0000   9999     0     0     0    
2019/06/05  18:54:01  BASE  4.11012  131  4.35708  135  -1.5  100   -1.5  1     0     983.1    NA       0.0000   9999     0     0     0    
2019/06/05  18:55:00  BASE  4.11012  133  4.35708  135  -1.4  100   -1.4  1     0     983.1    NA       0.0000   9999     0     0     0    
2019/06/05  18:56:00  BASE  4.1454   133  4.47468  135  -1.4  100   -1.4  1     0     983.0    NA       0.0000   9999     0     0     0    
2019/06/05  18:57:01  BASE  4.22184  135  4.47468  135  -1.3  100   -1.3  1     0     982.9    NA       0.0000   9999     0     0     0    
2019/06/05  18:58:00  BASE  4.1748   137  4.47468  135  -1.3  100   -1.3  1     0     982.9    NA       0.0000   9999     0     0     0    
2019/06/05  18:59:00  BASE  3.82788  136  4.47468  135  -1.3  100   -1.3  0     0     982.9    NA       0.0000   9999     0     0     0    
2019/06/05  19:00:01  BASE  3.4398   135  4.47468  135  -1.3  100   -1.3  0     0     982.9    NA       0.0000   9999     0     0     0    
2019/06/05  19:01:00  BASE  3.12228  135  4.47468  135  -1.3  100   -1.3  0     0     982.9    NA       0.0000   9999     0     0     0    
2019/06/05  19:02:00  BASE  2.86944  132  4.47468  135  -1.4  100   -1.4  0     0     982.9    NA       0.0000   9999     0     0     0    
2019/06/05  19:03:00  BASE  2.8224   128  4.47468  135  -1.4  100   -1.4  0     0     982.9    NA       0.0000   9999     0     0     0    
2019/06/05  19:04:00  BASE  2.69892  129  4.47468  135  -1.4  100   -1.4  0     0     982.9    NA       0.0000   9999     0     0     0    
2019/06/05  19:05:00  BASE  2.71068  134  4.47468  135  -1.4  100   -1.4  0     0     982.9    NA       0.0000   9999     0     0     0    
2019/06/05  19:06:00  BASE  3.02232  137  4.38648  138  -1.5  100   -1.5  0     0     982.9    NA       0.0000   9999     0     0     0    
2019/06/05  19:07:00  BASE  2.98704  136  4.263    134  -1.5  100   -1.5  0     0     982.8    NA       0.0000   9999     0     0     0    
2019/06/05  19:08:00  BASE  2.68716  137  3.75144  137  -1.5  100   -1.5  0     0     982.8    NA       0.0000   9999     0     0     0    
2019/06/05  19:09:00  BASE  2.6754   137  3.72204  136  -1.5  100   -1.5  0     0     982.8    NA       0.0000   9999     0     0     0    
2019/06/05  19:10:00  BASE  2.5284   135  3.41628  137  -1.5  100   -1.5  0     0     982.8    NA       0.0000   9999     0     0     0    
2019/06/05  19:11:00  BASE  2.26968  126  3.41628  137  -1.5  100   -1.5  0     0     982.8    NA       0.0000   9999     0     0     0    
2019/06/05  19:12:00  BASE  2.09916  118  3.41628  137  -1.5  100   -1.5  0     0     982.8    NA       0.0000   9999     0     0     0    
2019/06/05  19:13:00  BASE  1.75224  127  3.41628  137  -1.4  100   -1.4  0     0     982.8    NA       0.0000   9999     0     0     0    
2019/06/05  19:14:00  BASE  1.76988  138  3.41628  137  -1.4  100   -1.4  0     0     982.8    NA       0.0000   9999     0     0     0    
2019/06/05  19:15:00  BASE  2.21676  147  3.41628  137  -1.4  100   -1.4  0     0     982.7    NA       0.0000   9999     0     0     0    
2019/06/05  19:16:00  BASE  2.39316  158  3.35748  135  -1.4  100   -1.4  0     0     982.7    NA       0.0000   9999     0     0     0    
2019/06/05  19:17:00  BASE  2.46372  156  3.35748  135  -1.4  100   -1.4  0     0     982.7    NA       0.0000   9999     0     0     0    
2019/06/05  19:18:00  BASE  2.52252  146  3.35748  135  -1.4  100   -1.4  0     0     982.6    NA       0.0000   9999     0     0     0    
2019/06/05  19:19:01  BASE  2.54016  142  2.99292  142  -1.5  100   -1.5  0     0     982.6    NA       0.0000   9999     0     0     0    
2019/06/05  19:20:00  BASE  2.5284   143  2.99292  142  -1.5  100   -1.5  0     0     982.5    NA       0.0000   9999     0     0     0    
2019/06/05  19:21:01  BASE  2.44608  144  2.99292  142  -1.5  100   -1.5  0     0     982.6    NA       0.0000   9999     0     0     0    
2019/06/05  19:22:00  BASE  2.3226   146  2.99292  142  -1.5  100   -1.5  0     0     982.5    NA       0.0000   9999     0     0     0    
2019/06/05  19:23:00  BASE  2.36964  148  2.99292  142  -1.5  100   -1.5  0     0     982.4    NA       0.0000   9999     0     0     0    
2019/06/05  19:24:00  BASE  2.50488  141  2.99292  142  -1.4  100   -1.4  0     0     982.4    NA       0.0000   9999     0     0     0    
2019/06/05  19:25:00  BASE  2.56368  133  2.99292  142  -1.4  100   -1.4  0     0     982.4    NA       0.0000   9999     0     0     0    
2019/06/05  19:26:00  BASE  2.42256  133  2.99292  142  -1.4  100   -1.4  0     0     982.4    NA       0.0000   9999     0     0     0    
2019/06/05  19:27:00  BASE  2.16972  132  2.93412  145  -1.4  100   -1.4  0     0     982.4    NA       0.0000   9999     0     0     0    
2019/06/05  19:28:00  BASE  1.86396  133  2.90472  145  -1.3  100   -1.3  0     0     982.4    NA       0.0000   9999     0     0     0    
2019/06/05  19:29:00  BASE  1.39356  136  2.90472  145  -1.3  100   -1.3  0     0     982.3    NA       0.0000   9999     0     0     0    
2019/06/05  19:30:00  BASE  1.09956  140  2.78124  132  -1.3  100   -1.3  0     0     982.3    NA       0.0000   9999     0     0     0    
2019/06/05  19:31:00  BASE  0.72912  156  2.78124  132  -1.4  100   -1.4  0     0     982.3    NA       0.0000   9999     0     0     0    
2019/06/05  19:32:00  BASE  0.2352   188  2.78124  132  -1.4  100   -1.4  0     0     982.3    NA       0.0000   9999     0     0     0    
2019/06/05  19:33:00  BASE  0        240  2.78124  132  -1.5  100   -1.5  0     0     982.3    NA       0.0000   9999     0     0     0    
2019/06/05  19:34:00  BASE  0        278  2.78124  132  -1.5  100   -1.5  0     0     982.3    NA       0.0000   9999     0     0     0    
2019/06/05  19:35:00  BASE  0        312  2.63424  129  -1.5  100   -1.5  0     0     982.3    NA       0.0000   9999     0     0     0    
2019/06/05  19:36:00  BASE  0        337  2.42256  129  -1.5  100   -1.5  0     0     982.3    NA       0.0000   9999     0     0     0    
2019/06/05  19:37:00  BASE  0.11172  322  2.0874   137  -1.5  100   -1.5  0     0     982.3    NA       0.0000   9999     0     0     0    
2019/06/05  19:38:00  BASE  0.17052  310  1.51116  124  -1.5  100   -1.5  0     0     982.3    NA       0.0000   9999     0     0     0    
2019/06/05  19:39:00  BASE  0.0588   333  1.24068  142  -1.5  100   -1.5  0     0     982.3    NA       0.0000   9999     0     0     0    
2019/06/05  19:40:00  BASE  0        351  0.75852  316  -1.6  100   -1.6  0     0     982.3    NA       0.0000   9999     0     0     0    
2019/06/05  19:41:00  BASE  0        348  0.75852  316  -1.6  100   -1.6  0     0     982.3    NA       0.0000   9999     460   0     0    
2019/06/05  19:42:00  BASE  0.21756  21   1.0878   103  -1.6  100   -1.6  0     0     982.3    NA       0.0000   9999     0     0     0    
2019/06/05  19:43:00  BASE  0.4998   108  1.0878   103  -1.6  100   -1.6  0     0     982.2    NA       0.0000   9999     0     0     0    
2019/06/05  19:44:00  BASE  0.71148  147  1.0878   103  -1.5  100   -1.5  0     0     982.2    NA       0.0000   9999     0     0     0    
2019/06/05  19:45:00  BASE  1.0878   165  1.63464  149  -1.5  100   -1.5  0     0     982.2    NA       0.0000   9999     0     0     0    
2019/06/05  19:46:00  BASE  1.39356  154  1.72284  143  -1.4  100   -1.4  0     0     982.2    NA       0.0000   9999     0     0     0    
2019/06/05  19:47:00  BASE  1.29948  144  1.72284  143  -1.5  100   -1.5  0     0     982.2    NA       0.0000   9999     0     0     0    
2019/06/05  19:48:00  BASE  1.14072  156  1.72284  143  -1.5  100   -1.5  0     0     982.1    NA       0.0000   9999     0     0     0    
2019/06/05  19:49:00  BASE  1.07016  154  1.72284  143  -1.6  100   -1.6  0     0     982.2    NA       0.0000   9999     0     0     0    
2019/06/05  19:50:00  BASE  1.176    147  1.72284  143  -1.6  100   -1.6  0     0     982.2    NA       0.0000   9999     0     0     0    
2019/06/05  19:51:00  BASE  1.41708  141  1.75224  138  -1.6  100   -1.6  0     0     982.2    NA       0.0000   9999     430   0     0    
2019/06/05  19:52:00  BASE  1.60524  136  1.90512  150  -1.5  100   -1.5  0     0     982.2    NA       0.0000   9999     300   0     0    
2019/06/05  19:53:00  BASE  2.01096  134  2.56956  134  -1.5  100   -1.5  0     0     982.3    NA       0.0000   9999     300   0     0    
2019/06/05  19:54:00  BASE  2.16972  128  2.56956  134  -1.5  100   -1.5  0     0     982.3    NA       0.0000   9999     260   0     0    
2019/06/05  19:55:00  BASE  2.00508  126  2.56956  134  -1.5  100   -1.5  0     0     982.2    NA       0.0000   9999     360   0     0    
2019/06/05  19:56:00  BASE  1.93452  130  2.56956  134  -1.5  100   -1.5  0     0     982.2    NA       0.0000   9999     300   0     0    
2019/06/05  19:57:00  BASE  2.09328  129  2.99292  132  -1.5  100   -1.5  0     0     982.2    NA       0.0000   9999     260   0     0    
2019/06/05  19:58:00  BASE  2.45784  126  2.99292  132  -1.5  100   -1.5  0     0     982.1    NA       0.0000   9999     260   0     0    
2019/06/05  19:59:00  BASE  2.6754   126  3.26928  130  -1.5  100   -1.5  0     0     982.1    NA       0.0000   9999     0     0     0    
2019/06/05  20:00:00  BASE  3.02232  126  3.53976  128  -1.5  100   -1.5  0     0     982.1    NA       0.0000   9999     0     0     0    
2019/06/05  20:01:00  BASE  3.528    124  3.99252  124  -1.5  100   -1.5  0     0     982.1    NA       0.0000   9999     0     0     0    
2019/06/05  20:02:00  BASE  3.89844  123  4.2042   124  -1.5  100   -1.5  0     0     982.1    NA       0.0000   9999     0     0     0    
2019/06/05  20:03:00  BASE  4.04544  123  4.29828  122  -1.5  100   -1.5  0     0     982.1    NA       0.0000   9999     0     0     0    
2019/06/05  20:04:00  BASE  3.85728  119  4.29828  122  -1.6  100   -1.6  0     0     982.0    NA       0.0000   9999     160   0     0    
2019/06/05  20:05:00  BASE  3.822    119  4.29828  122  -1.6  100   -1.6  0     0     982.0    NA       0.0000   9999     160   0     0    
2019/06/05  20:06:00  BASE  3.94548  126  4.32768  132  -1.6  100   -1.6  0     0     982.0    NA       0.0000   9999     0     0     0    
2019/06/05  20:07:00  BASE  3.7044   131  4.32768  132  -1.6  100   -1.6  0     0     982.0    NA       0.0000   9999     0     0     0    
2019/06/05  20:08:00  BASE  3.46332  132  4.32768  132  -1.6  100   -1.6  0     0     982.0    NA       0.0000   9999     0     0     0    
2019/06/05  20:09:00  BASE  3.19284  125  4.32768  132  -1.6  100   -1.6  0     0     982.0    NA       0.0000   9999     0     0     0    
2019/06/05  20:10:00  BASE  2.40492  96   4.32768  132  -1.6  100   -1.6  0     0     982.0    NA       0.0000   9999     260   0     0    
2019/06/05  20:11:00  BASE  1.42884  85   4.32768  132  -1.6  100   -1.6  0     0     982.0    NA       0.0000   9999     260   0     0    
2019/06/05  20:12:00  BASE  0.79968  93   4.32768  132  -1.6  100   -1.6  0     0     982.0    NA       0.0000   9999     260   0     0    
2019/06/05  20:13:00  BASE  0.8232   112  4.32768  132  -1.6  100   -1.6  0     0     981.9    NA       0.0000   9999     0     0     0    
2019/06/05  20:14:00  BASE  0.95844  142  4.32768  132  -1.6  100   -1.6  0     0     981.9    NA       0.0000   9999     0     0     0    
2019/06/05  20:15:00  BASE  0.83496  137  4.32768  132  -1.5  100   -1.5  0     0     981.8    NA       0.0000   9999     0     0     0    
2019/06/05  20:16:00  BASE  0.40572  90   3.86904  133  -1.5  100   -1.5  0     0     981.9    NA       0.0000   9999     0     0     0    
2019/06/05  20:17:00  BASE  0.50568  43   3.86904  133  -1.5  100   -1.5  0     0     981.8    NA       0.0000   9999     0     0     0    
2019/06/05  20:18:00  BASE  1.41708  48   3.29868  121  -1.5  100   -1.5  0     0     981.8    NA       0.0000   9999     0     0     0    
2019/06/05  20:19:00  BASE  1.86984  72   2.32848  87   -1.5  100   -1.5  0     0     981.9    NA       0.0000   9999     0     0     0    
2019/06/05  20:20:00  BASE  1.7346   88   2.32848  87   -1.5  100   -1.5  0     0     981.8    NA       0.0000   9999     0     0     0    
2019/06/05  20:21:00  BASE  1.3524   107  2.32848  87   -1.5  100   -1.5  0     0     981.8    NA       0.0000   9999     0     0     0    
2019/06/05  20:22:00  BASE  1.63464  127  2.87532  146  -1.5  100   -1.5  0     0     981.8    NA       0.0000   9999     0     0     0    
2019/06/05  20:23:00  BASE  2.5578   137  3.75144  138  -1.4  100   -1.4  0     0     981.8    NA       0.0000   9999     0     0     0    
2019/06/05  20:24:00  BASE  3.46332  145  4.86864  153  -1.4  100   -1.4  0     0     981.8    NA       0.0000   9999     0     0     0    
2019/06/05  20:25:00  BASE  4.18068  149  4.99212  150  -1.3  100   -1.3  0     0     981.7    NA       0.0000   9999     0     0     0    
2019/06/05  20:26:00  BASE  4.52172  149  5.59776  153  -1.3  100   -1.3  0     0     981.7    NA       0.0000   9999     0     0     0    
2019/06/05  20:27:00  BASE  4.8804   147  5.59776  153  -1.2  100   -1.2  0     0     981.7    NA       0.0000   9999     0     0     0    
2019/06/05  20:28:00  BASE  5.02152  146  5.59776  153  -1.2  100   -1.2  0     0     981.7    NA       0.0000   9999     0     0     0    
2019/06/05  20:29:00  BASE  4.49232  146  5.59776  153  -1.1  100   -1.1  0     0     981.7    NA       0.0000   9999     0     0     0    
2019/06/05  20:30:00  BASE  4.27476  148  5.59776  153  -1.1  100   -1.1  0     0     981.7    NA       0.0000   9999     0     0     0    
2019/06/05  20:31:00  BASE  4.59816  149  5.59776  153  -1.1  100   -1.1  0     0     981.7    NA       0.0000   9999     0     0     0    
2019/06/05  20:32:00  BASE  4.55112  150  5.59776  153  -1.1  100   -1.1  0     0     981.7    NA       0.0000   9999     0     0     0    
2019/06/05  20:33:00  BASE  4.49232  150  5.59776  153  -1.1  100   -1.1  0     0     981.6    NA       0.0000   9999     16500 0     0    
2019/06/05  20:34:00  BASE  4.49232  148  5.59776  153  -1.1  100   -1.1  0     0     981.7    NA       0.0000   9999     16540 0     0    
2019/06/05  20:35:00  BASE  4.29828  145  5.59776  153  -1.1  100   -1.1  0     0     981.7    NA       0.0000   9999     0     0     0    
2019/06/05  20:36:00  BASE  3.89844  141  5.47428  156  -1.1  100   -1.1  0     0     981.7    NA       0.0000   9999     0     0     0    
2019/06/05  20:37:00  BASE  3.5868   143  5.2626   149  -1.1  100   -1.1  0     0     981.7    NA       0.0000   9999     0     0     0    
2019/06/05  20:38:00  BASE  3.71616  147  5.08032  147  -1.2  100   -1.2  0     0     981.7    NA       0.0000   9999     0     0     0    
2019/06/05  20:39:00  BASE  4.02192  149  5.08032  147  -1.2  100   -1.2  0     0     981.6    NA       0.0000   9999     0     0     0    
2019/06/05  20:40:00  BASE  3.95724  149  5.08032  147  -1.2  100   -1.2  0     0     981.6    NA       0.0000   9999     0     0     0    
2019/06/05  20:41:00  BASE  3.65736  150  5.08032  147  -1.3  100   -1.3  0     0     981.7    NA       0.0000   9999     0     0     0    
2019/06/05  20:42:00  BASE  3.6456   151  5.08032  147  -1.4  100   -1.4  0     0     981.6    NA       0.0000   9999     0     0     0    
2019/06/05  20:43:00  BASE  3.49272  148  4.65696  153  -1.4  100   -1.4  0     0     981.6    NA       0.0000   9999     0     0     0    
2019/06/05  20:44:00  BASE  3.09876  141  4.65696  153  -1.4  100   -1.4  0     0     981.6    NA       0.0000   9999     0     0     0    
2019/06/05  20:45:00  BASE  2.79888  131  4.65696  153  -1.4  100   -1.4  0     0     981.6    NA       0.0000   9999     0     0     0    
2019/06/05  20:46:00  BASE  2.79888  128  4.65696  153  -1.4  100   -1.4  0     0     981.7    NA       0.0000   9999     0     0     0    
2019/06/05  20:47:00  BASE  2.72832  123  4.65696  153  -1.4  100   -1.4  0     0     981.6    NA       0.0000   9999     0     0     0    
2019/06/05  20:48:00  BASE  2.48724  112  4.65696  153  -1.4  100   -1.4  0     0     981.6    NA       0.0000   9999     0     0     0    
2019/06/05  20:49:00  BASE  2.2932   110  4.29828  151  -1.4  100   -1.4  0     0     981.6    NA       0.0000   9999     0     0     0    
2019/06/05  20:50:00  BASE  2.29908  118  4.29828  151  -1.3  100   -1.3  0     0     981.6    NA       0.0000   9999     0     0     0    
2019/06/05  20:51:00  BASE  2.39904  118  4.29828  151  -1.3  100   -1.3  0     0     981.6    NA       0.0000   9999     0     0     0    
2019/06/05  20:52:00  BASE  2.07564  113  3.69264  139  -1.2  100   -1.2  0     0     981.6    NA       0.0000   9999     0     0     0    
2019/06/05  20:53:00  BASE  1.45824  100  3.69264  139  -1.1  100   -1.1  0     0     981.6    NA       0.0000   9999     0     0     0    
2019/06/05  20:54:00  BASE  1.07604  90   3.59856  134  -1.1  100   -1.1  0     0     981.6    NA       0.0000   9999     0     0     0    
2019/06/05  20:55:00  BASE  0.9996   79   3.59856  134  -1.0  100   -1.0  0     0     981.6    NA       0.0000   9999     0     0     0    
2019/06/05  20:56:00  BASE  1.07016  66   3.26928  135  -1.0  100   -1.0  0     0     981.6    NA       0.0000   9999     0     0     0    
2019/06/05  20:57:00  BASE  1.21128  59   2.69304  102  -1.0  100   -1.0  0     0     981.6    NA       0.0000   9999     0     0     0    
2019/06/05  20:58:00  BASE  1.176    46   2.66364  120  -1.0  100   -1.0  0     0     981.6    NA       0.0000   9999     0     0     0    
2019/06/05  20:59:00  BASE  1.06428  37   2.66364  120  -1.0  100   -1.0  0     0     981.6    NA       0.0000   9999     0     0     0    
2019/06/05  21:00:00  BASE  0.72324  16   2.56956  121  -1.0  100   -1.0  0     0     981.6    NA       0.0000   9999     0     0     0    
2019/06/05  21:01:00  BASE  0.58212  3    2.38728  110  -1.0  100   -1.0  0     0     981.6    NA       0.0000   9999     0     0     0    
2019/06/05  21:02:00  BASE  0.80556  4    1.45236  70   -1.0  100   -1.0  0     0     981.6    NA       0.0000   9999     0     0     0    
2019/06/05  21:03:00  BASE  0.93492  5    1.45236  70   -0.9  100   -0.9  0     0     981.6    NA       0.0000   9999     0     0     0    
2019/06/05  21:04:00  BASE  0.88788  27   1.45236  70   -0.9  100   -0.9  0     0     981.5    NA       0.0000   9999     0     0     0    
2019/06/05  21:05:00  BASE  0.90552  70   1.48176  115  -0.9  100   -0.9  0     0     981.6    NA       0.0000   9999     0     0     0    
2019/06/05  21:06:00  BASE  1.04664  113  1.48176  115  -0.8  100   -0.8  0     0     981.6    NA       0.0000   9999     0     0     0    
2019/06/05  21:07:00  BASE  1.27008  135  1.63464  147  -0.7  100   -0.7  0     0     981.6    NA       0.0000   9999     0     0     0    
2019/06/05  21:08:00  BASE  1.54644  134  1.69344  128  -0.7  100   -0.7  0     0     981.6    NA       0.0000   9999     0     0     0    
2019/06/05  21:09:00  BASE  1.58172  112  1.72284  91   -0.8  100   -0.8  0     0     981.6    NA       0.0000   9999     0     0     0    
2019/06/05  21:10:00  BASE  1.52292  109  1.90512  105  -0.8  100   -0.8  0     0     981.6    NA       0.0000   9999     0     0     0    
2019/06/05  21:11:00  BASE  1.40532  129  1.90512  105  -0.8  100   -0.8  0     0     981.6    NA       0.0000   9999     0     0     0    
2019/06/05  21:12:00  BASE  1.19364  133  1.90512  105  -0.8  100   -0.8  0     0     981.6    NA       0.0000   9999     0     0     0    
2019/06/05  21:13:00  BASE  1.08192  135  1.90512  105  -0.9  100   -0.9  0     0     981.6    NA       0.0000   9999     0     0     0    
2019/06/05  21:14:00  BASE  1.16424  140  1.90512  105  -0.9  100   -0.9  0     0     981.6    NA       0.0000   9999     0     0     0    
2019/06/05  21:15:00  BASE  1.05252  157  1.90512  105  -0.9  100   -0.9  0     0     981.5    NA       0.0000   9999     0     0     0    
2019/06/05  21:16:00  BASE  0.63504  169  1.90512  105  -1.0  100   -1.0  0     0     981.5    NA       0.0000   9999     0     0     0    
2019/06/05  21:17:00  BASE  0.42924  163  1.90512  105  -1.0  100   -1.0  0     0     981.5    NA       0.0000   9999     0     0     0    
2019/06/05  21:18:00  BASE  0.5586   165  1.90512  105  -0.9  100   -0.9  0     0     981.5    NA       0.0000   9999     0     0     0    
2019/06/05  21:19:00  BASE  0.86436  162  1.90512  105  -0.9  100   -0.9  0     0     981.5    NA       0.0000   9999     0     0     0    
2019/06/05  21:20:00  BASE  0.81144  163  1.63464  158  -0.9  100   -0.9  0     0     981.5    NA       0.0000   9999     0     0     0    
2019/06/05  21:21:00  BASE  0.66444  142  1.63464  158  -0.9  100   -0.9  0     0     981.5    NA       0.0000   9999     0     0     0    
2019/06/05  21:22:00  BASE  0.37632  148  1.63464  158  -0.9  100   -0.9  0     0     981.5    NA       0.0000   9999     0     0     0    
2019/06/05  21:23:00  BASE  0.31752  166  1.63464  158  -0.9  100   -0.9  0     0     981.5    NA       0.0000   9999     0     0     0    
2019/06/05  21:24:00  BASE  0.34104  144  1.63464  158  -0.9  100   -0.9  0     0     981.5    NA       0.0000   9999     0     0     0    
2019/06/05  21:25:00  BASE  0.02352  95   1.63464  158  -1.0  100   -1.0  0     0     981.4    NA       0.0000   9999     0     0     0    
2019/06/05  21:26:00  BASE  0        348  1.63464  158  -1.0  100   -1.0  0     0     981.3    NA       0.0000   9999     0     0     0    
2019/06/05  21:27:00  BASE  0.15288  287  1.63464  158  -1.0  100   -1.0  0     0     981.2    NA       0.0000   9999     0     0     0    
2019/06/05  21:28:00  BASE  0.21756  247  1.63464  158  -1.0  100   -1.0  0     0     981.3    NA       0.0000   9999     0     0     0    
2019/06/05  21:29:00  BASE  0.68208  170  1.63464  164  -1.0  100   -1.0  0     0     981.3    NA       0.0000   9999     0     0     0    
2019/06/05  21:30:00  BASE  1.42884  169  1.75224  185  -1.0  100   -1.0  0     0     981.3    NA       0.0000   9999     0     0     0    
2019/06/05  21:31:00  BASE  1.56408  183  1.75224  185  -1.0  100   -1.0  0     0     981.2    NA       0.0000   9999     0     0     0    
2019/06/05  21:32:00  BASE  1.764    185  2.56956  185  -0.9  100   -0.9  0     0     981.2    NA       0.0000   9999     0     0     0    
2019/06/05  21:33:00  BASE  2.02272  179  2.56956  185  -1.0  100   -1.0  0     0     981.2    NA       0.0000   9999     0     0     0    
2019/06/05  21:34:00  BASE  1.22892  150  2.56956  185  -1.0  100   -1.0  0     0     981.2    NA       0.0000   9999     0     0     0    
2019/06/05  21:35:00  BASE  1.24068  149  2.56956  185  -1.0  100   -1.0  0     0     981.2    NA       0.0000   9999     0     0     0    
2019/06/05  21:36:00  BASE  2.05212  161  2.56956  185  -1.0  100   -1.0  0     0     981.2    NA       0.0000   9999     0     0     0    
2019/06/05  21:37:00  BASE  1.8522   150  2.56956  185  -1.0  100   -1.0  0     0     981.1    NA       0.0000   9999     0     0     0    
2019/06/05  21:38:00  BASE  2.08152  152  2.87532  149  -0.9  100   -0.9  0     0     981.1    NA       0.0000   9999     0     0     0    
2019/06/05  21:39:00  BASE  2.42844  149  2.87532  149  -0.9  100   -0.9  0     0     981.0    NA       0.0000   9999     0     0     0    
2019/06/05  21:40:00  BASE  2.03448  129  2.87532  149  -1.0  100   -1.0  0     0     981.0    NA       0.0000   9999     0     0     0    
2019/06/05  21:41:00  BASE  2.22264  129  3.02232  138  -1.0  100   -1.0  0     0     981.0    NA       0.0000   9999     0     0     0    
2019/06/05  21:42:00  BASE  2.43432  146  3.02232  138  -1.0  100   -1.0  0     0     981.0    NA       0.0000   9999     0     0     0    
2019/06/05  21:43:00  BASE  1.81104  141  3.02232  138  -1.0  100   -1.0  0     0     981.0    NA       0.0000   9999     0     0     0    
2019/06/05  21:44:00  BASE  1.81104  139  3.02232  138  -1.0  100   -1.0  0     0     981.0    NA       0.0000   9999     0     0     0    
2019/06/05  21:45:00  BASE  2.18736  146  3.02232  138  -1.0  100   -1.0  0     0     981.0    NA       0.0000   9999     0     0     0    
2019/06/05  21:46:00  BASE  2.37552  141  3.02232  138  -1.1  100   -1.1  0     0     981.0    NA       0.0000   9999     0     0     0    
2019/06/05  21:47:00  BASE  2.37552  146  3.02232  138  -1.1  100   -1.1  0     0     981.0    NA       0.0000   9999     0     0     0    
2019/06/05  21:48:00  BASE  1.98744  154  3.02232  138  -1.2  100   -1.2  0     0     981.0    NA       0.0000   9999     0     0     0    
2019/06/05  21:49:00  BASE  1.86984  161  3.02232  138  -1.2  100   -1.2  0     0     981.0    NA       0.0000   9999     0     0     0    
2019/06/05  21:50:00  BASE  2.27556  167  3.02232  138  -1.2  100   -1.2  0     0     981.0    NA       0.0000   9999     0     0     0    
2019/06/05  21:51:00  BASE  2.36376  169  2.69304  164  -1.2  100   -1.2  0     0     981.0    NA       0.0000   9999     0     0     0    
2019/06/05  21:52:00  BASE  2.1462   167  2.69304  164  -1.2  100   -1.2  0     0     980.9    NA       0.0000   9999     0     0     0    
2019/06/05  21:53:00  BASE  1.911    163  2.69304  164  -1.1  100   -1.1  0     0     980.9    NA       0.0000   9999     0     0     0    
2019/06/05  21:54:00  BASE  2.01684  163  2.69304  164  -1.1  100   -1.1  0     0     980.9    NA       0.0000   9999     0     0     0    
2019/06/05  21:55:00  BASE  2.2932   161  2.69304  164  -1.1  100   -1.1  0     0     980.9    NA       0.0000   9999     0     0     0    
2019/06/05  21:56:00  BASE  2.21088  151  2.69304  164  -1.2  100   -1.2  0     0     981.0    NA       0.0000   9999     0     0     0    
2019/06/05  21:57:00  BASE  2.05212  129  2.69304  164  -1.1  100   -1.1  0     0     980.9    NA       0.0000   9999     0     0     0    
2019/06/05  21:58:00  BASE  1.51116  126  2.69304  164  -1.1  100   -1.1  0     0     980.9    NA       0.0000   9999     0     0     0    
2019/06/05  21:59:00  BASE  1.31712  145  2.69304  164  -1.1  100   -1.1  0     0     980.8    NA       0.0000   9999     0     0     0    
2019/06/05  22:00:00  BASE  1.5288   147  2.56956  160  -1.1  100   -1.1  0     0     980.7    NA       0.0000   9999     0     0     0    
2019/06/05  22:02:00  BASE  M        M    13.74    45   -1.1  100   -1.1  0     0     M        NA       0.0000   M        0     0     0    
2019/06/05  22:03:00  BASE  M        M    13.74    45   -1.1  100   -1.1  0     0     980.7    NA       0.0000   9999     0     0     0    
2019/06/05  22:04:00  BASE  2.48136  133  8.07912  45   -1.1  100   -1.1  0     0     980.7    NA       0.0000   9999     0     0     0    
2019/06/05  22:05:00  BASE  2.59308  114  8.07912  45   -1.2  100   -1.2  0     0     980.7    NA       0.0000   9999     0     0     0    
2019/06/05  22:06:00  BASE  2.50488  80   8.07912  45   -1.3  100   -1.3  0     0     980.6    NA       0.0000   9999     0     0     0    
2019/06/05  22:07:00  BASE  2.28144  60   8.07912  45   -1.3  100   -1.3  0     0     980.7    NA       0.0000   9999     0     0     0    
2019/06/05  22:08:00  BASE  2.06388  57   8.07912  45   -1.3  100   -1.3  0     0     980.7    NA       0.0000   9999     0     0     0    
2019/06/05  22:09:01  BASE  1.8816   47   8.07912  45   -1.3  100   -1.3  0     0     980.6    NA       0.0000   9999     0     0     0    
2019/06/05  22:10:00  BASE  1.72284  36   2.93412  101  -1.3  100   -1.3  0     0     980.6    NA       0.0000   9999     0     0     0    
2019/06/05  22:11:00  BASE  1.24656  36   2.93412  101  -1.3  100   -1.3  0     0     980.6    NA       0.0000   9999     0     0     0    
2019/06/05  22:12:00  BASE  0.92316  46   2.93412  101  -1.3  100   -1.3  0     0     980.6    NA       0.0000   9999     0     0     0    
2019/06/05  22:13:00  BASE  0.61152  48   2.93412  101  -1.2  100   -1.2  0     0     980.6    NA       0.0000   9999     0     0     0    
2019/06/05  22:14:00  BASE  0.33516  65   2.93412  101  -1.1  100   -1.1  0     0     980.6    NA       0.0000   9999     0     0     0    
2019/06/05  22:15:00  BASE  0.63504  103  2.72244  68   -1.1  100   -1.1  0     0     980.6    NA       0.0000   9999     0     0     0    
2019/06/05  22:16:00  BASE  1.09956  140  2.42256  76   -1.0  100   -1.0  0     0     980.6    NA       0.0000   9999     0     0     0    
2019/06/05  22:17:00  BASE  2.01684  170  2.87532  177  -1.0  100   -1.0  0     0     980.6    NA       0.0000   9999     0     0     0    
2019/06/05  22:18:00  BASE  2.499    175  2.87532  177  -1.0  100   -1.0  0     0     980.6    NA       0.0000   9999     0     0     0    
2019/06/05  22:19:00  BASE  1.95804  172  2.87532  177  -1.0  100   -1.0  0     0     980.6    NA       0.0000   9999     0     0     0    
2019/06/05  22:20:00  BASE  1.42884  169  2.87532  177  -1.0  100   -1.0  0     0     980.6    NA       0.0000   9999     0     0     0    
2019/06/05  22:21:00  BASE  1.2642   169  2.87532  177  -1.0  100   -1.0  0     0     980.6    NA       0.0000   9999     0     0     0    
2019/06/05  22:22:00  BASE  1.71696  170  2.87532  177  -1.0  100   -1.0  0     0     980.6    NA       0.0000   9999     0     0     0    
2019/06/05  22:23:00  BASE  2.50488  173  3.087    176  -0.9  100   -0.9  0     0     980.6    NA       0.0000   9999     0     0     0    
2019/06/05  22:24:00  BASE  3.03996  179  3.48096  180  -1.0  100   -1.0  0     0     980.7    NA       0.0000   9999     0     0     0    
2019/06/05  22:25:00  BASE  2.646    178  3.48096  180  -1.0  100   -1.0  0     0     980.7    NA       0.0000   9999     0     0     0    
2019/06/05  22:26:00  BASE  1.54644  162  3.48096  180  -1.1  100   -1.1  0     0     980.6    NA       0.0000   9999     0     0     0    
2019/06/05  22:27:00  BASE  0.92316  156  3.48096  180  -1.0  100   -1.0  0     0     980.6    NA       0.0000   9999     0     0     0    
2019/06/05  22:28:00  BASE  0.98784  169  3.48096  180  -1.0  100   -1.0  0     0     980.6    NA       0.0000   9999     0     0     0    
2019/06/05  22:29:00  BASE  0.87024  170  3.48096  180  -0.9  100   -0.9  0     0     980.7    NA       0.0000   9999     0     0     0    
2019/06/05  22:30:01  BASE  0.54684  138  3.48096  180  -0.8  100   -0.8  0     0     980.7    NA       0.0000   9999     0     0     0    
2019/06/05  22:31:01  BASE  1.2936   19   3.48096  180  -0.8  100   -0.8  0     0     980.7    NA       0.0000   9999     0     0     0    
2019/06/05  22:32:01  BASE  2.33436  356  3.48096  180  -0.8  100   -0.8  0     0     980.7    NA       0.0000   9999     0     0     0    
2019/06/05  22:33:01  BASE  2.793    336  3.48096  180  -0.8  100   -0.8  0     0     980.8    NA       0.0000   9999     0     0     0    
2019/06/05  22:34:01  BASE  2.94588  327  3.32808  321  -0.9  100   -0.9  0     0     980.8    NA       0.0000   9999     0     0     0    
2019/06/05  22:35:01  BASE  2.98704  335  3.56916  343  -1.0  100   -1.0  0     0     980.7    NA       0.0000   9999     0     0     0    
2019/06/05  22:36:01  BASE  3.22224  342  3.56916  343  -1.2  100   -1.2  0     0     980.7    NA       0.0000   9999     0     0     0    
2019/06/05  22:37:01  BASE  3.43392  345  3.81024  340  -1.3  100   -1.3  0     0     980.7    NA       0.0000   9000     0     0     0    
2019/06/05  22:38:01  BASE  3.6456   340  4.02192  332  -1.4  100   -1.4  0     0     980.8    NA       0.0000   9999     0     0     0    
2019/06/05  22:39:01  BASE  3.88668  333  4.263    332  -1.4  100   -1.4  0     0     980.8    NA       0.0000   9999     0     0     0    
2019/06/05  22:40:01  BASE  3.9984   331  4.263    332  -1.5  100   -1.5  0     0     980.8    NA       0.0000   9999     0     0     0    
2019/06/05  22:41:01  BASE  4.15128  333  4.41588  328  -1.5  100   -1.5  0     0     980.9    NA       0.0000   9999     0     0     0    
2019/06/05  22:42:01  BASE  4.19832  331  4.41588  328  -1.5  100   -1.5  0     0     980.8    NA       0.0000   9999     0     0     0    
2019/06/05  22:43:01  BASE  4.19244  328  4.44528  326  -1.5  100   -1.5  0     0     980.8    NA       0.0000   9999     0     0     0    
2019/06/05  22:44:01  BASE  4.40412  328  4.96272  329  -1.5  100   -1.5  0     0     980.7    NA       0.0000   9999     0     0     0    
2019/06/05  22:45:01  BASE  4.59816  327  4.96272  329  -1.5  100   -1.5  0     0     980.7    NA       0.0000   9999     0     0     0    
2019/06/05  22:46:01  BASE  4.31004  325  4.96272  329  -1.4  100   -1.4  0     0     980.7    NA       0.0000   9999     0     0     0    
2019/06/05  22:47:01  BASE  3.57504  327  4.96272  329  -1.4  100   -1.4  0     0     980.8    NA       0.0000   9000     0     0     0    
2019/06/05  22:48:01  BASE  3.09876  328  4.96272  329  -1.4  100   -1.4  0     0     980.8    NA       0.0000   9000     0     0     0    
2019/06/05  22:49:01  BASE  3.12816  328  4.96272  329  -1.4  100   -1.4  0     0     980.8    NA       0.0000   8000     0     0     0    
2019/06/05  22:50:01  BASE  3.11052  330  4.96272  329  -1.4  100   -1.4  0     0     980.8    NA       0.0000   BR       8000  0     0    
2019/06/05  22:51:01  BASE  2.85768  325  4.96272  329  -1.5  100   -1.5  0     0     980.8    NA       0.0000   BR       8000  0     0    
2019/06/05  22:52:01  BASE  2.54016  320  4.96272  329  -1.5  100   -1.5  0     0     980.8    NA       0.0000   BR       8000  0     0    
2019/06/05  22:53:01  BASE  2.04036  334  4.96272  329  -1.5  100   -1.5  0     0     980.9    NA       0.0000   BR       8000  0     0    
2019/06/05  22:54:01  BASE  1.63464  358  4.93332  327  -1.5  100   -1.5  0     0     980.9    NA       0.0000   BR       9000  0     0    
2019/06/05  22:55:01  BASE  1.55232  354  4.263    322  -1.5  100   -1.5  0     0     980.8    NA       0.0000   BR       9000  0     0    
2019/06/05  22:56:01  BASE  1.8816   328  3.53976  329  -1.5  100   -1.5  0     0     980.7    NA       0.0000   BR       9000  0     0    
2019/06/05  22:57:01  BASE  2.4696   321  3.35748  335  -1.5  100   -1.5  0     0     980.7    NA       0.0000   BR       9000  0     0    
2019/06/05  22:58:01  BASE  2.80476  328  3.35748  335  -1.5  100   -1.5  0     0     980.8    NA       0.0000   BR       9999  0     0    
2019/06/05  22:59:01  BASE  2.84592  335  3.26928  330  -1.5  100   -1.5  0     0     980.8    NA       0.0000   BR       9999  0     0    
2019/06/05  23:00:01  BASE  2.72832  332  2.96352  333  -1.5  100   -1.5  0     0     980.8    NA       0.0000   BR       9999  0     0    
2019/06/05  23:01:01  BASE  2.66952  320  2.96352  333  -1.4  100   -1.4  0     0     980.8    NA       0.0000   BR       9999  0     0    
2019/06/05  23:02:01  BASE  2.74596  313  2.96352  333  -1.4  100   -1.4  0     0     980.9    NA       0.0000   BR       9999  0     0    
2019/06/05  23:03:01  BASE  2.646    317  2.96352  333  -1.4  100   -1.4  0     0     980.8    NA       0.0000   BR       9999  0     0    
2019/06/05  23:04:01  BASE  2.38728  328  2.96352  333  -1.4  100   -1.4  0     0     980.8    NA       0.0000   9999     0     0     0    
2019/06/05  23:05:01  BASE  2.352    334  2.96352  333  -1.3  100   -1.3  0     0     980.8    NA       0.0000   9999     0     0     0    
2019/06/05  23:06:01  BASE  2.7342   333  3.26928  327  -1.3  100   -1.3  0     0     980.8    NA       0.0000   9999     0     0     0    
2019/06/05  23:07:01  BASE  3.16344  330  3.41628  332  -1.3  100   -1.3  0     0     980.8    NA       0.0000   9999     0     0     0    
2019/06/05  23:08:01  BASE  3.22224  330  3.48096  332  -1.3  100   -1.3  0     0     980.8    NA       0.0000   9999     0     0     0    
2019/06/05  23:09:01  BASE  2.88708  329  3.48096  332  -1.3  100   -1.3  0     0     980.8    NA       0.0000   9999     0     0     0    
2019/06/05  23:10:01  BASE  2.3814   323  3.48096  332  -1.3  100   -1.3  0     0     980.8    NA       0.0000   9999     0     0     0    
2019/06/05  23:11:01  BASE  1.99332  317  3.48096  332  -1.3  100   -1.3  0     0     980.8    NA       0.0000   9999     0     0     0    
2019/06/05  23:12:01  BASE  1.60524  318  3.48096  332  -1.3  100   -1.3  0     0     980.8    NA       0.0000   9999     0     0     0    
2019/06/05  23:13:01  BASE  1.44648  324  3.48096  332  -1.3  100   -1.3  0     0     980.7    NA       0.0000   9999     0     0     0    
2019/06/05  23:14:01  BASE  1.764    324  3.48096  332  -1.3  100   -1.3  0     0     980.6    NA       0.0000   9999     0     0     0    
2019/06/05  23:15:01  BASE  2.15208  322  3.48096  332  -1.3  100   -1.3  0     0     980.6    NA       0.0000   9999     0     0     0    
2019/06/05  23:16:01  BASE  2.28144  324  3.48096  332  -1.3  100   -1.3  0     0     980.6    NA       0.0000   9999     0     0     0    
2019/06/05  23:17:01  BASE  2.0286   329  3.48096  332  -1.3  100   -1.3  0     0     980.7    NA       0.0000   9999     0     0     0    
2019/06/05  23:18:01  BASE  1.47     328  2.90472  330  -1.4  100   -1.4  0     0     980.7    NA       0.0000   9999     0     0     0    
2019/06/05  23:19:01  BASE  1.029    321  2.48136  323  -1.4  100   -1.4  0     0     980.8    NA       0.0000   9999     0     0     0    
2019/06/05  23:20:01  BASE  1.09368  323  2.48136  323  -1.4  100   -1.4  0     0     980.8    NA       0.0000   9999     0     0     0    
2019/06/05  23:21:01  BASE  1.4406   332  2.48136  323  -1.4  100   -1.4  0     0     980.8    NA       0.0000   9999     0     0     0    
2019/06/05  23:22:01  BASE  1.66992  340  2.48136  323  -1.3  100   -1.3  0     0     980.8    NA       0.0000   9999     0     0     0    
2019/06/05  23:23:01  BASE  1.62288  340  2.48136  323  -1.3  100   -1.3  0     0     980.7    NA       0.0000   9999     0     0     0    
2019/06/05  23:24:01  BASE  1.39944  326  2.48136  323  -1.3  100   -1.3  0     0     980.7    NA       0.0000   9999     0     0     0    
2019/06/05  23:25:01  BASE  1.19364  303  2.42256  322  -1.3  100   -1.3  0     0     980.7    NA       0.0000   9999     0     0     0    
2019/06/05  23:26:01  BASE  1.0878   283  2.0874   329  -1.3  100   -1.3  0     0     980.7    NA       0.0000   9999     0     0     0    
2019/06/05  23:27:01  BASE  1.01136  286  1.78752  343  -1.3  100   -1.3  0     0     980.7    NA       0.0000   9999     0     0     0    
2019/06/05  23:28:01  BASE  1.19952  325  1.81692  16   -1.3  100   -1.3  0     0     980.7    NA       0.0000   9999     0     0     0    
2019/06/05  23:29:01  BASE  1.8816   11   2.59896  23   -1.3  100   -1.3  0     0     980.7    NA       0.0000   9999     0     0     0    
2019/06/05  23:30:01  BASE  2.50488  24   2.87532  25   -1.3  100   -1.3  0     0     980.7    NA       0.0000   9999     0     0     0    
2019/06/05  23:31:01  BASE  2.5578   26   2.87532  25   -1.3  100   -1.3  0     0     980.7    NA       0.0000   9999     0     0     0    
2019/06/05  23:32:01  BASE  2.25204  25   2.87532  25   -1.4  100   -1.4  0     0     980.7    NA       0.0000   9999     0     0     0    
2019/06/05  23:33:01  BASE  1.92276  21   2.87532  25   -1.4  100   -1.4  0     0     980.7    NA       0.0000   9999     0     0     0    
2019/06/05  23:34:01  BASE  1.83456  21   2.87532  25   -1.4  100   -1.4  0     0     980.6    NA       0.0000   9999     0     0     0    
2019/06/05  23:35:01  BASE  2.00508  25   2.87532  25   -1.4  100   -1.4  0     0     980.6    NA       0.0000   9999     0     0     0    
2019/06/05  23:36:01  BASE  2.12268  29   2.87532  25   -1.3  100   -1.3  0     0     980.7    NA       0.0000   9999     0     0     0    
2019/06/05  23:37:01  BASE  2.11092  25   2.87532  25   -1.3  100   -1.3  0     0     980.7    NA       0.0000   9999     0     0     0    
2019/06/05  23:38:01  BASE  1.85808  13   2.87532  25   -1.2  100   -1.2  0     0     980.6    NA       0.0000   9999     0     0     0    
2019/06/05  23:39:01  BASE  1.50528  350  2.87532  25   -1.1  100   -1.1  0     0     980.6    NA       0.0000   9999     0     0     0    
2019/06/05  23:40:01  BASE  1.16424  326  2.69304  22   -1.1  100   -1.1  0     0     980.6    NA       0.0000   9999     0     0     0    
2019/06/05  23:41:01  BASE  0.53508  317  2.29908  27   -1.0  100   -1.0  0     0     980.6    NA       0.0000   9999     0     0     0    
2019/06/05  23:42:01  BASE  0.05292  326  2.29908  27   -0.9  100   -0.9  0     0     980.6    NA       0.0000   9999     0     0     0    
2019/06/05  23:43:01  BASE  0        356  2.29908  27   -0.8  100   -0.8  0     0     980.6    NA       0.0000   9999     0     0     0    
2019/06/05  23:44:01  BASE  0        37   2.29908  27   -0.8  100   -0.8  0     0     980.6    NA       0.0000   9999     0     0     0    
2019/06/05  23:45:01  BASE  0.14112  32   2.29908  27   -0.8  100   -0.8  0     0     980.6    NA       0.0000   9999     0     0     0    
2019/06/05  23:46:01  BASE  0.75264  357  2.29908  27   -0.8  100   -0.8  0     0     980.5    NA       0.0000   9999     0     0     0    
2019/06/05  23:47:01  BASE  1.40532  342  1.90512  3    -0.8  100   -0.8  0     0     980.5    NA       0.0000   9999     0     0     0    
2019/06/05  23:48:01  BASE  1.43472  4    1.75224  354  -0.8  100   -0.8  0     0     980.6    NA       0.0000   9999     0     0     0    
2019/06/05  23:49:00  BASE  1.54056  48   2.42256  86   -0.6  100   -0.6  0     0     980.6    NA       0.0000   9999     0     0     0    
2019/06/05  23:50:01  BASE  1.74636  68   2.42256  86   -0.6  100   -0.6  0     0     980.6    NA       0.0000   9999     0     0     0    
2019/06/05  23:51:01  BASE  1.53468  39   2.42256  86   -0.4  100   -0.4  0     0     980.6    NA       0.0000   9999     0     0     0    
2019/06/05  23:52:01  BASE  1.48764  2    2.42256  86   -0.3  100   -0.3  0     0     980.4    NA       0.0000   9999     0     0     0    
2019/06/05  23:53:01  BASE  1.53468  331  2.42256  86   -0.1  100   -0.1  0     0     980.5    NA       0.0000   9999     0     0     0    
2019/06/05  23:54:01  BASE  1.07016  260  2.42256  86   0.1   100   0.1   0     0     980.6    NA       0.0000   9999     0     0     0    
2019/06/05  23:55:01  BASE  0.95256  167  2.42256  86   0.3   100   0.3   0     0     980.6    NA       0.0000   9999     0     0     0    
2019/06/05  23:56:01  BASE  0.735    129  2.42256  86   0.3   100   0.3   0     0     980.4    NA       0.0000   9999     0     0     0    
2019/06/05  23:57:01  BASE  0.81144  208  2.42256  86   0.1   100   0.1   0     0     980.3    NA       0.0000   9999     0     0     0    
2019/06/05  23:58:00  BASE  1.2936   266  2.42256  86   0.0   100   0.0   0     0     980.3    NA       0.0000   9999     0     0     0    
2019/06/05  23:59:01  BASE  1.47588  201  2.24028  83   -0.2  100   -0.2  0     0     980.4    NA       0.0000   9999     0     0     0